<?xml version='1.0' encoding='UTF-8'?><gpx version="1.1" creator="JPX - https://github.com/jenetics/jpx" xmlns="http://www.topografix.com/GPX/1/1"><trk><trkseg><trkpt lat="45.5255989" lon="11.2681243"><ele>447.0</ele><time>2026-04-04T12:52:05.868Z</time></trkpt><trkpt lat="45.5256972" lon="11.2681309"><ele>447.00000000000006</ele><time>2026-04-04T12:52:08.868Z</time></trkpt><trkpt lat="45.5257738" lon="11.2681956"><ele>447.00000000000006</ele><time>2026-04-04T12:52:10.867Z</time></trkpt><trkpt lat="45.5258738" lon="11.2682859"><ele>447.0</ele><time>2026-04-04T12:52:12.88Z</time></trkpt><trkpt lat="45.525988" lon="11.2683143"><ele>447.0</ele><time>2026-04-04T12:52:14.871Z</time></trkpt><trkpt lat="45.52606" lon="11.2682415"><ele>446.99999999999994</ele><time>2026-04-04T12:52:16.866Z</time></trkpt><trkpt lat="45.5261157" lon="11.2681984"><ele>447.0</ele><time>2026-04-04T12:52:18.868Z</time></trkpt><trkpt lat="45.5261775" lon="11.2680716"><ele>447.0</ele><time>2026-04-04T12:52:20.871Z</time></trkpt><trkpt lat="45.526193" lon="11.2679821"><ele>447.0</ele><time>2026-04-04T12:52:21.865Z</time></trkpt><trkpt lat="45.5262064" lon="11.2678855"><ele>447.0</ele><time>2026-04-04T12:52:22.874Z</time></trkpt><trkpt lat="45.5262175" lon="11.267784"><ele>446.99999999999994</ele><time>2026-04-04T12:52:23.884Z</time></trkpt><trkpt lat="45.5262289" lon="11.2676829"><ele>447.0</ele><time>2026-04-04T12:52:24.89Z</time></trkpt><trkpt lat="45.5262392" lon="11.2675727"><ele>448.1666666666667</ele><time>2026-04-04T12:52:25.896Z</time></trkpt><trkpt lat="45.5262517" lon="11.2674614"><ele>449.33333333333337</ele><time>2026-04-04T12:52:26.879Z</time></trkpt><trkpt lat="45.5262664" lon="11.267347"><ele>450.5</ele><time>2026-04-04T12:52:27.879Z</time></trkpt><trkpt lat="45.526284" lon="11.2672311"><ele>451.6666666666667</ele><time>2026-04-04T12:52:28.874Z</time></trkpt><trkpt lat="45.5263057" lon="11.2671126"><ele>452.83333333333337</ele><time>2026-04-04T12:52:29.871Z</time></trkpt><trkpt lat="45.5263299" lon="11.2669939"><ele>454.0</ele><time>2026-04-04T12:52:30.867Z</time></trkpt><trkpt lat="45.5263519" lon="11.2668762"><ele>454.0</ele><time>2026-04-04T12:52:31.867Z</time></trkpt><trkpt lat="45.5263715" lon="11.2667552"><ele>454.0</ele><time>2026-04-04T12:52:32.879Z</time></trkpt><trkpt lat="45.5263952" lon="11.2666209"><ele>454.0</ele><time>2026-04-04T12:52:33.879Z</time></trkpt><trkpt lat="45.526423" lon="11.2664708"><ele>454.0</ele><time>2026-04-04T12:52:34.87Z</time></trkpt><trkpt lat="45.526449" lon="11.2663118"><ele>454.0</ele><time>2026-04-04T12:52:35.882Z</time></trkpt><trkpt lat="45.526474" lon="11.2661468"><ele>451.75</ele><time>2026-04-04T12:52:36.871Z</time></trkpt><trkpt lat="45.5265053" lon="11.2659876"><ele>449.5</ele><time>2026-04-04T12:52:37.884Z</time></trkpt><trkpt lat="45.5265404" lon="11.2658332"><ele>447.25</ele><time>2026-04-04T12:52:38.873Z</time></trkpt><trkpt lat="45.526586" lon="11.2656846"><ele>445.0</ele><time>2026-04-04T12:52:39.873Z</time></trkpt><trkpt lat="45.5266406" lon="11.2655291"><ele>443.5</ele><time>2026-04-04T12:52:40.873Z</time></trkpt><trkpt lat="45.5267016" lon="11.2653691"><ele>442.0</ele><time>2026-04-04T12:52:41.883Z</time></trkpt><trkpt lat="45.5267665" lon="11.2652005"><ele>440.5</ele><time>2026-04-04T12:52:42.87Z</time></trkpt><trkpt lat="45.5268256" lon="11.2650308"><ele>439.0</ele><time>2026-04-04T12:52:43.869Z</time></trkpt><trkpt lat="45.5268801" lon="11.2648942"><ele>438.2</ele><time>2026-04-04T12:52:44.868Z</time></trkpt><trkpt lat="45.5269267" lon="11.2647703"><ele>437.4</ele><time>2026-04-04T12:52:45.867Z</time></trkpt><trkpt lat="45.5269802" lon="11.2646297"><ele>436.6</ele><time>2026-04-04T12:52:46.869Z</time></trkpt><trkpt lat="45.5270313" lon="11.264511"><ele>435.8</ele><time>2026-04-04T12:52:47.867Z</time></trkpt><trkpt lat="45.527081" lon="11.2643784"><ele>435.0</ele><time>2026-04-04T12:52:48.867Z</time></trkpt><trkpt lat="45.5271187" lon="11.2642709"><ele>435.0</ele><time>2026-04-04T12:52:49.873Z</time></trkpt><trkpt lat="45.5271434" lon="11.2641487"><ele>435.0</ele><time>2026-04-04T12:52:50.876Z</time></trkpt><trkpt lat="45.5271451" lon="11.2640065"><ele>435.0</ele><time>2026-04-04T12:52:51.867Z</time></trkpt><trkpt lat="45.5271129" lon="11.2638751"><ele>435.0</ele><time>2026-04-04T12:52:52.867Z</time></trkpt><trkpt lat="45.5270547" lon="11.2637614"><ele>435.0</ele><time>2026-04-04T12:52:53.868Z</time></trkpt><trkpt lat="45.5269727" lon="11.2636756"><ele>432.4</ele><time>2026-04-04T12:52:54.868Z</time></trkpt><trkpt lat="45.5268867" lon="11.2635859"><ele>429.8</ele><time>2026-04-04T12:52:55.88Z</time></trkpt><trkpt lat="45.5267949" lon="11.2635026"><ele>427.20000000000005</ele><time>2026-04-04T12:52:56.878Z</time></trkpt><trkpt lat="45.5267043" lon="11.2634079"><ele>424.6</ele><time>2026-04-04T12:52:57.879Z</time></trkpt><trkpt lat="45.5266146" lon="11.2633046"><ele>422.0</ele><time>2026-04-04T12:52:58.873Z</time></trkpt><trkpt lat="45.5265353" lon="11.2631953"><ele>418.25</ele><time>2026-04-04T12:52:59.868Z</time></trkpt><trkpt lat="45.5264583" lon="11.2630908"><ele>414.5</ele><time>2026-04-04T12:53:00.867Z</time></trkpt><trkpt lat="45.526358" lon="11.2630106"><ele>410.75</ele><time>2026-04-04T12:53:01.864Z</time></trkpt><trkpt lat="45.5262498" lon="11.2629688"><ele>407.0</ele><time>2026-04-04T12:53:02.877Z</time></trkpt><trkpt lat="45.5261331" lon="11.2629719"><ele>408.5</ele><time>2026-04-04T12:53:03.888Z</time></trkpt><trkpt lat="45.5260173" lon="11.26301"><ele>410.0</ele><time>2026-04-04T12:53:04.893Z</time></trkpt><trkpt lat="45.525901" lon="11.2630713"><ele>411.5</ele><time>2026-04-04T12:53:05.871Z</time></trkpt><trkpt lat="45.5257835" lon="11.2631249"><ele>413.0</ele><time>2026-04-04T12:53:06.884Z</time></trkpt><trkpt lat="45.5256593" lon="11.263161"><ele>413.0</ele><time>2026-04-04T12:53:07.872Z</time></trkpt><trkpt lat="45.525529" lon="11.2631682"><ele>413.0</ele><time>2026-04-04T12:53:08.868Z</time></trkpt><trkpt lat="45.5254006" lon="11.2631486"><ele>413.0</ele><time>2026-04-04T12:53:09.868Z</time></trkpt><trkpt lat="45.5252666" lon="11.2631026"><ele>413.0</ele><time>2026-04-04T12:53:10.869Z</time></trkpt><trkpt lat="45.5251255" lon="11.2630547"><ele>407.25</ele><time>2026-04-04T12:53:11.871Z</time></trkpt><trkpt lat="45.5249887" lon="11.2630033"><ele>401.5</ele><time>2026-04-04T12:53:12.87Z</time></trkpt><trkpt lat="45.5248575" lon="11.2629569"><ele>395.75</ele><time>2026-04-04T12:53:13.878Z</time></trkpt><trkpt lat="45.5247309" lon="11.2629094"><ele>390.0</ele><time>2026-04-04T12:53:14.871Z</time></trkpt><trkpt lat="45.5246081" lon="11.2628657"><ele>388.5</ele><time>2026-04-04T12:53:15.878Z</time></trkpt><trkpt lat="45.5244876" lon="11.2628293"><ele>387.0</ele><time>2026-04-04T12:53:16.876Z</time></trkpt><trkpt lat="45.5243559" lon="11.2627917"><ele>385.5</ele><time>2026-04-04T12:53:17.871Z</time></trkpt><trkpt lat="45.5242288" lon="11.2627709"><ele>384.0</ele><time>2026-04-04T12:53:18.879Z</time></trkpt><trkpt lat="45.5241041" lon="11.2627775"><ele>384.0</ele><time>2026-04-04T12:53:19.876Z</time></trkpt><trkpt lat="45.5239846" lon="11.2627958"><ele>384.0</ele><time>2026-04-04T12:53:20.868Z</time></trkpt><trkpt lat="45.5238831" lon="11.2628296"><ele>384.0</ele><time>2026-04-04T12:53:21.874Z</time></trkpt><trkpt lat="45.5237997" lon="11.262867"><ele>384.0</ele><time>2026-04-04T12:53:22.869Z</time></trkpt><trkpt lat="45.5237293" lon="11.2629026"><ele>384.0</ele><time>2026-04-04T12:53:23.866Z</time></trkpt><trkpt lat="45.5236217" lon="11.2629095"><ele>384.0</ele><time>2026-04-04T12:53:25.867Z</time></trkpt><trkpt lat="45.5235957" lon="11.2627672"><ele>384.0</ele><time>2026-04-04T12:53:27.871Z</time></trkpt><trkpt lat="45.5236359" lon="11.2626799"><ele>384.0</ele><time>2026-04-04T12:53:28.87Z</time></trkpt><trkpt lat="45.5237065" lon="11.2626176"><ele>384.0</ele><time>2026-04-04T12:53:29.874Z</time></trkpt><trkpt lat="45.523792" lon="11.2625721"><ele>384.0</ele><time>2026-04-04T12:53:30.868Z</time></trkpt><trkpt lat="45.5238945" lon="11.2625434"><ele>384.0</ele><time>2026-04-04T12:53:31.877Z</time></trkpt><trkpt lat="45.5239987" lon="11.2625219"><ele>384.0</ele><time>2026-04-04T12:53:32.877Z</time></trkpt><trkpt lat="45.5241045" lon="11.2625026"><ele>384.0</ele><time>2026-04-04T12:53:33.869Z</time></trkpt><trkpt lat="45.5242221" lon="11.262479"><ele>384.0</ele><time>2026-04-04T12:53:34.884Z</time></trkpt><trkpt lat="45.5243398" lon="11.2624563"><ele>384.0</ele><time>2026-04-04T12:53:35.867Z</time></trkpt><trkpt lat="45.5244736" lon="11.2624355"><ele>385.5</ele><time>2026-04-04T12:53:36.868Z</time></trkpt><trkpt lat="45.5246132" lon="11.262418"><ele>387.0</ele><time>2026-04-04T12:53:37.869Z</time></trkpt><trkpt lat="45.5247361" lon="11.2624007"><ele>388.5</ele><time>2026-04-04T12:53:38.867Z</time></trkpt><trkpt lat="45.5248494" lon="11.2623847"><ele>390.0</ele><time>2026-04-04T12:53:39.869Z</time></trkpt><trkpt lat="45.5249482" lon="11.2623592"><ele>390.0</ele><time>2026-04-04T12:53:40.871Z</time></trkpt><trkpt lat="45.5250262" lon="11.2622925"><ele>390.0</ele><time>2026-04-04T12:53:41.875Z</time></trkpt><trkpt lat="45.525095" lon="11.2621995"><ele>390.0</ele><time>2026-04-04T12:53:42.881Z</time></trkpt><trkpt lat="45.5251557" lon="11.2620852"><ele>390.0</ele><time>2026-04-04T12:53:43.873Z</time></trkpt><trkpt lat="45.5252123" lon="11.2619747"><ele>390.0</ele><time>2026-04-04T12:53:44.876Z</time></trkpt><trkpt lat="45.5252691" lon="11.2618732"><ele>388.5</ele><time>2026-04-04T12:53:45.871Z</time></trkpt><trkpt lat="45.5253414" lon="11.2617827"><ele>387.0</ele><time>2026-04-04T12:53:46.879Z</time></trkpt><trkpt lat="45.5254265" lon="11.2617168"><ele>385.5</ele><time>2026-04-04T12:53:47.876Z</time></trkpt><trkpt lat="45.5255103" lon="11.2616877"><ele>384.0</ele><time>2026-04-04T12:53:48.872Z</time></trkpt><trkpt lat="45.5255877" lon="11.261666"><ele>382.5</ele><time>2026-04-04T12:53:49.883Z</time></trkpt><trkpt lat="45.5256565" lon="11.2616381"><ele>381.0</ele><time>2026-04-04T12:53:50.887Z</time></trkpt><trkpt lat="45.5257375" lon="11.2615226"><ele>379.5</ele><time>2026-04-04T12:53:52.865Z</time></trkpt><trkpt lat="45.5257278" lon="11.2614094"><ele>378.0</ele><time>2026-04-04T12:53:53.864Z</time></trkpt><trkpt lat="45.5256761" lon="11.2613508"><ele>376.5</ele><time>2026-04-04T12:53:54.871Z</time></trkpt><trkpt lat="45.5256062" lon="11.2613551"><ele>375.0</ele><time>2026-04-04T12:53:55.876Z</time></trkpt><trkpt lat="45.5255266" lon="11.2613763"><ele>373.5</ele><time>2026-04-04T12:53:56.877Z</time></trkpt><trkpt lat="45.5254442" lon="11.2614022"><ele>372.0</ele><time>2026-04-04T12:53:57.871Z</time></trkpt><trkpt lat="45.5253708" lon="11.2614152"><ele>371.6</ele><time>2026-04-04T12:53:58.875Z</time></trkpt><trkpt lat="45.5252905" lon="11.2614193"><ele>371.20000000000005</ele><time>2026-04-04T12:54:00.873Z</time></trkpt><trkpt lat="45.5251827" lon="11.2614545"><ele>370.8</ele><time>2026-04-04T12:54:15.87Z</time></trkpt><trkpt lat="45.5251231" lon="11.2614127"><ele>370.4</ele><time>2026-04-04T12:54:16.865Z</time></trkpt><trkpt lat="45.5250886" lon="11.2613022"><ele>370.0</ele><time>2026-04-04T12:54:17.867Z</time></trkpt><trkpt lat="45.5251056" lon="11.2611444"><ele>367.75</ele><time>2026-04-04T12:54:18.867Z</time></trkpt><trkpt lat="45.525125" lon="11.26096"><ele>365.5</ele><time>2026-04-04T12:54:19.867Z</time></trkpt><trkpt lat="45.525145" lon="11.2607699"><ele>363.25</ele><time>2026-04-04T12:54:20.873Z</time></trkpt><trkpt lat="45.5252101" lon="11.2605701"><ele>361.0</ele><time>2026-04-04T12:54:21.869Z</time></trkpt><trkpt lat="45.525314" lon="11.2603984"><ele>362.66666666666663</ele><time>2026-04-04T12:54:22.873Z</time></trkpt><trkpt lat="45.5254817" lon="11.2601792"><ele>364.3333333333333</ele><time>2026-04-04T12:54:23.866Z</time></trkpt><trkpt lat="45.5255894" lon="11.2600215"><ele>366.0</ele><time>2026-04-04T12:54:24.868Z</time></trkpt><trkpt lat="45.5256876" lon="11.2599046"><ele>366.0</ele><time>2026-04-04T12:54:25.867Z</time></trkpt><trkpt lat="45.5257946" lon="11.259848"><ele>366.0</ele><time>2026-04-04T12:54:26.869Z</time></trkpt><trkpt lat="45.5259341" lon="11.2598244"><ele>366.0</ele><time>2026-04-04T12:54:27.88Z</time></trkpt><trkpt lat="45.52607" lon="11.2598048"><ele>366.0</ele><time>2026-04-04T12:54:28.876Z</time></trkpt><trkpt lat="45.5261893" lon="11.2597993"><ele>366.8</ele><time>2026-04-04T12:54:29.875Z</time></trkpt><trkpt lat="45.5262976" lon="11.2597677"><ele>367.6</ele><time>2026-04-04T12:54:30.874Z</time></trkpt><trkpt lat="45.5263796" lon="11.2597116"><ele>368.4</ele><time>2026-04-04T12:54:31.869Z</time></trkpt><trkpt lat="45.5264415" lon="11.2596494"><ele>369.2</ele><time>2026-04-04T12:54:32.872Z</time></trkpt><trkpt lat="45.5264756" lon="11.259519"><ele>370.0</ele><time>2026-04-04T12:54:33.867Z</time></trkpt><trkpt lat="45.5263843" lon="11.2593858"><ele>370.0</ele><time>2026-04-04T12:54:34.866Z</time></trkpt><trkpt lat="45.5263032" lon="11.259267"><ele>370.0</ele><time>2026-04-04T12:54:35.873Z</time></trkpt><trkpt lat="45.5262312" lon="11.2591035"><ele>370.0</ele><time>2026-04-04T12:54:36.887Z</time></trkpt><trkpt lat="45.5261825" lon="11.2588886"><ele>370.0</ele><time>2026-04-04T12:54:37.873Z</time></trkpt><trkpt lat="45.526154" lon="11.258636"><ele>364.0</ele><time>2026-04-04T12:54:38.876Z</time></trkpt><trkpt lat="45.526127" lon="11.2583591"><ele>358.0</ele><time>2026-04-04T12:54:39.878Z</time></trkpt><trkpt lat="45.5260978" lon="11.2580774"><ele>352.0</ele><time>2026-04-04T12:54:40.87Z</time></trkpt><trkpt lat="45.5260741" lon="11.2578156"><ele>352.0</ele><time>2026-04-04T12:54:41.876Z</time></trkpt><trkpt lat="45.5260473" lon="11.2575581"><ele>352.0</ele><time>2026-04-04T12:54:42.869Z</time></trkpt><trkpt lat="45.526023" lon="11.2573027"><ele>352.0</ele><time>2026-04-04T12:54:43.877Z</time></trkpt><trkpt lat="45.5260004" lon="11.2570479"><ele>354.3333333333333</ele><time>2026-04-04T12:54:44.87Z</time></trkpt><trkpt lat="45.5259838" lon="11.2567858"><ele>356.6666666666667</ele><time>2026-04-04T12:54:45.871Z</time></trkpt><trkpt lat="45.5259765" lon="11.2565242"><ele>359.0</ele><time>2026-04-04T12:54:46.872Z</time></trkpt><trkpt lat="45.526" lon="11.2562564"><ele>360.0</ele><time>2026-04-04T12:54:47.879Z</time></trkpt><trkpt lat="45.5260274" lon="11.2559787"><ele>361.0</ele><time>2026-04-04T12:54:48.869Z</time></trkpt><trkpt lat="45.5260574" lon="11.2557163"><ele>362.0</ele><time>2026-04-04T12:54:49.871Z</time></trkpt><trkpt lat="45.5260939" lon="11.2554852"><ele>363.25</ele><time>2026-04-04T12:54:50.881Z</time></trkpt><trkpt lat="45.5261424" lon="11.2552765"><ele>364.5</ele><time>2026-04-04T12:54:51.869Z</time></trkpt><trkpt lat="45.5262033" lon="11.2550957"><ele>365.75</ele><time>2026-04-04T12:54:52.879Z</time></trkpt><trkpt lat="45.5262616" lon="11.2549255"><ele>367.0</ele><time>2026-04-04T12:54:53.87Z</time></trkpt><trkpt lat="45.5263233" lon="11.2547661"><ele>363.40000000000003</ele><time>2026-04-04T12:54:54.868Z</time></trkpt><trkpt lat="45.5263841" lon="11.2546163"><ele>359.8</ele><time>2026-04-04T12:54:55.875Z</time></trkpt><trkpt lat="45.5264387" lon="11.254482"><ele>356.2</ele><time>2026-04-04T12:54:56.863Z</time></trkpt><trkpt lat="45.526504" lon="11.2543511"><ele>352.6</ele><time>2026-04-04T12:54:57.875Z</time></trkpt><trkpt lat="45.5265767" lon="11.2542431"><ele>349.0</ele><time>2026-04-04T12:54:58.874Z</time></trkpt><trkpt lat="45.5266615" lon="11.2541614"><ele>349.0</ele><time>2026-04-04T12:54:59.874Z</time></trkpt><trkpt lat="45.5267566" lon="11.2540989"><ele>349.0</ele><time>2026-04-04T12:55:00.873Z</time></trkpt><trkpt lat="45.5268511" lon="11.2540847"><ele>349.0</ele><time>2026-04-04T12:55:01.87Z</time></trkpt><trkpt lat="45.5269904" lon="11.2540847"><ele>349.0</ele><time>2026-04-04T12:55:02.88Z</time></trkpt><trkpt lat="45.5270924" lon="11.2540835"><ele>349.0</ele><time>2026-04-04T12:55:03.865Z</time></trkpt><trkpt lat="45.5271934" lon="11.2540855"><ele>349.5</ele><time>2026-04-04T12:55:04.865Z</time></trkpt><trkpt lat="45.5272892" lon="11.2540892"><ele>350.0</ele><time>2026-04-04T12:55:05.87Z</time></trkpt><trkpt lat="45.5273779" lon="11.2540957"><ele>350.5</ele><time>2026-04-04T12:55:06.872Z</time></trkpt><trkpt lat="45.5274657" lon="11.2541087"><ele>351.0</ele><time>2026-04-04T12:55:07.875Z</time></trkpt><trkpt lat="45.5275482" lon="11.2541213"><ele>351.5</ele><time>2026-04-04T12:55:08.869Z</time></trkpt><trkpt lat="45.5276324" lon="11.2541283"><ele>352.0</ele><time>2026-04-04T12:55:09.876Z</time></trkpt><trkpt lat="45.5276887" lon="11.254087"><ele>352.0</ele><time>2026-04-04T12:55:10.865Z</time></trkpt><trkpt lat="45.527732" lon="11.2540023"><ele>352.0</ele><time>2026-04-04T12:55:11.869Z</time></trkpt><trkpt lat="45.5277306" lon="11.2538753"><ele>352.0</ele><time>2026-04-04T12:55:12.864Z</time></trkpt><trkpt lat="45.5276923" lon="11.2537637"><ele>352.0</ele><time>2026-04-04T12:55:13.882Z</time></trkpt><trkpt lat="45.5276339" lon="11.2536668"><ele>352.0</ele><time>2026-04-04T12:55:14.88Z</time></trkpt><trkpt lat="45.5275643" lon="11.2535666"><ele>352.0</ele><time>2026-04-04T12:55:15.873Z</time></trkpt><trkpt lat="45.5274925" lon="11.2534635"><ele>351.5</ele><time>2026-04-04T12:55:16.872Z</time></trkpt><trkpt lat="45.5274169" lon="11.2533486"><ele>351.0</ele><time>2026-04-04T12:55:17.875Z</time></trkpt><trkpt lat="45.5273392" lon="11.2532279"><ele>350.5</ele><time>2026-04-04T12:55:18.878Z</time></trkpt><trkpt lat="45.5272558" lon="11.2530959"><ele>350.0</ele><time>2026-04-04T12:55:19.872Z</time></trkpt><trkpt lat="45.527176" lon="11.2529641"><ele>348.5</ele><time>2026-04-04T12:55:20.873Z</time></trkpt><trkpt lat="45.5270928" lon="11.2528267"><ele>347.0</ele><time>2026-04-04T12:55:21.877Z</time></trkpt><trkpt lat="45.5270156" lon="11.252697"><ele>345.5</ele><time>2026-04-04T12:55:22.872Z</time></trkpt><trkpt lat="45.5269386" lon="11.2525744"><ele>344.0</ele><time>2026-04-04T12:55:23.876Z</time></trkpt><trkpt lat="45.5268781" lon="11.2524488"><ele>344.0</ele><time>2026-04-04T12:55:24.868Z</time></trkpt><trkpt lat="45.5268387" lon="11.2523084"><ele>344.0</ele><time>2026-04-04T12:55:25.872Z</time></trkpt><trkpt lat="45.5268436" lon="11.2521607"><ele>344.0</ele><time>2026-04-04T12:55:26.881Z</time></trkpt><trkpt lat="45.5268883" lon="11.2520178"><ele>344.0</ele><time>2026-04-04T12:55:27.881Z</time></trkpt><trkpt lat="45.526942" lon="11.2518756"><ele>344.0</ele><time>2026-04-04T12:55:28.87Z</time></trkpt><trkpt lat="45.5270042" lon="11.2517391"><ele>347.5</ele><time>2026-04-04T12:55:29.878Z</time></trkpt><trkpt lat="45.5270735" lon="11.2516123"><ele>351.0</ele><time>2026-04-04T12:55:30.878Z</time></trkpt><trkpt lat="45.5271446" lon="11.2514862"><ele>354.5</ele><time>2026-04-04T12:55:31.871Z</time></trkpt><trkpt lat="45.5272178" lon="11.2513623"><ele>358.0</ele><time>2026-04-04T12:55:32.877Z</time></trkpt><trkpt lat="45.5272917" lon="11.2512408"><ele>358.0</ele><time>2026-04-04T12:55:33.879Z</time></trkpt><trkpt lat="45.527367" lon="11.2511256"><ele>358.0</ele><time>2026-04-04T12:55:34.88Z</time></trkpt><trkpt lat="45.5274373" lon="11.250996"><ele>358.0</ele><time>2026-04-04T12:55:35.869Z</time></trkpt><trkpt lat="45.5274807" lon="11.2508641"><ele>358.0</ele><time>2026-04-04T12:55:36.877Z</time></trkpt><trkpt lat="45.527499" lon="11.2507405"><ele>358.0</ele><time>2026-04-04T12:55:37.878Z</time></trkpt><trkpt lat="45.5275035" lon="11.2506199"><ele>356.8333333333333</ele><time>2026-04-04T12:55:38.868Z</time></trkpt><trkpt lat="45.5275035" lon="11.2504977"><ele>355.66666666666663</ele><time>2026-04-04T12:55:39.873Z</time></trkpt><trkpt lat="45.5275021" lon="11.2503843"><ele>354.5</ele><time>2026-04-04T12:55:40.871Z</time></trkpt><trkpt lat="45.5274946" lon="11.2502556"><ele>353.3333333333333</ele><time>2026-04-04T12:55:41.873Z</time></trkpt><trkpt lat="45.5274508" lon="11.2501304"><ele>352.1666666666667</ele><time>2026-04-04T12:55:42.879Z</time></trkpt><trkpt lat="45.5273935" lon="11.2500227"><ele>351.0</ele><time>2026-04-04T12:55:43.878Z</time></trkpt><trkpt lat="45.5273245" lon="11.2499182"><ele>351.0</ele><time>2026-04-04T12:55:44.87Z</time></trkpt><trkpt lat="45.5272589" lon="11.2498058"><ele>351.0</ele><time>2026-04-04T12:55:45.877Z</time></trkpt><trkpt lat="45.527199" lon="11.2496805"><ele>351.0</ele><time>2026-04-04T12:55:46.873Z</time></trkpt><trkpt lat="45.5271546" lon="11.2495389"><ele>351.0</ele><time>2026-04-04T12:55:47.866Z</time></trkpt><trkpt lat="45.5271219" lon="11.2493914"><ele>351.0</ele><time>2026-04-04T12:55:48.863Z</time></trkpt><trkpt lat="45.5270807" lon="11.249232"><ele>351.0</ele><time>2026-04-04T12:55:49.865Z</time></trkpt><trkpt lat="45.5270585" lon="11.2491029"><ele>351.0</ele><time>2026-04-04T12:55:50.886Z</time></trkpt><trkpt lat="45.5270236" lon="11.2489706"><ele>351.0</ele><time>2026-04-04T12:55:51.874Z</time></trkpt><trkpt lat="45.5269884" lon="11.2488392"><ele>351.0</ele><time>2026-04-04T12:55:52.875Z</time></trkpt><trkpt lat="45.5269512" lon="11.2487175"><ele>351.0</ele><time>2026-04-04T12:55:53.87Z</time></trkpt><trkpt lat="45.526925" lon="11.2486053"><ele>350.0</ele><time>2026-04-04T12:55:54.877Z</time></trkpt><trkpt lat="45.5268922" lon="11.2484928"><ele>349.0</ele><time>2026-04-04T12:55:55.871Z</time></trkpt><trkpt lat="45.5268589" lon="11.2483806"><ele>348.0</ele><time>2026-04-04T12:55:56.874Z</time></trkpt><trkpt lat="45.5268214" lon="11.2482723"><ele>347.0</ele><time>2026-04-04T12:55:57.881Z</time></trkpt><trkpt lat="45.526772" lon="11.2481539"><ele>346.0</ele><time>2026-04-04T12:55:58.87Z</time></trkpt><trkpt lat="45.5267086" lon="11.2480549"><ele>345.0</ele><time>2026-04-04T12:55:59.871Z</time></trkpt><trkpt lat="45.5266296" lon="11.2479637"><ele>342.8</ele><time>2026-04-04T12:56:00.876Z</time></trkpt><trkpt lat="45.5265384" lon="11.247851"><ele>340.6</ele><time>2026-04-04T12:56:01.878Z</time></trkpt><trkpt lat="45.5264672" lon="11.247716"><ele>338.4</ele><time>2026-04-04T12:56:02.882Z</time></trkpt><trkpt lat="45.5264088" lon="11.2475818"><ele>336.2</ele><time>2026-04-04T12:56:03.878Z</time></trkpt><trkpt lat="45.5263641" lon="11.2474709"><ele>334.0</ele><time>2026-04-04T12:56:04.873Z</time></trkpt><trkpt lat="45.5263031" lon="11.2473679"><ele>334.8333333333333</ele><time>2026-04-04T12:56:05.871Z</time></trkpt><trkpt lat="45.5262262" lon="11.247295"><ele>335.66666666666663</ele><time>2026-04-04T12:56:06.872Z</time></trkpt><trkpt lat="45.5261476" lon="11.2472322"><ele>336.5</ele><time>2026-04-04T12:56:07.87Z</time></trkpt><trkpt lat="45.5260719" lon="11.2471678"><ele>337.3333333333333</ele><time>2026-04-04T12:56:08.876Z</time></trkpt><trkpt lat="45.5260078" lon="11.247089"><ele>338.1666666666667</ele><time>2026-04-04T12:56:09.875Z</time></trkpt><trkpt lat="45.5259462" lon="11.2470083"><ele>339.0</ele><time>2026-04-04T12:56:10.87Z</time></trkpt><trkpt lat="45.5258632" lon="11.2469555"><ele>337.2857142857143</ele><time>2026-04-04T12:56:11.87Z</time></trkpt><trkpt lat="45.5257786" lon="11.2469514"><ele>335.5714285714286</ele><time>2026-04-04T12:56:12.873Z</time></trkpt><trkpt lat="45.5257076" lon="11.2469484"><ele>333.8571428571429</ele><time>2026-04-04T12:56:13.87Z</time></trkpt><trkpt lat="45.5256419" lon="11.2469288"><ele>332.1428571428571</ele><time>2026-04-04T12:56:14.874Z</time></trkpt><trkpt lat="45.5255828" lon="11.246882"><ele>330.42857142857144</ele><time>2026-04-04T12:56:15.869Z</time></trkpt><trkpt lat="45.52554" lon="11.2467899"><ele>328.7142857142857</ele><time>2026-04-04T12:56:16.878Z</time></trkpt><trkpt lat="45.5255072" lon="11.2466834"><ele>327.0</ele><time>2026-04-04T12:56:17.874Z</time></trkpt><trkpt lat="45.5254797" lon="11.2465668"><ele>327.20000000000005</ele><time>2026-04-04T12:56:18.872Z</time></trkpt><trkpt lat="45.5254499" lon="11.2464468"><ele>327.4</ele><time>2026-04-04T12:56:19.88Z</time></trkpt><trkpt lat="45.5254087" lon="11.2463296"><ele>327.6</ele><time>2026-04-04T12:56:20.874Z</time></trkpt><trkpt lat="45.5253606" lon="11.2462154"><ele>327.79999999999995</ele><time>2026-04-04T12:56:21.875Z</time></trkpt><trkpt lat="45.525293" lon="11.246113"><ele>328.0</ele><time>2026-04-04T12:56:22.873Z</time></trkpt><trkpt lat="45.5252211" lon="11.2460412"><ele>328.0</ele><time>2026-04-04T12:56:23.869Z</time></trkpt><trkpt lat="45.5251479" lon="11.2459962"><ele>328.0</ele><time>2026-04-04T12:56:24.871Z</time></trkpt><trkpt lat="45.5250475" lon="11.2460081"><ele>328.0</ele><time>2026-04-04T12:56:25.874Z</time></trkpt><trkpt lat="45.5249441" lon="11.2460408"><ele>328.0</ele><time>2026-04-04T12:56:26.868Z</time></trkpt><trkpt lat="45.5248404" lon="11.246069"><ele>328.0</ele><time>2026-04-04T12:56:27.882Z</time></trkpt><trkpt lat="45.5247415" lon="11.2460924"><ele>328.0</ele><time>2026-04-04T12:56:28.873Z</time></trkpt><trkpt lat="45.5246471" lon="11.2461209"><ele>328.0</ele><time>2026-04-04T12:56:29.884Z</time></trkpt><trkpt lat="45.5245542" lon="11.2461503"><ele>328.0</ele><time>2026-04-04T12:56:30.873Z</time></trkpt><trkpt lat="45.5244677" lon="11.246176"><ele>328.0</ele><time>2026-04-04T12:56:31.872Z</time></trkpt><trkpt lat="45.5243841" lon="11.2461933"><ele>328.0</ele><time>2026-04-04T12:56:32.885Z</time></trkpt><trkpt lat="45.5243144" lon="11.2461837"><ele>328.0</ele><time>2026-04-04T12:56:33.892Z</time></trkpt><trkpt lat="45.5242486" lon="11.2461613"><ele>326.71428571428567</ele><time>2026-04-04T12:56:34.876Z</time></trkpt><trkpt lat="45.5242035" lon="11.2460813"><ele>325.42857142857144</ele><time>2026-04-04T12:56:35.87Z</time></trkpt><trkpt lat="45.5241637" lon="11.2460054"><ele>324.1428571428571</ele><time>2026-04-04T12:56:36.879Z</time></trkpt><trkpt lat="45.5241238" lon="11.2459284"><ele>322.85714285714283</ele><time>2026-04-04T12:56:37.877Z</time></trkpt><trkpt lat="45.5240606" lon="11.2458498"><ele>321.57142857142856</ele><time>2026-04-04T12:56:38.877Z</time></trkpt><trkpt lat="45.5239976" lon="11.2457912"><ele>320.2857142857143</ele><time>2026-04-04T12:56:39.872Z</time></trkpt><trkpt lat="45.5239321" lon="11.2457334"><ele>319.0</ele><time>2026-04-04T12:56:40.877Z</time></trkpt><trkpt lat="45.5238777" lon="11.2456763"><ele>318.0</ele><time>2026-04-04T12:56:41.88Z</time></trkpt><trkpt lat="45.5238461" lon="11.2455964"><ele>317.0</ele><time>2026-04-04T12:56:42.888Z</time></trkpt><trkpt lat="45.5238604" lon="11.245487"><ele>316.0</ele><time>2026-04-04T12:56:43.877Z</time></trkpt><trkpt lat="45.5238906" lon="11.2453636"><ele>315.0</ele><time>2026-04-04T12:56:44.88Z</time></trkpt><trkpt lat="45.5239286" lon="11.2452412"><ele>314.0</ele><time>2026-04-04T12:56:45.874Z</time></trkpt><trkpt lat="45.5239669" lon="11.2451148"><ele>313.0</ele><time>2026-04-04T12:56:46.876Z</time></trkpt><trkpt lat="45.5240069" lon="11.2449871"><ele>313.0</ele><time>2026-04-04T12:56:47.882Z</time></trkpt><trkpt lat="45.5240407" lon="11.2448729"><ele>313.0</ele><time>2026-04-04T12:56:48.871Z</time></trkpt><trkpt lat="45.5240604" lon="11.2447607"><ele>313.0</ele><time>2026-04-04T12:56:49.883Z</time></trkpt><trkpt lat="45.5240512" lon="11.2446503"><ele>313.0</ele><time>2026-04-04T12:56:50.872Z</time></trkpt><trkpt lat="45.524029" lon="11.2445539"><ele>313.0</ele><time>2026-04-04T12:56:51.876Z</time></trkpt><trkpt lat="45.5240017" lon="11.2444564"><ele>313.0</ele><time>2026-04-04T12:56:52.873Z</time></trkpt><trkpt lat="45.5239724" lon="11.2443633"><ele>311.0</ele><time>2026-04-04T12:56:53.876Z</time></trkpt><trkpt lat="45.5239457" lon="11.244275"><ele>309.0</ele><time>2026-04-04T12:56:54.877Z</time></trkpt><trkpt lat="45.5239264" lon="11.2441161"><ele>307.0</ele><time>2026-04-04T12:56:56.873Z</time></trkpt><trkpt lat="45.5239911" lon="11.2440006"><ele>305.0</ele><time>2026-04-04T12:56:58.879Z</time></trkpt><trkpt lat="45.524093" lon="11.2439082"><ele>303.0</ele><time>2026-04-04T12:57:00.868Z</time></trkpt><trkpt lat="45.5241492" lon="11.243859"><ele>299.6</ele><time>2026-04-04T12:57:01.864Z</time></trkpt><trkpt lat="45.524209" lon="11.2437922"><ele>296.20000000000005</ele><time>2026-04-04T12:57:02.878Z</time></trkpt><trkpt lat="45.5242753" lon="11.2436894"><ele>292.8</ele><time>2026-04-04T12:57:03.873Z</time></trkpt><trkpt lat="45.5243272" lon="11.2435309"><ele>289.40000000000003</ele><time>2026-04-04T12:57:04.875Z</time></trkpt><trkpt lat="45.5243825" lon="11.2433772"><ele>286.0</ele><time>2026-04-04T12:57:05.87Z</time></trkpt><trkpt lat="45.524425" lon="11.243235"><ele>284.66666666666663</ele><time>2026-04-04T12:57:06.876Z</time></trkpt><trkpt lat="45.524463" lon="11.2431037"><ele>283.3333333333333</ele><time>2026-04-04T12:57:07.877Z</time></trkpt><trkpt lat="45.5244941" lon="11.2429894"><ele>282.0</ele><time>2026-04-04T12:57:08.872Z</time></trkpt><trkpt lat="45.5245117" lon="11.2428751"><ele>280.6666666666667</ele><time>2026-04-04T12:57:09.879Z</time></trkpt><trkpt lat="45.5244864" lon="11.2427678"><ele>279.33333333333337</ele><time>2026-04-04T12:57:10.874Z</time></trkpt><trkpt lat="45.5244511" lon="11.2426839"><ele>278.0</ele><time>2026-04-04T12:57:11.873Z</time></trkpt><trkpt lat="45.5243966" lon="11.2426195"><ele>278.0</ele><time>2026-04-04T12:57:12.88Z</time></trkpt><trkpt lat="45.5242932" lon="11.2425168"><ele>278.0</ele><time>2026-04-04T12:57:14.871Z</time></trkpt><trkpt lat="45.5242332" lon="11.2423784"><ele>278.0</ele><time>2026-04-04T12:57:16.875Z</time></trkpt><trkpt lat="45.5242464" lon="11.2422887"><ele>278.0</ele><time>2026-04-04T12:57:17.885Z</time></trkpt><trkpt lat="45.5242737" lon="11.2421877"><ele>278.0</ele><time>2026-04-04T12:57:18.877Z</time></trkpt><trkpt lat="45.5243076" lon="11.2420969"><ele>277.0</ele><time>2026-04-04T12:57:19.881Z</time></trkpt><trkpt lat="45.5243422" lon="11.2420118"><ele>276.0</ele><time>2026-04-04T12:57:20.888Z</time></trkpt><trkpt lat="45.524375" lon="11.241931"><ele>275.0</ele><time>2026-04-04T12:57:21.87Z</time></trkpt><trkpt lat="45.5244058" lon="11.2418428"><ele>274.0</ele><time>2026-04-04T12:57:22.875Z</time></trkpt><trkpt lat="45.5244358" lon="11.2417057"><ele>273.0</ele><time>2026-04-04T12:57:24.878Z</time></trkpt><trkpt lat="45.5244513" lon="11.2416177"><ele>272.0</ele><time>2026-04-04T12:57:26.877Z</time></trkpt><trkpt lat="45.5244843" lon="11.2415406"><ele>271.0</ele><time>2026-04-04T12:57:28.877Z</time></trkpt><trkpt lat="45.5245337" lon="11.2414709"><ele>269.5</ele><time>2026-04-04T12:57:30.88Z</time></trkpt><trkpt lat="45.5245396" lon="11.241343"><ele>268.0</ele><time>2026-04-04T12:57:32.878Z</time></trkpt><trkpt lat="45.5244945" lon="11.2412573"><ele>266.5</ele><time>2026-04-04T12:57:34.878Z</time></trkpt><trkpt lat="45.5244739" lon="11.241151"><ele>265.0</ele><time>2026-04-04T12:57:37.885Z</time></trkpt><trkpt lat="45.5245579" lon="11.2411324"><ele>263.5</ele><time>2026-04-04T12:57:41.871Z</time></trkpt><trkpt lat="45.5246499" lon="11.2411609"><ele>262.0</ele><time>2026-04-04T12:57:43.874Z</time></trkpt><trkpt lat="45.524767" lon="11.2411939"><ele>263.0</ele><time>2026-04-04T12:57:45.878Z</time></trkpt><trkpt lat="45.524857" lon="11.2412266"><ele>264.0</ele><time>2026-04-04T12:57:46.878Z</time></trkpt><trkpt lat="45.5249464" lon="11.2412751"><ele>265.0</ele><time>2026-04-04T12:57:47.875Z</time></trkpt><trkpt lat="45.5250308" lon="11.2413324"><ele>266.0</ele><time>2026-04-04T12:57:48.877Z</time></trkpt><trkpt lat="45.5250991" lon="11.2414057"><ele>267.0</ele><time>2026-04-04T12:57:49.871Z</time></trkpt><trkpt lat="45.5251693" lon="11.2414804"><ele>267.0</ele><time>2026-04-04T12:57:50.891Z</time></trkpt><trkpt lat="45.525233" lon="11.2415629"><ele>267.0</ele><time>2026-04-04T12:57:51.872Z</time></trkpt><trkpt lat="45.5252915" lon="11.2416538"><ele>267.0</ele><time>2026-04-04T12:57:52.885Z</time></trkpt><trkpt lat="45.5253515" lon="11.2417437"><ele>267.0</ele><time>2026-04-04T12:57:53.873Z</time></trkpt><trkpt lat="45.525407" lon="11.2418337"><ele>267.0</ele><time>2026-04-04T12:57:54.879Z</time></trkpt><trkpt lat="45.5254836" lon="11.2419585"><ele>266.2</ele><time>2026-04-04T12:57:56.885Z</time></trkpt><trkpt lat="45.5255928" lon="11.2420002"><ele>265.4</ele><time>2026-04-04T12:57:58.879Z</time></trkpt><trkpt lat="45.5256761" lon="11.2419299"><ele>264.6</ele><time>2026-04-04T12:58:00.89Z</time></trkpt><trkpt lat="45.5257073" lon="11.2417551"><ele>263.8</ele><time>2026-04-04T12:58:02.885Z</time></trkpt><trkpt lat="45.5257145" lon="11.2416496"><ele>263.0</ele><time>2026-04-04T12:58:03.872Z</time></trkpt><trkpt lat="45.5257204" lon="11.2415499"><ele>262.0</ele><time>2026-04-04T12:58:04.878Z</time></trkpt><trkpt lat="45.5257324" lon="11.2414566"><ele>261.0</ele><time>2026-04-04T12:58:05.883Z</time></trkpt><trkpt lat="45.5257523" lon="11.2413607"><ele>260.0</ele><time>2026-04-04T12:58:06.87Z</time></trkpt><trkpt lat="45.5258115" lon="11.2412337"><ele>259.0</ele><time>2026-04-04T12:58:08.882Z</time></trkpt><trkpt lat="45.5258556" lon="11.2411575"><ele>258.0</ele><time>2026-04-04T12:58:10.879Z</time></trkpt><trkpt lat="45.5258309" lon="11.2410411"><ele>257.0</ele><time>2026-04-04T12:58:12.88Z</time></trkpt><trkpt lat="45.5257848" lon="11.2409605"><ele>257.0</ele><time>2026-04-04T12:58:13.874Z</time></trkpt><trkpt lat="45.5257201" lon="11.2408582"><ele>257.0</ele><time>2026-04-04T12:58:14.878Z</time></trkpt><trkpt lat="45.5256535" lon="11.2407494"><ele>257.0</ele><time>2026-04-04T12:58:15.868Z</time></trkpt><trkpt lat="45.5255857" lon="11.2406514"><ele>257.0</ele><time>2026-04-04T12:58:16.897Z</time></trkpt><trkpt lat="45.5255175" lon="11.2405569"><ele>257.0</ele><time>2026-04-04T12:58:17.877Z</time></trkpt><trkpt lat="45.5254473" lon="11.2404635"><ele>254.16666666666669</ele><time>2026-04-04T12:58:18.874Z</time></trkpt><trkpt lat="45.5253771" lon="11.2403883"><ele>251.33333333333334</ele><time>2026-04-04T12:58:19.869Z</time></trkpt><trkpt lat="45.5253124" lon="11.2403154"><ele>248.5</ele><time>2026-04-04T12:58:20.871Z</time></trkpt><trkpt lat="45.5252492" lon="11.2402434"><ele>245.66666666666669</ele><time>2026-04-04T12:58:21.867Z</time></trkpt><trkpt lat="45.5251983" lon="11.2401759"><ele>242.83333333333334</ele><time>2026-04-04T12:58:22.874Z</time></trkpt><trkpt lat="45.5251712" lon="11.2400884"><ele>240.0</ele><time>2026-04-04T12:58:23.878Z</time></trkpt><trkpt lat="45.5251792" lon="11.2399889"><ele>240.0</ele><time>2026-04-04T12:58:24.867Z</time></trkpt><trkpt lat="45.5252202" lon="11.2398856"><ele>240.0</ele><time>2026-04-04T12:58:25.887Z</time></trkpt><trkpt lat="45.5252722" lon="11.2397711"><ele>240.0</ele><time>2026-04-04T12:58:26.87Z</time></trkpt><trkpt lat="45.525324" lon="11.2396494"><ele>240.0</ele><time>2026-04-04T12:58:27.882Z</time></trkpt><trkpt lat="45.5253734" lon="11.239534"><ele>240.0</ele><time>2026-04-04T12:58:28.867Z</time></trkpt><trkpt lat="45.52542" lon="11.2394184"><ele>241.4</ele><time>2026-04-04T12:58:29.873Z</time></trkpt><trkpt lat="45.5254684" lon="11.2393017"><ele>242.8</ele><time>2026-04-04T12:58:30.89Z</time></trkpt><trkpt lat="45.5255108" lon="11.2391956"><ele>244.2</ele><time>2026-04-04T12:58:31.878Z</time></trkpt><trkpt lat="45.5255441" lon="11.2391045"><ele>245.6</ele><time>2026-04-04T12:58:32.871Z</time></trkpt><trkpt lat="45.5256016" lon="11.238963"><ele>247.0</ele><time>2026-04-04T12:58:34.871Z</time></trkpt><trkpt lat="45.5256285" lon="11.2388302"><ele>247.0</ele><time>2026-04-04T12:58:36.878Z</time></trkpt><trkpt lat="45.5255533" lon="11.238678"><ele>247.0</ele><time>2026-04-04T12:58:38.888Z</time></trkpt><trkpt lat="45.5254978" lon="11.2385889"><ele>247.0</ele><time>2026-04-04T12:58:39.873Z</time></trkpt><trkpt lat="45.525442" lon="11.2384887"><ele>247.0</ele><time>2026-04-04T12:58:40.884Z</time></trkpt><trkpt lat="45.5253876" lon="11.2383851"><ele>247.0</ele><time>2026-04-04T12:58:41.867Z</time></trkpt><trkpt lat="45.5253426" lon="11.2382823"><ele>243.49999999999997</ele><time>2026-04-04T12:58:42.886Z</time></trkpt><trkpt lat="45.52529" lon="11.2382014"><ele>240.0</ele><time>2026-04-04T12:58:43.871Z</time></trkpt><trkpt lat="45.5252365" lon="11.2381518"><ele>236.5</ele><time>2026-04-04T12:58:44.891Z</time></trkpt><trkpt lat="45.5251114" lon="11.2381631"><ele>233.0</ele><time>2026-04-04T12:58:46.878Z</time></trkpt><trkpt lat="45.5250445" lon="11.2382297"><ele>229.49999999999997</ele><time>2026-04-04T12:58:47.875Z</time></trkpt><trkpt lat="45.5249961" lon="11.2383115"><ele>226.0</ele><time>2026-04-04T12:58:48.875Z</time></trkpt><trkpt lat="45.5249528" lon="11.2383906"><ele>225.99999999999997</ele><time>2026-04-04T12:58:49.874Z</time></trkpt><trkpt lat="45.5249104" lon="11.2384675"><ele>226.0</ele><time>2026-04-04T12:58:50.882Z</time></trkpt><trkpt lat="45.5248607" lon="11.2385279"><ele>226.0</ele><time>2026-04-04T12:58:51.874Z</time></trkpt><trkpt lat="45.5247609" lon="11.2385281"><ele>226.0</ele><time>2026-04-04T12:58:53.869Z</time></trkpt><trkpt lat="45.5247391" lon="11.2383575"><ele>225.99999999999997</ele><time>2026-04-04T12:58:55.874Z</time></trkpt><trkpt lat="45.5247615" lon="11.2382565"><ele>226.0</ele><time>2026-04-04T12:58:56.873Z</time></trkpt><trkpt lat="45.5247832" lon="11.2381499"><ele>224.99999999999997</ele><time>2026-04-04T12:58:57.882Z</time></trkpt><trkpt lat="45.5248012" lon="11.2380476"><ele>224.0</ele><time>2026-04-04T12:58:58.872Z</time></trkpt><trkpt lat="45.5248194" lon="11.2379365"><ele>223.0</ele><time>2026-04-04T12:58:59.876Z</time></trkpt><trkpt lat="45.5248406" lon="11.2378074"><ele>222.0</ele><time>2026-04-04T12:59:00.876Z</time></trkpt><trkpt lat="45.5248609" lon="11.2376853"><ele>220.99999999999997</ele><time>2026-04-04T12:59:01.878Z</time></trkpt><trkpt lat="45.5248709" lon="11.2375492"><ele>220.0</ele><time>2026-04-04T12:59:02.879Z</time></trkpt><trkpt lat="45.524868" lon="11.2374116"><ele>218.66666666666666</ele><time>2026-04-04T12:59:03.872Z</time></trkpt><trkpt lat="45.5248346" lon="11.2372965"><ele>217.33333333333331</ele><time>2026-04-04T12:59:04.878Z</time></trkpt><trkpt lat="45.5247974" lon="11.2372049"><ele>216.0</ele><time>2026-04-04T12:59:05.877Z</time></trkpt><trkpt lat="45.5247577" lon="11.2371095"><ele>214.66666666666669</ele><time>2026-04-04T12:59:06.879Z</time></trkpt><trkpt lat="45.5247136" lon="11.2370171"><ele>213.33333333333334</ele><time>2026-04-04T12:59:07.886Z</time></trkpt><trkpt lat="45.5246639" lon="11.2369242"><ele>212.0</ele><time>2026-04-04T12:59:08.875Z</time></trkpt><trkpt lat="45.5245952" lon="11.2368311"><ele>210.50000000000003</ele><time>2026-04-04T12:59:09.876Z</time></trkpt><trkpt lat="45.5245126" lon="11.236763"><ele>209.0</ele><time>2026-04-04T12:59:10.875Z</time></trkpt><trkpt lat="45.524427" lon="11.236732"><ele>207.5</ele><time>2026-04-04T12:59:11.875Z</time></trkpt><trkpt lat="45.5243522" lon="11.2366947"><ele>206.0</ele><time>2026-04-04T12:59:12.877Z</time></trkpt><trkpt lat="45.5242782" lon="11.2366266"><ele>204.50000000000003</ele><time>2026-04-04T12:59:13.879Z</time></trkpt><trkpt lat="45.5242104" lon="11.2365662"><ele>203.0</ele><time>2026-04-04T12:59:14.879Z</time></trkpt><trkpt lat="45.5241443" lon="11.2364977"><ele>202.16666666666669</ele><time>2026-04-04T12:59:15.882Z</time></trkpt><trkpt lat="45.5240877" lon="11.2364172"><ele>201.33333333333334</ele><time>2026-04-04T12:59:16.867Z</time></trkpt><trkpt lat="45.5240343" lon="11.2363464"><ele>200.5</ele><time>2026-04-04T12:59:17.88Z</time></trkpt><trkpt lat="45.52398" lon="11.2362802"><ele>199.66666666666669</ele><time>2026-04-04T12:59:18.871Z</time></trkpt><trkpt lat="45.5239296" lon="11.2362168"><ele>198.83333333333334</ele><time>2026-04-04T12:59:19.866Z</time></trkpt><trkpt lat="45.5238406" lon="11.2361139"><ele>198.0</ele><time>2026-04-04T12:59:21.876Z</time></trkpt><trkpt lat="45.5237987" lon="11.2359878"><ele>198.0</ele><time>2026-04-04T12:59:23.871Z</time></trkpt><trkpt lat="45.5237824" lon="11.2358922"><ele>198.0</ele><time>2026-04-04T12:59:24.884Z</time></trkpt><trkpt lat="45.5237698" lon="11.2357465"><ele>198.0</ele><time>2026-04-04T12:59:26.869Z</time></trkpt><trkpt lat="45.5237676" lon="11.2356487"><ele>198.0</ele><time>2026-04-04T12:59:29.871Z</time></trkpt><trkpt lat="45.5237098" lon="11.235583"><ele>198.0</ele><time>2026-04-04T12:59:33.872Z</time></trkpt><trkpt lat="45.5236055" lon="11.235627"><ele>198.0</ele><time>2026-04-04T12:59:35.889Z</time></trkpt><trkpt lat="45.5234966" lon="11.2356521"><ele>197.16666666666666</ele><time>2026-04-04T12:59:36.877Z</time></trkpt><trkpt lat="45.5233985" lon="11.2356612"><ele>196.33333333333331</ele><time>2026-04-04T12:59:37.877Z</time></trkpt><trkpt lat="45.5233391" lon="11.2357311"><ele>195.5</ele><time>2026-04-04T12:59:38.87Z</time></trkpt><trkpt lat="45.5232667" lon="11.2357464"><ele>194.66666666666666</ele><time>2026-04-04T12:59:39.88Z</time></trkpt><trkpt lat="45.523192" lon="11.2357605"><ele>193.83333333333331</ele><time>2026-04-04T12:59:40.882Z</time></trkpt><trkpt lat="45.5231139" lon="11.2357656"><ele>193.0</ele><time>2026-04-04T12:59:41.87Z</time></trkpt><trkpt lat="45.5230409" lon="11.2357667"><ele>193.0</ele><time>2026-04-04T12:59:42.884Z</time></trkpt><trkpt lat="45.5229364" lon="11.2357678"><ele>193.0</ele><time>2026-04-04T12:59:44.88Z</time></trkpt><trkpt lat="45.5228133" lon="11.23578"><ele>193.0</ele><time>2026-04-04T12:59:46.881Z</time></trkpt><trkpt lat="45.522749" lon="11.2357805"><ele>193.0</ele><time>2026-04-04T12:59:47.879Z</time></trkpt><trkpt lat="45.5226794" lon="11.2357774"><ele>193.0</ele><time>2026-04-04T12:59:48.87Z</time></trkpt><trkpt lat="45.5225716" lon="11.2357647"><ele>191.60000000000002</ele><time>2026-04-04T12:59:49.875Z</time></trkpt><trkpt lat="45.5224611" lon="11.2357313"><ele>190.20000000000002</ele><time>2026-04-04T12:59:50.867Z</time></trkpt><trkpt lat="45.522349" lon="11.2356951"><ele>188.8</ele><time>2026-04-04T12:59:51.876Z</time></trkpt><trkpt lat="45.5222438" lon="11.2356572"><ele>187.4</ele><time>2026-04-04T12:59:52.881Z</time></trkpt><trkpt lat="45.5221456" lon="11.2356137"><ele>186.0</ele><time>2026-04-04T12:59:53.874Z</time></trkpt><trkpt lat="45.5220467" lon="11.2355621"><ele>184.4</ele><time>2026-04-04T12:59:54.872Z</time></trkpt><trkpt lat="45.5219498" lon="11.2355243"><ele>182.8</ele><time>2026-04-04T12:59:55.879Z</time></trkpt><trkpt lat="45.521852" lon="11.2354449"><ele>181.20000000000002</ele><time>2026-04-04T12:59:56.875Z</time></trkpt><trkpt lat="45.5217627" lon="11.2353716"><ele>179.60000000000002</ele><time>2026-04-04T12:59:57.876Z</time></trkpt><trkpt lat="45.5216814" lon="11.2353047"><ele>178.0</ele><time>2026-04-04T12:59:58.877Z</time></trkpt><trkpt lat="45.5216088" lon="11.2352437"><ele>178.0</ele><time>2026-04-04T12:59:59.874Z</time></trkpt><trkpt lat="45.5215347" lon="11.2351792"><ele>178.0</ele><time>2026-04-04T13:00:00.867Z</time></trkpt><trkpt lat="45.5214588" lon="11.2351198"><ele>178.0</ele><time>2026-04-04T13:00:01.871Z</time></trkpt><trkpt lat="45.5213554" lon="11.2350339"><ele>178.0</ele><time>2026-04-04T13:00:03.878Z</time></trkpt><trkpt lat="45.5212937" lon="11.2349742"><ele>178.0</ele><time>2026-04-04T13:00:04.871Z</time></trkpt><trkpt lat="45.5212271" lon="11.2348934"><ele>177.16666666666669</ele><time>2026-04-04T13:00:05.878Z</time></trkpt><trkpt lat="45.5211629" lon="11.2347976"><ele>176.33333333333334</ele><time>2026-04-04T13:00:06.87Z</time></trkpt><trkpt lat="45.5211053" lon="11.2347103"><ele>175.5</ele><time>2026-04-04T13:00:07.872Z</time></trkpt><trkpt lat="45.5210508" lon="11.2346311"><ele>174.66666666666666</ele><time>2026-04-04T13:00:08.876Z</time></trkpt><trkpt lat="45.5210044" lon="11.2345573"><ele>173.83333333333331</ele><time>2026-04-04T13:00:09.87Z</time></trkpt><trkpt lat="45.5209545" lon="11.2344445"><ele>173.0</ele><time>2026-04-04T13:00:11.877Z</time></trkpt><trkpt lat="45.5209372" lon="11.2343025"><ele>173.0</ele><time>2026-04-04T13:00:17.881Z</time></trkpt><trkpt lat="45.5209059" lon="11.2341374"><ele>173.0</ele><time>2026-04-04T13:00:19.877Z</time></trkpt><trkpt lat="45.5207956" lon="11.2340753"><ele>173.0</ele><time>2026-04-04T13:00:21.871Z</time></trkpt><trkpt lat="45.5207374" lon="11.2340358"><ele>173.0</ele><time>2026-04-04T13:00:22.872Z</time></trkpt><trkpt lat="45.5206819" lon="11.2339603"><ele>173.0</ele><time>2026-04-04T13:00:23.883Z</time></trkpt><trkpt lat="45.5206497" lon="11.2338691"><ele>173.0</ele><time>2026-04-04T13:00:24.875Z</time></trkpt><trkpt lat="45.5206151" lon="11.2337719"><ele>173.0</ele><time>2026-04-04T13:00:25.875Z</time></trkpt><trkpt lat="45.5205591" lon="11.2336896"><ele>173.0</ele><time>2026-04-04T13:00:26.871Z</time></trkpt><trkpt lat="45.5204768" lon="11.2336334"><ele>173.0</ele><time>2026-04-04T13:00:27.874Z</time></trkpt><trkpt lat="45.5203762" lon="11.2335879"><ele>173.0</ele><time>2026-04-04T13:00:28.878Z</time></trkpt><trkpt lat="45.5202634" lon="11.2335561"><ele>173.0</ele><time>2026-04-04T13:00:29.884Z</time></trkpt><trkpt lat="45.5201536" lon="11.2335277"><ele>173.0</ele><time>2026-04-04T13:00:30.868Z</time></trkpt><trkpt lat="45.5200454" lon="11.2335012"><ele>173.0</ele><time>2026-04-04T13:00:31.871Z</time></trkpt><trkpt lat="45.5199359" lon="11.2334712"><ele>173.0</ele><time>2026-04-04T13:00:32.875Z</time></trkpt><trkpt lat="45.5198184" lon="11.2334412"><ele>173.0</ele><time>2026-04-04T13:00:33.885Z</time></trkpt><trkpt lat="45.5197071" lon="11.2334058"><ele>173.0</ele><time>2026-04-04T13:00:34.871Z</time></trkpt><trkpt lat="45.5195976" lon="11.2333669"><ele>173.0</ele><time>2026-04-04T13:00:35.872Z</time></trkpt><trkpt lat="45.5194958" lon="11.2333182"><ele>173.0</ele><time>2026-04-04T13:00:36.883Z</time></trkpt><trkpt lat="45.519394" lon="11.2332681"><ele>173.0</ele><time>2026-04-04T13:00:37.866Z</time></trkpt><trkpt lat="45.5192933" lon="11.2332073"><ele>173.60000000000002</ele><time>2026-04-04T13:00:38.88Z</time></trkpt><trkpt lat="45.5191981" lon="11.2331487"><ele>174.20000000000002</ele><time>2026-04-04T13:00:39.872Z</time></trkpt><trkpt lat="45.5191007" lon="11.2331148"><ele>174.8</ele><time>2026-04-04T13:00:40.878Z</time></trkpt><trkpt lat="45.5189958" lon="11.2330965"><ele>175.4</ele><time>2026-04-04T13:00:41.878Z</time></trkpt><trkpt lat="45.518891" lon="11.2330864"><ele>176.0</ele><time>2026-04-04T13:00:42.871Z</time></trkpt><trkpt lat="45.5187829" lon="11.2330741"><ele>180.5</ele><time>2026-04-04T13:00:43.873Z</time></trkpt><trkpt lat="45.5186613" lon="11.2330607"><ele>185.0</ele><time>2026-04-04T13:00:44.88Z</time></trkpt><trkpt lat="45.5185332" lon="11.2330599"><ele>189.5</ele><time>2026-04-04T13:00:45.868Z</time></trkpt><trkpt lat="45.5184038" lon="11.2330582"><ele>194.0</ele><time>2026-04-04T13:00:46.871Z</time></trkpt><trkpt lat="45.518266" lon="11.2330585"><ele>194.0</ele><time>2026-04-04T13:00:47.875Z</time></trkpt><trkpt lat="45.5181253" lon="11.2330582"><ele>194.0</ele><time>2026-04-04T13:00:48.876Z</time></trkpt><trkpt lat="45.5179834" lon="11.2330564"><ele>194.0</ele><time>2026-04-04T13:00:49.877Z</time></trkpt><trkpt lat="45.5178371" lon="11.233056"><ele>194.0</ele><time>2026-04-04T13:00:50.873Z</time></trkpt><trkpt lat="45.517686" lon="11.2330664"><ele>195.5</ele><time>2026-04-04T13:00:51.893Z</time></trkpt><trkpt lat="45.5175271" lon="11.233086"><ele>197.0</ele><time>2026-04-04T13:00:52.879Z</time></trkpt><trkpt lat="45.5173766" lon="11.2331086"><ele>198.5</ele><time>2026-04-04T13:00:53.875Z</time></trkpt><trkpt lat="45.5172446" lon="11.2331279"><ele>200.0</ele><time>2026-04-04T13:00:54.885Z</time></trkpt><trkpt lat="45.5171161" lon="11.2331405"><ele>197.5</ele><time>2026-04-04T13:00:55.872Z</time></trkpt><trkpt lat="45.5169902" lon="11.2331413"><ele>195.0</ele><time>2026-04-04T13:00:56.876Z</time></trkpt><trkpt lat="45.5168662" lon="11.2331421"><ele>192.5</ele><time>2026-04-04T13:00:57.873Z</time></trkpt><trkpt lat="45.5167339" lon="11.2331461"><ele>190.0</ele><time>2026-04-04T13:00:58.876Z</time></trkpt><trkpt lat="45.5166029" lon="11.233157"><ele>190.0</ele><time>2026-04-04T13:00:59.874Z</time></trkpt><trkpt lat="45.5164744" lon="11.2331776"><ele>190.0</ele><time>2026-04-04T13:01:00.87Z</time></trkpt><trkpt lat="45.5163528" lon="11.2332011"><ele>190.0</ele><time>2026-04-04T13:01:01.881Z</time></trkpt><trkpt lat="45.516235" lon="11.2332397"><ele>190.0</ele><time>2026-04-04T13:01:02.88Z</time></trkpt><trkpt lat="45.5161177" lon="11.2332979"><ele>193.0</ele><time>2026-04-04T13:01:03.875Z</time></trkpt><trkpt lat="45.516003" lon="11.2333993"><ele>196.0</ele><time>2026-04-04T13:01:04.882Z</time></trkpt><trkpt lat="45.5158951" lon="11.2335052"><ele>199.0</ele><time>2026-04-04T13:01:05.875Z</time></trkpt><trkpt lat="45.5157821" lon="11.233601"><ele>202.0</ele><time>2026-04-04T13:01:06.873Z</time></trkpt><trkpt lat="45.5156553" lon="11.2336795"><ele>202.0</ele><time>2026-04-04T13:01:07.874Z</time></trkpt><trkpt lat="45.5155236" lon="11.23374"><ele>202.0</ele><time>2026-04-04T13:01:08.875Z</time></trkpt><trkpt lat="45.5153923" lon="11.2337932"><ele>202.0</ele><time>2026-04-04T13:01:09.875Z</time></trkpt><trkpt lat="45.5152556" lon="11.2338498"><ele>202.0</ele><time>2026-04-04T13:01:10.87Z</time></trkpt><trkpt lat="45.5151138" lon="11.2339222"><ele>202.0</ele><time>2026-04-04T13:01:11.882Z</time></trkpt><trkpt lat="45.5149607" lon="11.233993"><ele>202.0</ele><time>2026-04-04T13:01:12.873Z</time></trkpt><trkpt lat="45.5148147" lon="11.2340443"><ele>202.0</ele><time>2026-04-04T13:01:13.883Z</time></trkpt><trkpt lat="45.5146812" lon="11.2340613"><ele>202.0</ele><time>2026-04-04T13:01:14.87Z</time></trkpt><trkpt lat="45.5145546" lon="11.2340305"><ele>203.5</ele><time>2026-04-04T13:01:15.87Z</time></trkpt><trkpt lat="45.5144328" lon="11.2339875"><ele>205.0</ele><time>2026-04-04T13:01:16.868Z</time></trkpt><trkpt lat="45.5143188" lon="11.2339274"><ele>206.5</ele><time>2026-04-04T13:01:17.877Z</time></trkpt><trkpt lat="45.5142176" lon="11.2338394"><ele>208.0</ele><time>2026-04-04T13:01:18.874Z</time></trkpt><trkpt lat="45.5141216" lon="11.2337504"><ele>210.0</ele><time>2026-04-04T13:01:19.879Z</time></trkpt><trkpt lat="45.5140273" lon="11.2336677"><ele>212.0</ele><time>2026-04-04T13:01:20.874Z</time></trkpt><trkpt lat="45.5139354" lon="11.2336088"><ele>214.0</ele><time>2026-04-04T13:01:21.87Z</time></trkpt><trkpt lat="45.5138477" lon="11.2335633"><ele>216.0</ele><time>2026-04-04T13:01:22.867Z</time></trkpt><trkpt lat="45.5137535" lon="11.2335419"><ele>218.0</ele><time>2026-04-04T13:01:23.864Z</time></trkpt><trkpt lat="45.5136723" lon="11.2334963"><ele>218.0</ele><time>2026-04-04T13:01:24.871Z</time></trkpt><trkpt lat="45.5135819" lon="11.2334634"><ele>218.0</ele><time>2026-04-04T13:01:26.873Z</time></trkpt><trkpt lat="45.5135087" lon="11.2334101"><ele>218.0</ele><time>2026-04-04T13:01:28.87Z</time></trkpt><trkpt lat="45.5135634" lon="11.2332962"><ele>218.0</ele><time>2026-04-04T13:01:30.888Z</time></trkpt><trkpt lat="45.5136593" lon="11.233168"><ele>218.0</ele><time>2026-04-04T13:01:32.878Z</time></trkpt><trkpt lat="45.5137151" lon="11.233097"><ele>219.42857142857144</ele><time>2026-04-04T13:01:33.877Z</time></trkpt><trkpt lat="45.5137759" lon="11.2330227"><ele>220.85714285714286</ele><time>2026-04-04T13:01:34.87Z</time></trkpt><trkpt lat="45.5138316" lon="11.2329573"><ele>222.28571428571428</ele><time>2026-04-04T13:01:35.867Z</time></trkpt><trkpt lat="45.5138722" lon="11.2328722"><ele>223.71428571428572</ele><time>2026-04-04T13:01:36.877Z</time></trkpt><trkpt lat="45.5138752" lon="11.2327818"><ele>225.1428571428571</ele><time>2026-04-04T13:01:37.897Z</time></trkpt><trkpt lat="45.5138304" lon="11.2327072"><ele>226.57142857142856</ele><time>2026-04-04T13:01:38.874Z</time></trkpt><trkpt lat="45.5137688" lon="11.2326713"><ele>228.0</ele><time>2026-04-04T13:01:39.876Z</time></trkpt><trkpt lat="45.5137045" lon="11.2326357"><ele>228.0</ele><time>2026-04-04T13:01:40.88Z</time></trkpt><trkpt lat="45.5136387" lon="11.2325832"><ele>227.99999999999997</ele><time>2026-04-04T13:01:41.879Z</time></trkpt><trkpt lat="45.5135816" lon="11.2325191"><ele>228.0</ele><time>2026-04-04T13:01:42.868Z</time></trkpt><trkpt lat="45.513536" lon="11.2324396"><ele>228.0</ele><time>2026-04-04T13:01:43.874Z</time></trkpt><trkpt lat="45.5135082" lon="11.2323434"><ele>227.99999999999997</ele><time>2026-04-04T13:01:44.873Z</time></trkpt><trkpt lat="45.513501" lon="11.232242"><ele>228.0</ele><time>2026-04-04T13:01:45.879Z</time></trkpt><trkpt lat="45.5135154" lon="11.2321373"><ele>228.0</ele><time>2026-04-04T13:01:46.875Z</time></trkpt><trkpt lat="45.5135419" lon="11.2320342"><ele>230.0</ele><time>2026-04-04T13:01:47.875Z</time></trkpt><trkpt lat="45.5135833" lon="11.2319303"><ele>232.0</ele><time>2026-04-04T13:01:48.873Z</time></trkpt><trkpt lat="45.5136364" lon="11.2318358"><ele>234.0</ele><time>2026-04-04T13:01:49.874Z</time></trkpt><trkpt lat="45.5137003" lon="11.2317483"><ele>236.0</ele><time>2026-04-04T13:01:50.871Z</time></trkpt><trkpt lat="45.5137709" lon="11.2316665"><ele>238.0</ele><time>2026-04-04T13:01:51.869Z</time></trkpt><trkpt lat="45.5138533" lon="11.2316143"><ele>240.0</ele><time>2026-04-04T13:01:52.877Z</time></trkpt><trkpt lat="45.5139514" lon="11.2315893"><ele>241.6</ele><time>2026-04-04T13:01:53.871Z</time></trkpt><trkpt lat="45.5140506" lon="11.2315441"><ele>243.2</ele><time>2026-04-04T13:01:54.867Z</time></trkpt><trkpt lat="45.5141463" lon="11.2314815"><ele>244.8</ele><time>2026-04-04T13:01:55.873Z</time></trkpt><trkpt lat="45.514245" lon="11.231409"><ele>246.4</ele><time>2026-04-04T13:01:56.874Z</time></trkpt><trkpt lat="45.5143539" lon="11.2313342"><ele>248.0</ele><time>2026-04-04T13:01:57.877Z</time></trkpt><trkpt lat="45.5144637" lon="11.2312644"><ele>254.25</ele><time>2026-04-04T13:01:58.879Z</time></trkpt><trkpt lat="45.5145802" lon="11.231207"><ele>260.5</ele><time>2026-04-04T13:01:59.877Z</time></trkpt><trkpt lat="45.5147087" lon="11.2311452"><ele>266.75</ele><time>2026-04-04T13:02:00.865Z</time></trkpt><trkpt lat="45.5148464" lon="11.2310909"><ele>273.0</ele><time>2026-04-04T13:02:01.87Z</time></trkpt><trkpt lat="45.5149932" lon="11.2310459"><ele>273.0</ele><time>2026-04-04T13:02:02.874Z</time></trkpt><trkpt lat="45.5151522" lon="11.2310152"><ele>273.0</ele><time>2026-04-04T13:02:03.877Z</time></trkpt><trkpt lat="45.515312" lon="11.2310139"><ele>273.0</ele><time>2026-04-04T13:02:04.873Z</time></trkpt><trkpt lat="45.5154682" lon="11.2310186"><ele>271.0</ele><time>2026-04-04T13:02:05.88Z</time></trkpt><trkpt lat="45.5156108" lon="11.231021"><ele>269.0</ele><time>2026-04-04T13:02:06.879Z</time></trkpt><trkpt lat="45.5157488" lon="11.2309992"><ele>267.0</ele><time>2026-04-04T13:02:07.873Z</time></trkpt><trkpt lat="45.5158813" lon="11.2309567"><ele>265.0</ele><time>2026-04-04T13:02:08.88Z</time></trkpt><trkpt lat="45.5160099" lon="11.2309155"><ele>265.0</ele><time>2026-04-04T13:02:09.87Z</time></trkpt><trkpt lat="45.5161412" lon="11.2308646"><ele>265.0</ele><time>2026-04-04T13:02:10.874Z</time></trkpt><trkpt lat="45.5162708" lon="11.2308063"><ele>265.0</ele><time>2026-04-04T13:02:11.867Z</time></trkpt><trkpt lat="45.5163959" lon="11.2307363"><ele>265.0</ele><time>2026-04-04T13:02:12.877Z</time></trkpt><trkpt lat="45.5165184" lon="11.2306462"><ele>265.25</ele><time>2026-04-04T13:02:13.864Z</time></trkpt><trkpt lat="45.5166067" lon="11.2305147"><ele>265.5</ele><time>2026-04-04T13:02:14.875Z</time></trkpt><trkpt lat="45.5166859" lon="11.2303895"><ele>265.75</ele><time>2026-04-04T13:02:15.869Z</time></trkpt><trkpt lat="45.5167634" lon="11.2302456"><ele>266.0</ele><time>2026-04-04T13:02:16.871Z</time></trkpt><trkpt lat="45.5168283" lon="11.2301154"><ele>266.0</ele><time>2026-04-04T13:02:17.878Z</time></trkpt><trkpt lat="45.5168827" lon="11.2299887"><ele>266.0</ele><time>2026-04-04T13:02:18.879Z</time></trkpt><trkpt lat="45.516915" lon="11.2298453"><ele>266.0</ele><time>2026-04-04T13:02:19.869Z</time></trkpt><trkpt lat="45.5169235" lon="11.2296882"><ele>266.0</ele><time>2026-04-04T13:02:20.885Z</time></trkpt><trkpt lat="45.5169203" lon="11.2295286"><ele>266.0</ele><time>2026-04-04T13:02:21.866Z</time></trkpt><trkpt lat="45.5169134" lon="11.2293735"><ele>267.25</ele><time>2026-04-04T13:02:22.881Z</time></trkpt><trkpt lat="45.5169011" lon="11.2292088"><ele>268.5</ele><time>2026-04-04T13:02:23.871Z</time></trkpt><trkpt lat="45.5168873" lon="11.229041"><ele>269.75</ele><time>2026-04-04T13:02:24.882Z</time></trkpt><trkpt lat="45.5168742" lon="11.2288633"><ele>271.0</ele><time>2026-04-04T13:02:25.872Z</time></trkpt><trkpt lat="45.5168581" lon="11.2286837"><ele>271.0</ele><time>2026-04-04T13:02:26.875Z</time></trkpt><trkpt lat="45.5168306" lon="11.228507"><ele>271.0</ele><time>2026-04-04T13:02:27.884Z</time></trkpt><trkpt lat="45.516796" lon="11.2283259"><ele>271.0</ele><time>2026-04-04T13:02:28.875Z</time></trkpt><trkpt lat="45.5167474" lon="11.2281571"><ele>271.0</ele><time>2026-04-04T13:02:29.875Z</time></trkpt><trkpt lat="45.5166881" lon="11.22799"><ele>270.75</ele><time>2026-04-04T13:02:30.875Z</time></trkpt><trkpt lat="45.5166264" lon="11.2278359"><ele>270.5</ele><time>2026-04-04T13:02:31.879Z</time></trkpt><trkpt lat="45.5165517" lon="11.2276795"><ele>270.25</ele><time>2026-04-04T13:02:32.874Z</time></trkpt><trkpt lat="45.5164789" lon="11.2275404"><ele>270.0</ele><time>2026-04-04T13:02:33.877Z</time></trkpt><trkpt lat="45.5164091" lon="11.2274341"><ele>270.0</ele><time>2026-04-04T13:02:34.876Z</time></trkpt><trkpt lat="45.516342" lon="11.2273434"><ele>270.0</ele><time>2026-04-04T13:02:35.879Z</time></trkpt><trkpt lat="45.5162876" lon="11.2272568"><ele>270.0</ele><time>2026-04-04T13:02:36.874Z</time></trkpt><trkpt lat="45.5162447" lon="11.2271725"><ele>270.0</ele><time>2026-04-04T13:02:37.868Z</time></trkpt><trkpt lat="45.5162945" lon="11.2270032"><ele>270.0</ele><time>2026-04-04T13:02:39.881Z</time></trkpt><trkpt lat="45.5163552" lon="11.2269299"><ele>272.8</ele><time>2026-04-04T13:02:40.881Z</time></trkpt><trkpt lat="45.5164262" lon="11.2268718"><ele>275.6</ele><time>2026-04-04T13:02:41.874Z</time></trkpt><trkpt lat="45.5165137" lon="11.2268172"><ele>278.4</ele><time>2026-04-04T13:02:42.875Z</time></trkpt><trkpt lat="45.5165941" lon="11.2267646"><ele>281.2</ele><time>2026-04-04T13:02:43.877Z</time></trkpt><trkpt lat="45.5166776" lon="11.2267109"><ele>284.0</ele><time>2026-04-04T13:02:44.881Z</time></trkpt><trkpt lat="45.5167611" lon="11.2266538"><ele>284.0</ele><time>2026-04-04T13:02:45.875Z</time></trkpt><trkpt lat="45.5168437" lon="11.226596"><ele>284.0</ele><time>2026-04-04T13:02:46.874Z</time></trkpt><trkpt lat="45.5169251" lon="11.2265426"><ele>284.0</ele><time>2026-04-04T13:02:47.882Z</time></trkpt><trkpt lat="45.5170049" lon="11.2264869"><ele>284.0</ele><time>2026-04-04T13:02:48.885Z</time></trkpt><trkpt lat="45.5170734" lon="11.2264366"><ele>284.0</ele><time>2026-04-04T13:02:49.879Z</time></trkpt><trkpt lat="45.5171289" lon="11.2263647"><ele>284.0</ele><time>2026-04-04T13:02:50.872Z</time></trkpt><trkpt lat="45.5171419" lon="11.2262567"><ele>284.83333333333337</ele><time>2026-04-04T13:02:51.876Z</time></trkpt><trkpt lat="45.5171398" lon="11.2261452"><ele>285.6666666666667</ele><time>2026-04-04T13:02:52.884Z</time></trkpt><trkpt lat="45.5171466" lon="11.2260196"><ele>286.5</ele><time>2026-04-04T13:02:53.875Z</time></trkpt><trkpt lat="45.517159" lon="11.2259082"><ele>287.3333333333333</ele><time>2026-04-04T13:02:54.875Z</time></trkpt><trkpt lat="45.51719" lon="11.2257927"><ele>288.16666666666663</ele><time>2026-04-04T13:02:55.882Z</time></trkpt><trkpt lat="45.5172374" lon="11.2256963"><ele>289.0</ele><time>2026-04-04T13:02:56.869Z</time></trkpt><trkpt lat="45.5172911" lon="11.2256174"><ele>294.5</ele><time>2026-04-04T13:02:57.883Z</time></trkpt><trkpt lat="45.5173278" lon="11.2255443"><ele>300.0</ele><time>2026-04-04T13:02:58.873Z</time></trkpt><trkpt lat="45.5172584" lon="11.2254313"><ele>305.5</ele><time>2026-04-04T13:03:00.875Z</time></trkpt><trkpt lat="45.5171876" lon="11.2254298"><ele>311.0</ele><time>2026-04-04T13:03:01.876Z</time></trkpt><trkpt lat="45.5171055" lon="11.2254546"><ele>316.5</ele><time>2026-04-04T13:03:02.876Z</time></trkpt><trkpt lat="45.5170132" lon="11.2254777"><ele>322.0</ele><time>2026-04-04T13:03:03.874Z</time></trkpt><trkpt lat="45.5169113" lon="11.2255051"><ele>324.0</ele><time>2026-04-04T13:03:04.878Z</time></trkpt><trkpt lat="45.5168067" lon="11.2255368"><ele>326.0</ele><time>2026-04-04T13:03:05.884Z</time></trkpt><trkpt lat="45.5166969" lon="11.2255819"><ele>328.0</ele><time>2026-04-04T13:03:06.874Z</time></trkpt><trkpt lat="45.5165862" lon="11.2256253"><ele>330.0</ele><time>2026-04-04T13:03:07.881Z</time></trkpt><trkpt lat="45.5164784" lon="11.2256689"><ele>332.0</ele><time>2026-04-04T13:03:08.869Z</time></trkpt><trkpt lat="45.5163709" lon="11.2257107"><ele>328.0</ele><time>2026-04-04T13:03:09.879Z</time></trkpt><trkpt lat="45.5162659" lon="11.22576"><ele>324.0</ele><time>2026-04-04T13:03:10.875Z</time></trkpt><trkpt lat="45.5161752" lon="11.2258031"><ele>320.0</ele><time>2026-04-04T13:03:11.876Z</time></trkpt><trkpt lat="45.5160864" lon="11.2258373"><ele>316.0</ele><time>2026-04-04T13:03:12.88Z</time></trkpt><trkpt lat="45.5160069" lon="11.2258651"><ele>312.0</ele><time>2026-04-04T13:03:13.882Z</time></trkpt><trkpt lat="45.5159375" lon="11.2259063"><ele>312.0</ele><time>2026-04-04T13:03:14.872Z</time></trkpt><trkpt lat="45.5158708" lon="11.2259368"><ele>312.0</ele><time>2026-04-04T13:03:15.872Z</time></trkpt><trkpt lat="45.5158079" lon="11.2259541"><ele>312.0</ele><time>2026-04-04T13:03:16.879Z</time></trkpt><trkpt lat="45.5157429" lon="11.2259622"><ele>312.0</ele><time>2026-04-04T13:03:17.884Z</time></trkpt><trkpt lat="45.5156761" lon="11.2259629"><ele>312.0</ele><time>2026-04-04T13:03:18.873Z</time></trkpt><trkpt lat="45.5156061" lon="11.2259571"><ele>312.0</ele><time>2026-04-04T13:03:19.878Z</time></trkpt><trkpt lat="45.5155211" lon="11.225948"><ele>312.0</ele><time>2026-04-04T13:03:20.875Z</time></trkpt><trkpt lat="45.5154472" lon="11.2259309"><ele>315.0</ele><time>2026-04-04T13:03:21.877Z</time></trkpt><trkpt lat="45.5153728" lon="11.2258991"><ele>318.0</ele><time>2026-04-04T13:03:22.887Z</time></trkpt><trkpt lat="45.515299" lon="11.225849"><ele>321.0</ele><time>2026-04-04T13:03:23.879Z</time></trkpt><trkpt lat="45.5152386" lon="11.2257992"><ele>324.0</ele><time>2026-04-04T13:03:24.869Z</time></trkpt><trkpt lat="45.5151856" lon="11.2257479"><ele>327.0</ele><time>2026-04-04T13:03:25.876Z</time></trkpt><trkpt lat="45.5151302" lon="11.2256947"><ele>330.0</ele><time>2026-04-04T13:03:26.87Z</time></trkpt><trkpt lat="45.5150309" lon="11.2256259"><ele>332.1666666666667</ele><time>2026-04-04T13:03:28.877Z</time></trkpt><trkpt lat="45.5149761" lon="11.2255715"><ele>334.3333333333333</ele><time>2026-04-04T13:03:29.872Z</time></trkpt><trkpt lat="45.5149063" lon="11.2255319"><ele>336.5</ele><time>2026-04-04T13:03:30.878Z</time></trkpt><trkpt lat="45.5148405" lon="11.2254881"><ele>338.66666666666663</ele><time>2026-04-04T13:03:31.877Z</time></trkpt><trkpt lat="45.5147689" lon="11.2254367"><ele>340.8333333333333</ele><time>2026-04-04T13:03:32.88Z</time></trkpt><trkpt lat="45.5147093" lon="11.2253847"><ele>343.0</ele><time>2026-04-04T13:03:33.882Z</time></trkpt><trkpt lat="45.5146326" lon="11.2253294"><ele>344.14285714285717</ele><time>2026-04-04T13:03:34.868Z</time></trkpt><trkpt lat="45.5145652" lon="11.2252719"><ele>345.2857142857143</ele><time>2026-04-04T13:03:35.878Z</time></trkpt><trkpt lat="45.5145028" lon="11.2252179"><ele>346.42857142857144</ele><time>2026-04-04T13:03:36.878Z</time></trkpt><trkpt lat="45.5144394" lon="11.2251503"><ele>347.57142857142856</ele><time>2026-04-04T13:03:37.866Z</time></trkpt><trkpt lat="45.5143779" lon="11.2250895"><ele>348.7142857142857</ele><time>2026-04-04T13:03:38.873Z</time></trkpt><trkpt lat="45.5143275" lon="11.2250237"><ele>349.8571428571429</ele><time>2026-04-04T13:03:39.878Z</time></trkpt><trkpt lat="45.5142904" lon="11.2249443"><ele>351.0</ele><time>2026-04-04T13:03:40.876Z</time></trkpt><trkpt lat="45.5142557" lon="11.2248567"><ele>352.0</ele><time>2026-04-04T13:03:41.87Z</time></trkpt><trkpt lat="45.5142221" lon="11.2247724"><ele>353.0</ele><time>2026-04-04T13:03:42.879Z</time></trkpt><trkpt lat="45.5141945" lon="11.2246748"><ele>354.0</ele><time>2026-04-04T13:03:43.884Z</time></trkpt><trkpt lat="45.514172" lon="11.2245713"><ele>355.0</ele><time>2026-04-04T13:03:44.872Z</time></trkpt><trkpt lat="45.5141382" lon="11.2244102"><ele>356.0</ele><time>2026-04-04T13:03:46.868Z</time></trkpt><trkpt lat="45.5140903" lon="11.2242449"><ele>356.0</ele><time>2026-04-04T13:03:48.87Z</time></trkpt><trkpt lat="45.5140683" lon="11.2241581"><ele>356.0</ele><time>2026-04-04T13:03:49.871Z</time></trkpt><trkpt lat="45.514033" lon="11.2240182"><ele>356.0</ele><time>2026-04-04T13:03:51.868Z</time></trkpt><trkpt lat="45.5139834" lon="11.223866"><ele>356.0</ele><time>2026-04-04T13:03:53.869Z</time></trkpt><trkpt lat="45.5139117" lon="11.2237234"><ele>356.0</ele><time>2026-04-04T13:03:55.873Z</time></trkpt><trkpt lat="45.5138716" lon="11.2235909"><ele>358.6666666666667</ele><time>2026-04-04T13:03:57.879Z</time></trkpt><trkpt lat="45.5139379" lon="11.2235312"><ele>361.33333333333337</ele><time>2026-04-04T13:03:59.875Z</time></trkpt><trkpt lat="45.5140412" lon="11.2236397"><ele>364.0</ele><time>2026-04-04T13:04:01.887Z</time></trkpt><trkpt lat="45.5141008" lon="11.2237075"><ele>366.6666666666667</ele><time>2026-04-04T13:04:02.879Z</time></trkpt><trkpt lat="45.5141582" lon="11.2237707"><ele>369.3333333333333</ele><time>2026-04-04T13:04:03.88Z</time></trkpt><trkpt lat="45.5142188" lon="11.2238213"><ele>372.0</ele><time>2026-04-04T13:04:04.875Z</time></trkpt><trkpt lat="45.5142804" lon="11.2238777"><ele>372.0</ele><time>2026-04-04T13:04:05.878Z</time></trkpt><trkpt lat="45.5143419" lon="11.2239398"><ele>372.0</ele><time>2026-04-04T13:04:06.87Z</time></trkpt><trkpt lat="45.5144195" lon="11.2240034"><ele>372.0</ele><time>2026-04-04T13:04:07.876Z</time></trkpt><trkpt lat="45.5145097" lon="11.2240739"><ele>372.0</ele><time>2026-04-04T13:04:08.871Z</time></trkpt><trkpt lat="45.5146024" lon="11.224146"><ele>372.0</ele><time>2026-04-04T13:04:09.883Z</time></trkpt><trkpt lat="45.5146708" lon="11.2242243"><ele>370.0</ele><time>2026-04-04T13:04:10.87Z</time></trkpt><trkpt lat="45.5147395" lon="11.2242802"><ele>368.0</ele><time>2026-04-04T13:04:11.875Z</time></trkpt><trkpt lat="45.5148058" lon="11.2243294"><ele>366.0</ele><time>2026-04-04T13:04:12.883Z</time></trkpt><trkpt lat="45.5148717" lon="11.2243633"><ele>364.0</ele><time>2026-04-04T13:04:13.869Z</time></trkpt><trkpt lat="45.5149385" lon="11.2243669"><ele>362.0</ele><time>2026-04-04T13:04:14.876Z</time></trkpt><trkpt lat="45.5150019" lon="11.2243305"><ele>360.0</ele><time>2026-04-04T13:04:15.881Z</time></trkpt><trkpt lat="45.5150723" lon="11.2241898"><ele>360.0</ele><time>2026-04-04T13:04:17.884Z</time></trkpt><trkpt lat="45.515071" lon="11.2240879"><ele>360.0</ele><time>2026-04-04T13:04:18.874Z</time></trkpt><trkpt lat="45.5150377" lon="11.224001"><ele>360.0</ele><time>2026-04-04T13:04:19.87Z</time></trkpt><trkpt lat="45.5149754" lon="11.2239505"><ele>360.0</ele><time>2026-04-04T13:04:20.867Z</time></trkpt><trkpt lat="45.5149111" lon="11.2238853"><ele>360.0</ele><time>2026-04-04T13:04:21.871Z</time></trkpt><trkpt lat="45.5148655" lon="11.2238232"><ele>360.0</ele><time>2026-04-04T13:04:22.869Z</time></trkpt><trkpt lat="45.5147892" lon="11.2236795"><ele>364.75</ele><time>2026-04-04T13:04:24.873Z</time></trkpt><trkpt lat="45.5147722" lon="11.2235239"><ele>369.5</ele><time>2026-04-04T13:04:26.885Z</time></trkpt><trkpt lat="45.5147881" lon="11.223355"><ele>374.25</ele><time>2026-04-04T13:04:28.871Z</time></trkpt><trkpt lat="45.5148204" lon="11.2231906"><ele>379.0</ele><time>2026-04-04T13:04:30.872Z</time></trkpt><trkpt lat="45.5148653" lon="11.2230266"><ele>383.25</ele><time>2026-04-04T13:04:32.875Z</time></trkpt><trkpt lat="45.514923" lon="11.2228914"><ele>387.5</ele><time>2026-04-04T13:04:34.879Z</time></trkpt><trkpt lat="45.5149775" lon="11.2227357"><ele>391.75</ele><time>2026-04-04T13:04:36.874Z</time></trkpt><trkpt lat="45.5150348" lon="11.2225999"><ele>396.0</ele><time>2026-04-04T13:04:38.869Z</time></trkpt><trkpt lat="45.5150835" lon="11.222463"><ele>396.0</ele><time>2026-04-04T13:04:40.871Z</time></trkpt><trkpt lat="45.5151055" lon="11.2223775"><ele>396.0</ele><time>2026-04-04T13:04:41.886Z</time></trkpt><trkpt lat="45.5151222" lon="11.2222781"><ele>396.0</ele><time>2026-04-04T13:04:42.876Z</time></trkpt><trkpt lat="45.5151358" lon="11.222187"><ele>396.0</ele><time>2026-04-04T13:04:43.881Z</time></trkpt><trkpt lat="45.5152003" lon="11.2220443"><ele>396.0</ele><time>2026-04-04T13:04:45.883Z</time></trkpt><trkpt lat="45.5152884" lon="11.2219222"><ele>396.0</ele><time>2026-04-04T13:04:47.882Z</time></trkpt><trkpt lat="45.515335" lon="11.2218567"><ele>400.20000000000005</ele><time>2026-04-04T13:04:48.877Z</time></trkpt><trkpt lat="45.5154215" lon="11.2217451"><ele>404.40000000000003</ele><time>2026-04-04T13:04:50.876Z</time></trkpt><trkpt lat="45.515535" lon="11.2216649"><ele>408.6</ele><time>2026-04-04T13:04:52.871Z</time></trkpt><trkpt lat="45.5156546" lon="11.221599"><ele>412.8</ele><time>2026-04-04T13:04:54.881Z</time></trkpt><trkpt lat="45.5157138" lon="11.2215625"><ele>417.0</ele><time>2026-04-04T13:04:55.872Z</time></trkpt><trkpt lat="45.5157758" lon="11.2215275"><ele>420.3333333333333</ele><time>2026-04-04T13:04:56.875Z</time></trkpt><trkpt lat="45.5158435" lon="11.2214806"><ele>423.66666666666663</ele><time>2026-04-04T13:04:57.879Z</time></trkpt><trkpt lat="45.5159162" lon="11.2214417"><ele>427.0</ele><time>2026-04-04T13:04:58.868Z</time></trkpt><trkpt lat="45.516003" lon="11.2213907"><ele>430.3333333333333</ele><time>2026-04-04T13:04:59.873Z</time></trkpt><trkpt lat="45.5160768" lon="11.2213555"><ele>433.66666666666663</ele><time>2026-04-04T13:05:00.874Z</time></trkpt><trkpt lat="45.5161472" lon="11.2213521"><ele>437.0</ele><time>2026-04-04T13:05:01.873Z</time></trkpt><trkpt lat="45.5162251" lon="11.2213601"><ele>436.8333333333333</ele><time>2026-04-04T13:05:02.872Z</time></trkpt><trkpt lat="45.5163067" lon="11.2213527"><ele>436.66666666666663</ele><time>2026-04-04T13:05:03.872Z</time></trkpt><trkpt lat="45.5163859" lon="11.2213591"><ele>436.5</ele><time>2026-04-04T13:05:04.864Z</time></trkpt><trkpt lat="45.5164644" lon="11.2213632"><ele>436.33333333333337</ele><time>2026-04-04T13:05:05.869Z</time></trkpt><trkpt lat="45.5165463" lon="11.221371"><ele>436.1666666666667</ele><time>2026-04-04T13:05:06.871Z</time></trkpt><trkpt lat="45.5166216" lon="11.2213703"><ele>436.0</ele><time>2026-04-04T13:05:07.865Z</time></trkpt><trkpt lat="45.5166851" lon="11.2213628"><ele>436.00000000000006</ele><time>2026-04-04T13:05:08.866Z</time></trkpt><trkpt lat="45.5168088" lon="11.2213338"><ele>436.0</ele><time>2026-04-04T13:05:10.866Z</time></trkpt><trkpt lat="45.5168759" lon="11.2213099"><ele>436.0</ele><time>2026-04-04T13:05:11.871Z</time></trkpt><trkpt lat="45.5169359" lon="11.2212708"><ele>436.0</ele><time>2026-04-04T13:05:12.874Z</time></trkpt><trkpt lat="45.5169936" lon="11.2212187"><ele>436.00000000000006</ele><time>2026-04-04T13:05:13.871Z</time></trkpt><trkpt lat="45.5170522" lon="11.2211661"><ele>436.0</ele><time>2026-04-04T13:05:14.871Z</time></trkpt><trkpt lat="45.5171095" lon="11.2211267"><ele>436.0</ele><time>2026-04-04T13:05:15.876Z</time></trkpt><trkpt lat="45.5171673" lon="11.2210791"><ele>436.0</ele><time>2026-04-04T13:05:16.87Z</time></trkpt><trkpt lat="45.5172562" lon="11.2209675"><ele>436.0</ele><time>2026-04-04T13:05:18.877Z</time></trkpt><trkpt lat="45.5172859" lon="11.2208221"><ele>436.0</ele><time>2026-04-04T13:05:20.875Z</time></trkpt><trkpt lat="45.5172483" lon="11.2207036"><ele>436.0</ele><time>2026-04-04T13:05:22.863Z</time></trkpt><trkpt lat="45.5172209" lon="11.220541"><ele>439.25</ele><time>2026-04-04T13:05:24.869Z</time></trkpt><trkpt lat="45.5171884" lon="11.2203741"><ele>442.5</ele><time>2026-04-04T13:05:26.871Z</time></trkpt><trkpt lat="45.5171441" lon="11.2202136"><ele>445.75</ele><time>2026-04-04T13:05:28.874Z</time></trkpt><trkpt lat="45.5170882" lon="11.2200561"><ele>449.0</ele><time>2026-04-04T13:05:30.875Z</time></trkpt><trkpt lat="45.5170218" lon="11.2199215"><ele>450.49999999999994</ele><time>2026-04-04T13:05:32.868Z</time></trkpt><trkpt lat="45.5169315" lon="11.2198666"><ele>452.0</ele><time>2026-04-04T13:05:34.88Z</time></trkpt><trkpt lat="45.5168683" lon="11.2198746"><ele>453.5</ele><time>2026-04-04T13:05:35.875Z</time></trkpt><trkpt lat="45.5168004" lon="11.2198703"><ele>455.0</ele><time>2026-04-04T13:05:36.877Z</time></trkpt><trkpt lat="45.5167321" lon="11.2197908"><ele>456.49999999999994</ele><time>2026-04-04T13:05:38.872Z</time></trkpt><trkpt lat="45.516748" lon="11.2196715"><ele>458.0</ele><time>2026-04-04T13:05:40.876Z</time></trkpt><trkpt lat="45.5168273" lon="11.2195634"><ele>462.0</ele><time>2026-04-04T13:05:42.895Z</time></trkpt><trkpt lat="45.5168638" lon="11.2194112"><ele>465.99999999999994</ele><time>2026-04-04T13:05:44.874Z</time></trkpt><trkpt lat="45.5169007" lon="11.219309"><ele>469.99999999999994</ele><time>2026-04-04T13:05:46.886Z</time></trkpt><trkpt lat="45.5168697" lon="11.2191881"><ele>474.0</ele><time>2026-04-04T13:05:48.891Z</time></trkpt><trkpt lat="45.5167673" lon="11.219179"><ele>478.0</ele><time>2026-04-04T13:05:50.872Z</time></trkpt><trkpt lat="45.5167062" lon="11.2192052"><ele>478.0</ele><time>2026-04-04T13:05:51.878Z</time></trkpt><trkpt lat="45.5166389" lon="11.2192181"><ele>477.99999999999994</ele><time>2026-04-04T13:05:52.879Z</time></trkpt><trkpt lat="45.5165386" lon="11.2191823"><ele>477.99999999999994</ele><time>2026-04-04T13:05:54.868Z</time></trkpt><trkpt lat="45.5164348" lon="11.2191205"><ele>478.0</ele><time>2026-04-04T13:05:56.873Z</time></trkpt><trkpt lat="45.5163504" lon="11.219035"><ele>478.0</ele><time>2026-04-04T13:05:58.875Z</time></trkpt><trkpt lat="45.5162953" lon="11.2189131"><ele>481.4</ele><time>2026-04-04T13:06:00.871Z</time></trkpt><trkpt lat="45.5162352" lon="11.2187814"><ele>484.79999999999995</ele><time>2026-04-04T13:06:02.881Z</time></trkpt><trkpt lat="45.5161583" lon="11.2186969"><ele>488.2</ele><time>2026-04-04T13:06:04.869Z</time></trkpt><trkpt lat="45.5161012" lon="11.2186167"><ele>491.6</ele><time>2026-04-04T13:06:07.874Z</time></trkpt><trkpt lat="45.5161947" lon="11.2185583"><ele>495.0</ele><time>2026-04-04T13:06:10.871Z</time></trkpt><trkpt lat="45.5162891" lon="11.2185171"><ele>495.0</ele><time>2026-04-04T13:06:12.884Z</time></trkpt><trkpt lat="45.5163721" lon="11.2184723"><ele>495.0</ele><time>2026-04-04T13:06:14.877Z</time></trkpt><trkpt lat="45.516466" lon="11.2184303"><ele>495.0</ele><time>2026-04-04T13:06:16.877Z</time></trkpt><trkpt lat="45.5165603" lon="11.2183585"><ele>495.0</ele><time>2026-04-04T13:06:18.868Z</time></trkpt><trkpt lat="45.5166594" lon="11.2182852"><ele>495.0</ele><time>2026-04-04T13:06:20.874Z</time></trkpt><trkpt lat="45.5167663" lon="11.2182084"><ele>495.0</ele><time>2026-04-04T13:06:22.866Z</time></trkpt><trkpt lat="45.5168715" lon="11.2181338"><ele>495.0</ele><time>2026-04-04T13:06:24.887Z</time></trkpt><trkpt lat="45.5169669" lon="11.2180549"><ele>495.0</ele><time>2026-04-04T13:06:26.878Z</time></trkpt><trkpt lat="45.5170634" lon="11.2179774"><ele>495.0</ele><time>2026-04-04T13:06:28.875Z</time></trkpt><trkpt lat="45.517158" lon="11.2179146"><ele>495.0</ele><time>2026-04-04T13:06:30.883Z</time></trkpt><trkpt lat="45.5172547" lon="11.2178441"><ele>495.0</ele><time>2026-04-04T13:06:32.881Z</time></trkpt><trkpt lat="45.5173322" lon="11.2177713"><ele>495.0</ele><time>2026-04-04T13:06:34.881Z</time></trkpt><trkpt lat="45.5173853" lon="11.2177191"><ele>495.0</ele><time>2026-04-04T13:06:35.865Z</time></trkpt><trkpt lat="45.5174622" lon="11.2176271"><ele>495.0</ele><time>2026-04-04T13:06:37.868Z</time></trkpt><trkpt lat="45.5175329" lon="11.2175126"><ele>495.0</ele><time>2026-04-04T13:06:39.873Z</time></trkpt><trkpt lat="45.5175819" lon="11.2173767"><ele>497.8</ele><time>2026-04-04T13:06:41.867Z</time></trkpt><trkpt lat="45.5176211" lon="11.2172281"><ele>500.6</ele><time>2026-04-04T13:06:43.876Z</time></trkpt><trkpt lat="45.5176412" lon="11.2170728"><ele>503.4</ele><time>2026-04-04T13:06:45.878Z</time></trkpt><trkpt lat="45.5176534" lon="11.2169287"><ele>506.2</ele><time>2026-04-04T13:06:47.871Z</time></trkpt><trkpt lat="45.5176708" lon="11.2168181"><ele>509.0</ele><time>2026-04-04T13:06:49.88Z</time></trkpt><trkpt lat="45.5177268" lon="11.2167042"><ele>508.99999999999994</ele><time>2026-04-04T13:06:52.88Z</time></trkpt><trkpt lat="45.5177831" lon="11.2166598"><ele>509.0</ele><time>2026-04-04T13:06:54.876Z</time></trkpt><trkpt lat="45.5178544" lon="11.2165833"><ele>509.0</ele><time>2026-04-04T13:06:56.873Z</time></trkpt><trkpt lat="45.5179295" lon="11.216469"><ele>509.0</ele><time>2026-04-04T13:06:58.871Z</time></trkpt><trkpt lat="45.517982" lon="11.2163538"><ele>508.99999999999994</ele><time>2026-04-04T13:07:00.876Z</time></trkpt><trkpt lat="45.5180205" lon="11.2162386"><ele>509.0</ele><time>2026-04-04T13:07:02.88Z</time></trkpt><trkpt lat="45.5180595" lon="11.2161493"><ele>509.8333333333333</ele><time>2026-04-04T13:07:05.875Z</time></trkpt><trkpt lat="45.5181026" lon="11.2160333"><ele>510.66666666666663</ele><time>2026-04-04T13:07:08.873Z</time></trkpt><trkpt lat="45.5181258" lon="11.215932"><ele>511.5</ele><time>2026-04-04T13:07:10.875Z</time></trkpt><trkpt lat="45.518141" lon="11.2158162"><ele>512.3333333333334</ele><time>2026-04-04T13:07:12.869Z</time></trkpt><trkpt lat="45.5181672" lon="11.2156908"><ele>513.1666666666667</ele><time>2026-04-04T13:07:14.877Z</time></trkpt><trkpt lat="45.5182035" lon="11.2155962"><ele>514.0</ele><time>2026-04-04T13:07:16.876Z</time></trkpt><trkpt lat="45.5182837" lon="11.2156081"><ele>514.0</ele><time>2026-04-04T13:07:18.874Z</time></trkpt><trkpt lat="45.5183468" lon="11.2155901"><ele>514.0</ele><time>2026-04-04T13:07:20.87Z</time></trkpt><trkpt lat="45.5184286" lon="11.215595"><ele>514.0</ele><time>2026-04-04T13:07:22.875Z</time></trkpt><trkpt lat="45.5184904" lon="11.215556"><ele>514.0</ele><time>2026-04-04T13:07:24.869Z</time></trkpt><trkpt lat="45.5185623" lon="11.2155102"><ele>514.0</ele><time>2026-04-04T13:07:27.872Z</time></trkpt><trkpt lat="45.518634" lon="11.2154778"><ele>514.0</ele><time>2026-04-04T13:07:29.867Z</time></trkpt><trkpt lat="45.5186999" lon="11.2154216"><ele>514.0</ele><time>2026-04-04T13:07:31.872Z</time></trkpt><trkpt lat="45.5187554" lon="11.2153584"><ele>509.33333333333337</ele><time>2026-04-04T13:07:33.872Z</time></trkpt><trkpt lat="45.5188137" lon="11.2152888"><ele>504.6666666666667</ele><time>2026-04-04T13:07:35.872Z</time></trkpt><trkpt lat="45.5188627" lon="11.215229"><ele>500.0</ele><time>2026-04-04T13:07:37.876Z</time></trkpt><trkpt lat="45.5189377" lon="11.2151361"><ele>495.33333333333337</ele><time>2026-04-04T13:07:38.87Z</time></trkpt><trkpt lat="45.5189704" lon="11.2150567"><ele>490.6666666666667</ele><time>2026-04-04T13:07:39.874Z</time></trkpt><trkpt lat="45.5190366" lon="11.2149022"><ele>486.0</ele><time>2026-04-04T13:07:41.883Z</time></trkpt><trkpt lat="45.5190685" lon="11.2148118"><ele>486.0</ele><time>2026-04-04T13:07:42.872Z</time></trkpt><trkpt lat="45.5190997" lon="11.2147292"><ele>486.0</ele><time>2026-04-04T13:07:43.871Z</time></trkpt><trkpt lat="45.5191254" lon="11.2146452"><ele>486.0</ele><time>2026-04-04T13:07:44.88Z</time></trkpt><trkpt lat="45.5191823" lon="11.2145376"><ele>486.0</ele><time>2026-04-04T13:07:46.877Z</time></trkpt><trkpt lat="45.5192037" lon="11.214436"><ele>486.0</ele><time>2026-04-04T13:07:48.874Z</time></trkpt><trkpt lat="45.5192333" lon="11.2143475"><ele>486.0</ele><time>2026-04-04T13:07:50.875Z</time></trkpt><trkpt lat="45.5192391" lon="11.2142467"><ele>486.0</ele><time>2026-04-04T13:07:52.868Z</time></trkpt><trkpt lat="45.5192585" lon="11.214132"><ele>486.0</ele><time>2026-04-04T13:07:54.867Z</time></trkpt><trkpt lat="45.5192814" lon="11.2139986"><ele>486.0</ele><time>2026-04-04T13:07:56.869Z</time></trkpt><trkpt lat="45.5193269" lon="11.2139132"><ele>486.0</ele><time>2026-04-04T13:07:57.874Z</time></trkpt><trkpt lat="45.5193614" lon="11.2137758"><ele>486.0</ele><time>2026-04-04T13:07:59.874Z</time></trkpt><trkpt lat="45.5194212" lon="11.2136541"><ele>486.0</ele><time>2026-04-04T13:08:01.877Z</time></trkpt><trkpt lat="45.5194625" lon="11.2135091"><ele>487.1666666666667</ele><time>2026-04-04T13:08:03.877Z</time></trkpt><trkpt lat="45.5194843" lon="11.2133667"><ele>488.33333333333337</ele><time>2026-04-04T13:08:05.871Z</time></trkpt><trkpt lat="45.5194929" lon="11.213213"><ele>489.5</ele><time>2026-04-04T13:08:07.871Z</time></trkpt><trkpt lat="45.5194922" lon="11.2130882"><ele>490.6666666666667</ele><time>2026-04-04T13:08:09.869Z</time></trkpt><trkpt lat="45.5194881" lon="11.2129872"><ele>491.83333333333337</ele><time>2026-04-04T13:08:12.866Z</time></trkpt><trkpt lat="45.5195509" lon="11.2129394"><ele>493.0</ele><time>2026-04-04T13:08:16.868Z</time></trkpt><trkpt lat="45.5196375" lon="11.2129462"><ele>488.00000000000006</ele><time>2026-04-04T13:08:19.876Z</time></trkpt><trkpt lat="45.5197092" lon="11.2129496"><ele>483.0</ele><time>2026-04-04T13:08:21.868Z</time></trkpt><trkpt lat="45.5197843" lon="11.2129159"><ele>478.0</ele><time>2026-04-04T13:08:23.869Z</time></trkpt><trkpt lat="45.519839" lon="11.2128296"><ele>473.0</ele><time>2026-04-04T13:08:25.868Z</time></trkpt><trkpt lat="45.5199003" lon="11.2126762"><ele>468.00000000000006</ele><time>2026-04-04T13:08:27.875Z</time></trkpt><trkpt lat="45.5199432" lon="11.2125863"><ele>463.0</ele><time>2026-04-04T13:08:28.881Z</time></trkpt><trkpt lat="45.5199827" lon="11.212488"><ele>463.00000000000006</ele><time>2026-04-04T13:08:29.877Z</time></trkpt><trkpt lat="45.5200153" lon="11.2123809"><ele>463.0</ele><time>2026-04-04T13:08:30.876Z</time></trkpt><trkpt lat="45.5200392" lon="11.2122906"><ele>463.0</ele><time>2026-04-04T13:08:31.865Z</time></trkpt><trkpt lat="45.5200514" lon="11.212191"><ele>463.0</ele><time>2026-04-04T13:08:32.874Z</time></trkpt><trkpt lat="45.5200538" lon="11.2120232"><ele>463.00000000000006</ele><time>2026-04-04T13:08:34.87Z</time></trkpt><trkpt lat="45.5200495" lon="11.2118716"><ele>463.0</ele><time>2026-04-04T13:08:36.878Z</time></trkpt><trkpt lat="45.5201048" lon="11.2118004"><ele>465.4</ele><time>2026-04-04T13:08:38.869Z</time></trkpt><trkpt lat="45.5201808" lon="11.2116911"><ele>467.79999999999995</ele><time>2026-04-04T13:08:40.87Z</time></trkpt><trkpt lat="45.5202102" lon="11.2115545"><ele>470.2</ele><time>2026-04-04T13:08:42.883Z</time></trkpt><trkpt lat="45.5202089" lon="11.211389"><ele>472.6</ele><time>2026-04-04T13:08:44.876Z</time></trkpt><trkpt lat="45.5201956" lon="11.211297"><ele>475.0</ele><time>2026-04-04T13:08:45.873Z</time></trkpt><trkpt lat="45.5201941" lon="11.2112032"><ele>474.6666666666667</ele><time>2026-04-04T13:08:46.87Z</time></trkpt><trkpt lat="45.5202465" lon="11.2110989"><ele>474.33333333333337</ele><time>2026-04-04T13:08:47.873Z</time></trkpt><trkpt lat="45.520274" lon="11.2110122"><ele>474.0</ele><time>2026-04-04T13:08:48.876Z</time></trkpt><trkpt lat="45.5203411" lon="11.2109437"><ele>473.66666666666663</ele><time>2026-04-04T13:08:50.867Z</time></trkpt><trkpt lat="45.520432" lon="11.2109533"><ele>473.3333333333333</ele><time>2026-04-04T13:08:52.873Z</time></trkpt><trkpt lat="45.5205017" lon="11.2109286"><ele>473.0</ele><time>2026-04-04T13:08:54.874Z</time></trkpt><trkpt lat="45.5205974" lon="11.2108706"><ele>473.0</ele><time>2026-04-04T13:09:20.867Z</time></trkpt><trkpt lat="45.5206122" lon="11.210992"><ele>472.99999999999994</ele><time>2026-04-04T13:09:24.866Z</time></trkpt><trkpt lat="45.5206123" lon="11.2111497"><ele>472.99999999999994</ele><time>2026-04-04T13:09:26.869Z</time></trkpt><trkpt lat="45.5206645" lon="11.2112937"><ele>473.0</ele><time>2026-04-04T13:09:28.877Z</time></trkpt><trkpt lat="45.5207279" lon="11.2114465"><ele>473.0</ele><time>2026-04-04T13:09:30.869Z</time></trkpt><trkpt lat="45.5207652" lon="11.2115222"><ele>470.16666666666663</ele><time>2026-04-04T13:09:31.871Z</time></trkpt><trkpt lat="45.5208434" lon="11.2116664"><ele>467.3333333333333</ele><time>2026-04-04T13:09:33.871Z</time></trkpt><trkpt lat="45.5208915" lon="11.2117417"><ele>464.5</ele><time>2026-04-04T13:09:34.885Z</time></trkpt><trkpt lat="45.5209454" lon="11.2118114"><ele>461.66666666666663</ele><time>2026-04-04T13:09:35.873Z</time></trkpt><trkpt lat="45.5209979" lon="11.2118839"><ele>458.8333333333333</ele><time>2026-04-04T13:09:36.881Z</time></trkpt><trkpt lat="45.5210437" lon="11.2119506"><ele>456.0</ele><time>2026-04-04T13:09:37.872Z</time></trkpt><trkpt lat="45.5210739" lon="11.2120457"><ele>456.0</ele><time>2026-04-04T13:09:38.877Z</time></trkpt><trkpt lat="45.5211516" lon="11.2121955"><ele>456.0</ele><time>2026-04-04T13:09:40.874Z</time></trkpt><trkpt lat="45.521206" lon="11.2122751"><ele>456.0</ele><time>2026-04-04T13:09:41.863Z</time></trkpt><trkpt lat="45.5212133" lon="11.2124293"><ele>456.0</ele><time>2026-04-04T13:09:43.867Z</time></trkpt><trkpt lat="45.5211956" lon="11.2125782"><ele>456.0</ele><time>2026-04-04T13:09:45.872Z</time></trkpt><trkpt lat="45.5212506" lon="11.2127095"><ele>455.20000000000005</ele><time>2026-04-04T13:09:47.875Z</time></trkpt><trkpt lat="45.5213375" lon="11.2128237"><ele>454.40000000000003</ele><time>2026-04-04T13:09:49.871Z</time></trkpt><trkpt lat="45.5214136" lon="11.2129643"><ele>453.6</ele><time>2026-04-04T13:09:51.881Z</time></trkpt><trkpt lat="45.521451" lon="11.2130521"><ele>452.8</ele><time>2026-04-04T13:09:52.882Z</time></trkpt><trkpt lat="45.5214919" lon="11.213148"><ele>452.0</ele><time>2026-04-04T13:09:53.869Z</time></trkpt><trkpt lat="45.5215221" lon="11.2132343"><ele>451.99999999999994</ele><time>2026-04-04T13:09:54.872Z</time></trkpt><trkpt lat="45.5215441" lon="11.2133421"><ele>452.0</ele><time>2026-04-04T13:09:55.877Z</time></trkpt><trkpt lat="45.521551" lon="11.2134506"><ele>452.0</ele><time>2026-04-04T13:09:56.873Z</time></trkpt><trkpt lat="45.5215641" lon="11.2135536"><ele>452.0</ele><time>2026-04-04T13:09:57.87Z</time></trkpt><trkpt lat="45.521596" lon="11.2136677"><ele>451.99999999999994</ele><time>2026-04-04T13:09:58.873Z</time></trkpt><trkpt lat="45.5216234" lon="11.2137624"><ele>452.0</ele><time>2026-04-04T13:09:59.87Z</time></trkpt><trkpt lat="45.5216401" lon="11.2138599"><ele>451.99999999999994</ele><time>2026-04-04T13:10:00.874Z</time></trkpt><trkpt lat="45.5216647" lon="11.2139593"><ele>452.0</ele><time>2026-04-04T13:10:01.867Z</time></trkpt><trkpt lat="45.521689" lon="11.2140647"><ele>452.0</ele><time>2026-04-04T13:10:02.868Z</time></trkpt><trkpt lat="45.5217169" lon="11.2141738"><ele>452.0</ele><time>2026-04-04T13:10:03.869Z</time></trkpt><trkpt lat="45.5217635" lon="11.2142588"><ele>451.99999999999994</ele><time>2026-04-04T13:10:04.867Z</time></trkpt><trkpt lat="45.5218234" lon="11.2143094"><ele>452.0</ele><time>2026-04-04T13:10:05.871Z</time></trkpt><trkpt lat="45.5219447" lon="11.2142662"><ele>451.42857142857144</ele><time>2026-04-04T13:10:07.873Z</time></trkpt><trkpt lat="45.522008" lon="11.2142218"><ele>450.85714285714283</ele><time>2026-04-04T13:10:08.875Z</time></trkpt><trkpt lat="45.5220602" lon="11.2141628"><ele>450.2857142857143</ele><time>2026-04-04T13:10:09.883Z</time></trkpt><trkpt lat="45.5221137" lon="11.2140983"><ele>449.7142857142857</ele><time>2026-04-04T13:10:10.869Z</time></trkpt><trkpt lat="45.5221737" lon="11.2140609"><ele>449.1428571428571</ele><time>2026-04-04T13:10:11.875Z</time></trkpt><trkpt lat="45.5222414" lon="11.2140696"><ele>448.57142857142856</ele><time>2026-04-04T13:10:12.878Z</time></trkpt><trkpt lat="45.522313" lon="11.2141095"><ele>448.0</ele><time>2026-04-04T13:10:13.872Z</time></trkpt><trkpt lat="45.5223912" lon="11.2141467"><ele>451.1666666666667</ele><time>2026-04-04T13:10:14.87Z</time></trkpt><trkpt lat="45.5224801" lon="11.2141779"><ele>454.33333333333337</ele><time>2026-04-04T13:10:15.873Z</time></trkpt><trkpt lat="45.522566" lon="11.2142108"><ele>457.5</ele><time>2026-04-04T13:10:16.878Z</time></trkpt><trkpt lat="45.5226426" lon="11.2142569"><ele>460.66666666666663</ele><time>2026-04-04T13:10:17.876Z</time></trkpt><trkpt lat="45.5227108" lon="11.2143077"><ele>463.8333333333333</ele><time>2026-04-04T13:10:18.869Z</time></trkpt><trkpt lat="45.5227805" lon="11.2143722"><ele>467.0</ele><time>2026-04-04T13:10:19.871Z</time></trkpt><trkpt lat="45.5228461" lon="11.2144669"><ele>466.99999999999994</ele><time>2026-04-04T13:10:20.871Z</time></trkpt><trkpt lat="45.522892" lon="11.2145726"><ele>467.0</ele><time>2026-04-04T13:10:21.871Z</time></trkpt><trkpt lat="45.5229147" lon="11.2146864"><ele>467.0</ele><time>2026-04-04T13:10:22.877Z</time></trkpt><trkpt lat="45.5229016" lon="11.214807"><ele>467.0</ele><time>2026-04-04T13:10:23.876Z</time></trkpt><trkpt lat="45.5228721" lon="11.2149215"><ele>466.99999999999994</ele><time>2026-04-04T13:10:24.873Z</time></trkpt><trkpt lat="45.5228376" lon="11.215044"><ele>467.0</ele><time>2026-04-04T13:10:25.873Z</time></trkpt><trkpt lat="45.5228044" lon="11.2151637"><ele>464.6</ele><time>2026-04-04T13:10:26.862Z</time></trkpt><trkpt lat="45.5227746" lon="11.2152904"><ele>462.20000000000005</ele><time>2026-04-04T13:10:27.864Z</time></trkpt><trkpt lat="45.5227624" lon="11.2154319"><ele>459.8</ele><time>2026-04-04T13:10:28.866Z</time></trkpt><trkpt lat="45.5227544" lon="11.2155892"><ele>457.4</ele><time>2026-04-04T13:10:29.87Z</time></trkpt><trkpt lat="45.5227506" lon="11.2157532"><ele>455.0</ele><time>2026-04-04T13:10:30.871Z</time></trkpt><trkpt lat="45.5227478" lon="11.2159294"><ele>455.0</ele><time>2026-04-04T13:10:31.866Z</time></trkpt><trkpt lat="45.5227466" lon="11.2161022"><ele>455.0</ele><time>2026-04-04T13:10:32.867Z</time></trkpt><trkpt lat="45.5227442" lon="11.2162462"><ele>455.0</ele><time>2026-04-04T13:10:33.865Z</time></trkpt><trkpt lat="45.522736" lon="11.2163703"><ele>455.0</ele><time>2026-04-04T13:10:34.869Z</time></trkpt><trkpt lat="45.5227268" lon="11.2164943"><ele>455.0</ele><time>2026-04-04T13:10:35.873Z</time></trkpt><trkpt lat="45.5227253" lon="11.2166133"><ele>455.49999999999994</ele><time>2026-04-04T13:10:36.869Z</time></trkpt><trkpt lat="45.5227358" lon="11.2167314"><ele>456.0</ele><time>2026-04-04T13:10:37.876Z</time></trkpt><trkpt lat="45.5227615" lon="11.2168436"><ele>456.5</ele><time>2026-04-04T13:10:38.873Z</time></trkpt><trkpt lat="45.522802" lon="11.2169495"><ele>457.0</ele><time>2026-04-04T13:10:39.878Z</time></trkpt><trkpt lat="45.5228517" lon="11.2170577"><ele>457.49999999999994</ele><time>2026-04-04T13:10:40.867Z</time></trkpt><trkpt lat="45.5229131" lon="11.2171759"><ele>458.0</ele><time>2026-04-04T13:10:41.868Z</time></trkpt><trkpt lat="45.5229811" lon="11.2173024"><ele>463.0</ele><time>2026-04-04T13:10:42.884Z</time></trkpt><trkpt lat="45.5230519" lon="11.2174454"><ele>468.0</ele><time>2026-04-04T13:10:43.871Z</time></trkpt><trkpt lat="45.5231313" lon="11.2176053"><ele>473.0</ele><time>2026-04-04T13:10:44.867Z</time></trkpt><trkpt lat="45.5232022" lon="11.2177632"><ele>478.0</ele><time>2026-04-04T13:10:45.878Z</time></trkpt><trkpt lat="45.5232504" lon="11.2179126"><ele>478.0</ele><time>2026-04-04T13:10:46.871Z</time></trkpt><trkpt lat="45.5232756" lon="11.2180663"><ele>477.99999999999994</ele><time>2026-04-04T13:10:47.877Z</time></trkpt><trkpt lat="45.5232871" lon="11.2182273"><ele>477.99999999999994</ele><time>2026-04-04T13:10:48.872Z</time></trkpt><trkpt lat="45.5232941" lon="11.2183877"><ele>478.0</ele><time>2026-04-04T13:10:49.882Z</time></trkpt><trkpt lat="45.5233057" lon="11.2185402"><ele>478.0</ele><time>2026-04-04T13:10:50.885Z</time></trkpt><trkpt lat="45.5233132" lon="11.2186923"><ele>476.2</ele><time>2026-04-04T13:10:51.895Z</time></trkpt><trkpt lat="45.5233315" lon="11.2188431"><ele>474.4</ele><time>2026-04-04T13:10:52.878Z</time></trkpt><trkpt lat="45.523352" lon="11.218979"><ele>472.59999999999997</ele><time>2026-04-04T13:10:53.868Z</time></trkpt><trkpt lat="45.5233751" lon="11.2190991"><ele>470.79999999999995</ele><time>2026-04-04T13:10:54.866Z</time></trkpt><trkpt lat="45.5234128" lon="11.2192005"><ele>469.0</ele><time>2026-04-04T13:10:55.876Z</time></trkpt><trkpt lat="45.523473" lon="11.2192868"><ele>468.33333333333337</ele><time>2026-04-04T13:10:56.866Z</time></trkpt><trkpt lat="45.5235436" lon="11.2193481"><ele>467.6666666666667</ele><time>2026-04-04T13:10:57.872Z</time></trkpt><trkpt lat="45.5236141" lon="11.2193897"><ele>467.0</ele><time>2026-04-04T13:10:58.879Z</time></trkpt><trkpt lat="45.5236879" lon="11.2194245"><ele>466.33333333333337</ele><time>2026-04-04T13:10:59.866Z</time></trkpt><trkpt lat="45.5237641" lon="11.2194499"><ele>465.6666666666667</ele><time>2026-04-04T13:11:00.867Z</time></trkpt><trkpt lat="45.5238459" lon="11.2194437"><ele>465.0</ele><time>2026-04-04T13:11:01.865Z</time></trkpt><trkpt lat="45.5239265" lon="11.2194118"><ele>465.0</ele><time>2026-04-04T13:11:02.868Z</time></trkpt><trkpt lat="45.5240045" lon="11.2193807"><ele>465.0</ele><time>2026-04-04T13:11:03.879Z</time></trkpt><trkpt lat="45.5240772" lon="11.2193471"><ele>465.0</ele><time>2026-04-04T13:11:04.871Z</time></trkpt><trkpt lat="45.5241447" lon="11.2193079"><ele>465.0</ele><time>2026-04-04T13:11:05.877Z</time></trkpt><trkpt lat="45.5242086" lon="11.219269"><ele>465.0</ele><time>2026-04-04T13:11:06.874Z</time></trkpt><trkpt lat="45.5242723" lon="11.2192423"><ele>465.0</ele><time>2026-04-04T13:11:07.877Z</time></trkpt><trkpt lat="45.5243342" lon="11.2192213"><ele>465.0</ele><time>2026-04-04T13:11:08.877Z</time></trkpt><trkpt lat="45.5244465" lon="11.2192292"><ele>465.0</ele><time>2026-04-04T13:11:10.869Z</time></trkpt><trkpt lat="45.5245462" lon="11.2192528"><ele>465.0</ele><time>2026-04-04T13:11:12.871Z</time></trkpt><trkpt lat="45.5246764" lon="11.2191594"><ele>465.0</ele><time>2026-04-04T13:11:14.866Z</time></trkpt><trkpt lat="45.5247625" lon="11.2191183"><ele>465.0</ele><time>2026-04-04T13:11:15.869Z</time></trkpt><trkpt lat="45.5248585" lon="11.2191146"><ele>465.0</ele><time>2026-04-04T13:11:16.874Z</time></trkpt><trkpt lat="45.5249598" lon="11.219116"><ele>465.6</ele><time>2026-04-04T13:11:17.874Z</time></trkpt><trkpt lat="45.5250597" lon="11.219112"><ele>466.2</ele><time>2026-04-04T13:11:18.874Z</time></trkpt><trkpt lat="45.5251611" lon="11.2190958"><ele>466.79999999999995</ele><time>2026-04-04T13:11:19.869Z</time></trkpt><trkpt lat="45.5252659" lon="11.219073"><ele>467.4</ele><time>2026-04-04T13:11:20.881Z</time></trkpt><trkpt lat="45.5253668" lon="11.2190435"><ele>468.0</ele><time>2026-04-04T13:11:21.87Z</time></trkpt><trkpt lat="45.5254661" lon="11.2190076"><ele>470.5</ele><time>2026-04-04T13:11:22.873Z</time></trkpt><trkpt lat="45.525568" lon="11.2189655"><ele>473.0</ele><time>2026-04-04T13:11:23.874Z</time></trkpt><trkpt lat="45.5256664" lon="11.2189214"><ele>475.5</ele><time>2026-04-04T13:11:24.872Z</time></trkpt><trkpt lat="45.5257501" lon="11.2188812"><ele>478.0</ele><time>2026-04-04T13:11:25.876Z</time></trkpt><trkpt lat="45.5258251" lon="11.2188543"><ele>480.5</ele><time>2026-04-04T13:11:26.868Z</time></trkpt><trkpt lat="45.5258909" lon="11.2188313"><ele>483.0</ele><time>2026-04-04T13:11:27.876Z</time></trkpt><trkpt lat="45.5259866" lon="11.2187728"><ele>483.0</ele><time>2026-04-04T13:11:29.883Z</time></trkpt><trkpt lat="45.5260023" lon="11.2186804"><ele>483.0</ele><time>2026-04-04T13:11:30.878Z</time></trkpt><trkpt lat="45.5259942" lon="11.2185815"><ele>483.0</ele><time>2026-04-04T13:11:31.873Z</time></trkpt><trkpt lat="45.5259836" lon="11.2184894"><ele>483.0</ele><time>2026-04-04T13:11:32.877Z</time></trkpt><trkpt lat="45.5259663" lon="11.2183699"><ele>483.0</ele><time>2026-04-04T13:11:33.872Z</time></trkpt><trkpt lat="45.5259208" lon="11.2182792"><ele>483.0</ele><time>2026-04-04T13:11:34.868Z</time></trkpt><trkpt lat="45.5258649" lon="11.2182086"><ele>483.0</ele><time>2026-04-04T13:11:35.875Z</time></trkpt><trkpt lat="45.5258103" lon="11.2181481"><ele>483.1428571428571</ele><time>2026-04-04T13:11:36.876Z</time></trkpt><trkpt lat="45.5257571" lon="11.2180901"><ele>483.2857142857143</ele><time>2026-04-04T13:11:37.884Z</time></trkpt><trkpt lat="45.5256972" lon="11.2180412"><ele>483.42857142857144</ele><time>2026-04-04T13:11:38.87Z</time></trkpt><trkpt lat="45.5256277" lon="11.2180133"><ele>483.57142857142856</ele><time>2026-04-04T13:11:39.876Z</time></trkpt><trkpt lat="45.5255586" lon="11.2180015"><ele>483.71428571428567</ele><time>2026-04-04T13:11:40.886Z</time></trkpt><trkpt lat="45.5254917" lon="11.2179852"><ele>483.85714285714283</ele><time>2026-04-04T13:11:41.869Z</time></trkpt><trkpt lat="45.5254312" lon="11.2179453"><ele>484.0</ele><time>2026-04-04T13:11:42.873Z</time></trkpt><trkpt lat="45.5253808" lon="11.2178885"><ele>487.83333333333337</ele><time>2026-04-04T13:11:43.878Z</time></trkpt><trkpt lat="45.5253387" lon="11.2178213"><ele>491.6666666666667</ele><time>2026-04-04T13:11:44.878Z</time></trkpt><trkpt lat="45.525306" lon="11.2177425"><ele>495.5</ele><time>2026-04-04T13:11:45.872Z</time></trkpt><trkpt lat="45.5252489" lon="11.2175919"><ele>499.33333333333337</ele><time>2026-04-04T13:11:47.874Z</time></trkpt><trkpt lat="45.5252028" lon="11.2175258"><ele>503.1666666666667</ele><time>2026-04-04T13:11:48.877Z</time></trkpt><trkpt lat="45.5251043" lon="11.2174205"><ele>507.0</ele><time>2026-04-04T13:11:50.872Z</time></trkpt><trkpt lat="45.5250372" lon="11.2172771"><ele>509.3333333333333</ele><time>2026-04-04T13:11:52.871Z</time></trkpt><trkpt lat="45.5250239" lon="11.217187"><ele>511.66666666666663</ele><time>2026-04-04T13:11:53.873Z</time></trkpt><trkpt lat="45.5250143" lon="11.2170981"><ele>514.0</ele><time>2026-04-04T13:11:54.877Z</time></trkpt><trkpt lat="45.5250047" lon="11.2170003"><ele>516.3333333333333</ele><time>2026-04-04T13:11:55.876Z</time></trkpt><trkpt lat="45.5249172" lon="11.2169007"><ele>518.6666666666666</ele><time>2026-04-04T13:11:57.868Z</time></trkpt><trkpt lat="45.5247936" lon="11.2169024"><ele>521.0</ele><time>2026-04-04T13:11:59.874Z</time></trkpt><trkpt lat="45.5247272" lon="11.2168767"><ele>521.0</ele><time>2026-04-04T13:12:00.885Z</time></trkpt><trkpt lat="45.5246734" lon="11.2168286"><ele>521.0</ele><time>2026-04-04T13:12:01.869Z</time></trkpt><trkpt lat="45.5246228" lon="11.2167654"><ele>521.0</ele><time>2026-04-04T13:12:02.876Z</time></trkpt><trkpt lat="45.5245761" lon="11.2166793"><ele>521.0</ele><time>2026-04-04T13:12:03.871Z</time></trkpt><trkpt lat="45.524549" lon="11.2165759"><ele>521.0</ele><time>2026-04-04T13:12:04.871Z</time></trkpt><trkpt lat="45.5245479" lon="11.2164529"><ele>521.0</ele><time>2026-04-04T13:12:05.867Z</time></trkpt><trkpt lat="45.5245652" lon="11.2163284"><ele>522.8333333333333</ele><time>2026-04-04T13:12:06.871Z</time></trkpt><trkpt lat="45.5245708" lon="11.2162014"><ele>524.6666666666666</ele><time>2026-04-04T13:12:07.874Z</time></trkpt><trkpt lat="45.524567" lon="11.2160933"><ele>526.5</ele><time>2026-04-04T13:12:08.868Z</time></trkpt><trkpt lat="45.524576" lon="11.2159598"><ele>528.3333333333334</ele><time>2026-04-04T13:12:09.867Z</time></trkpt><trkpt lat="45.5246035" lon="11.2158405"><ele>530.1666666666667</ele><time>2026-04-04T13:12:10.868Z</time></trkpt><trkpt lat="45.5246361" lon="11.2157239"><ele>532.0</ele><time>2026-04-04T13:12:11.877Z</time></trkpt><trkpt lat="45.5246712" lon="11.2156091"><ele>534.8000000000001</ele><time>2026-04-04T13:12:12.875Z</time></trkpt><trkpt lat="45.524699" lon="11.2155007"><ele>537.6</ele><time>2026-04-04T13:12:13.869Z</time></trkpt><trkpt lat="45.5247361" lon="11.2153869"><ele>540.4000000000001</ele><time>2026-04-04T13:12:14.878Z</time></trkpt><trkpt lat="45.524783" lon="11.2152474"><ele>543.2</ele><time>2026-04-04T13:12:15.866Z</time></trkpt><trkpt lat="45.5248316" lon="11.2151063"><ele>546.0</ele><time>2026-04-04T13:12:16.869Z</time></trkpt><trkpt lat="45.5248733" lon="11.2149845"><ele>546.0</ele><time>2026-04-04T13:12:17.876Z</time></trkpt><trkpt lat="45.5249013" lon="11.214858"><ele>546.0</ele><time>2026-04-04T13:12:18.873Z</time></trkpt><trkpt lat="45.5249176" lon="11.2147454"><ele>546.0</ele><time>2026-04-04T13:12:19.87Z</time></trkpt><trkpt lat="45.5249358" lon="11.2146327"><ele>546.0</ele><time>2026-04-04T13:12:20.868Z</time></trkpt><trkpt lat="45.5249534" lon="11.2145129"><ele>546.0</ele><time>2026-04-04T13:12:21.871Z</time></trkpt><trkpt lat="45.5249754" lon="11.2143935"><ele>546.0</ele><time>2026-04-04T13:12:22.868Z</time></trkpt><trkpt lat="45.5249956" lon="11.2142735"><ele>548.0</ele><time>2026-04-04T13:12:23.87Z</time></trkpt><trkpt lat="45.5250098" lon="11.2141491"><ele>550.0</ele><time>2026-04-04T13:12:24.882Z</time></trkpt><trkpt lat="45.5250084" lon="11.214009"><ele>552.0</ele><time>2026-04-04T13:12:25.868Z</time></trkpt><trkpt lat="45.525001" lon="11.213879"><ele>554.0</ele><time>2026-04-04T13:12:26.877Z</time></trkpt><trkpt lat="45.5249957" lon="11.2137501"><ele>556.0</ele><time>2026-04-04T13:12:27.873Z</time></trkpt><trkpt lat="45.5249925" lon="11.2136138"><ele>557.6666666666667</ele><time>2026-04-04T13:12:28.869Z</time></trkpt><trkpt lat="45.5249941" lon="11.2134757"><ele>559.3333333333334</ele><time>2026-04-04T13:12:29.885Z</time></trkpt><trkpt lat="45.5249999" lon="11.2133328"><ele>561.0</ele><time>2026-04-04T13:12:30.867Z</time></trkpt><trkpt lat="45.5250125" lon="11.2132098"><ele>562.6666666666666</ele><time>2026-04-04T13:12:31.879Z</time></trkpt><trkpt lat="45.5250189" lon="11.2130966"><ele>564.3333333333333</ele><time>2026-04-04T13:12:32.875Z</time></trkpt><trkpt lat="45.5250242" lon="11.2129804"><ele>566.0</ele><time>2026-04-04T13:12:33.873Z</time></trkpt><trkpt lat="45.5250328" lon="11.2128464"><ele>567.6666666666666</ele><time>2026-04-04T13:12:34.869Z</time></trkpt><trkpt lat="45.5250413" lon="11.2127253"><ele>569.3333333333333</ele><time>2026-04-04T13:12:35.871Z</time></trkpt><trkpt lat="45.5250408" lon="11.2126254"><ele>571.0</ele><time>2026-04-04T13:12:36.868Z</time></trkpt><trkpt lat="45.5250315" lon="11.2125349"><ele>572.6666666666666</ele><time>2026-04-04T13:12:37.873Z</time></trkpt><trkpt lat="45.5250082" lon="11.2124179"><ele>574.3333333333334</ele><time>2026-04-04T13:12:38.88Z</time></trkpt><trkpt lat="45.5249724" lon="11.2122855"><ele>576.0</ele><time>2026-04-04T13:12:39.869Z</time></trkpt><trkpt lat="45.5249314" lon="11.2121508"><ele>578.6</ele><time>2026-04-04T13:12:40.874Z</time></trkpt><trkpt lat="45.5248953" lon="11.2120384"><ele>581.2</ele><time>2026-04-04T13:12:41.869Z</time></trkpt><trkpt lat="45.5248567" lon="11.2119174"><ele>583.8</ele><time>2026-04-04T13:12:42.88Z</time></trkpt><trkpt lat="45.5248123" lon="11.2117824"><ele>586.4</ele><time>2026-04-04T13:12:43.871Z</time></trkpt><trkpt lat="45.5247642" lon="11.211647"><ele>589.0</ele><time>2026-04-04T13:12:44.867Z</time></trkpt><trkpt lat="45.5247262" lon="11.2115304"><ele>587.6666666666667</ele><time>2026-04-04T13:12:45.87Z</time></trkpt><trkpt lat="45.5246911" lon="11.2114122"><ele>586.3333333333334</ele><time>2026-04-04T13:12:46.872Z</time></trkpt><trkpt lat="45.5246512" lon="11.2113158"><ele>585.0</ele><time>2026-04-04T13:12:47.866Z</time></trkpt><trkpt lat="45.5246091" lon="11.2112214"><ele>583.6666666666666</ele><time>2026-04-04T13:12:48.867Z</time></trkpt><trkpt lat="45.5245509" lon="11.2111282"><ele>582.3333333333333</ele><time>2026-04-04T13:12:49.867Z</time></trkpt><trkpt lat="45.5244819" lon="11.2110402"><ele>581.0</ele><time>2026-04-04T13:12:50.867Z</time></trkpt><trkpt lat="45.5244149" lon="11.2109482"><ele>581.0</ele><time>2026-04-04T13:12:51.869Z</time></trkpt><trkpt lat="45.5243517" lon="11.2108573"><ele>581.0</ele><time>2026-04-04T13:12:52.868Z</time></trkpt><trkpt lat="45.5242984" lon="11.2107916"><ele>581.0</ele><time>2026-04-04T13:12:53.875Z</time></trkpt><trkpt lat="45.5242476" lon="11.2107024"><ele>581.0</ele><time>2026-04-04T13:12:55.878Z</time></trkpt><trkpt lat="45.5242104" lon="11.210626"><ele>581.0</ele><time>2026-04-04T13:12:58.871Z</time></trkpt><trkpt lat="45.5241779" lon="11.2105469"><ele>581.0</ele><time>2026-04-04T13:13:09.864Z</time></trkpt><trkpt lat="45.5240789" lon="11.2104162"><ele>585.6</ele><time>2026-04-04T13:13:11.871Z</time></trkpt><trkpt lat="45.5240086" lon="11.2103142"><ele>590.2</ele><time>2026-04-04T13:13:12.874Z</time></trkpt><trkpt lat="45.5239375" lon="11.2102023"><ele>594.8</ele><time>2026-04-04T13:13:13.874Z</time></trkpt><trkpt lat="45.5238755" lon="11.2101017"><ele>599.4</ele><time>2026-04-04T13:13:14.877Z</time></trkpt><trkpt lat="45.5238119" lon="11.2100023"><ele>604.0</ele><time>2026-04-04T13:13:15.874Z</time></trkpt><trkpt lat="45.5237497" lon="11.2099007"><ele>602.0</ele><time>2026-04-04T13:13:16.875Z</time></trkpt><trkpt lat="45.5236789" lon="11.2097874"><ele>600.0</ele><time>2026-04-04T13:13:17.879Z</time></trkpt><trkpt lat="45.5236125" lon="11.2096796"><ele>598.0</ele><time>2026-04-04T13:13:18.873Z</time></trkpt><trkpt lat="45.5235462" lon="11.209568"><ele>596.0</ele><time>2026-04-04T13:13:19.869Z</time></trkpt><trkpt lat="45.5234829" lon="11.2094541"><ele>594.0</ele><time>2026-04-04T13:13:20.867Z</time></trkpt><trkpt lat="45.5234159" lon="11.209344"><ele>594.0</ele><time>2026-04-04T13:13:21.876Z</time></trkpt><trkpt lat="45.5233444" lon="11.2092633"><ele>594.0</ele><time>2026-04-04T13:13:22.869Z</time></trkpt><trkpt lat="45.5232801" lon="11.209183"><ele>594.0</ele><time>2026-04-04T13:13:23.874Z</time></trkpt><trkpt lat="45.5232211" lon="11.2091031"><ele>594.0</ele><time>2026-04-04T13:13:24.866Z</time></trkpt><trkpt lat="45.5231532" lon="11.2090096"><ele>594.0</ele><time>2026-04-04T13:13:25.873Z</time></trkpt><trkpt lat="45.5230903" lon="11.2089263"><ele>594.0</ele><time>2026-04-04T13:13:26.875Z</time></trkpt><trkpt lat="45.5230289" lon="11.2088425"><ele>597.5</ele><time>2026-04-04T13:13:27.87Z</time></trkpt><trkpt lat="45.5229743" lon="11.2087481"><ele>601.0</ele><time>2026-04-04T13:13:28.867Z</time></trkpt><trkpt lat="45.5229268" lon="11.2086346"><ele>604.5</ele><time>2026-04-04T13:13:29.871Z</time></trkpt><trkpt lat="45.5228802" lon="11.2085282"><ele>608.0</ele><time>2026-04-04T13:13:30.875Z</time></trkpt><trkpt lat="45.5228626" lon="11.2084256"><ele>611.5</ele><time>2026-04-04T13:13:31.868Z</time></trkpt><trkpt lat="45.5228543" lon="11.2083207"><ele>615.0</ele><time>2026-04-04T13:13:32.875Z</time></trkpt><trkpt lat="45.5228754" lon="11.2081919"><ele>614.5</ele><time>2026-04-04T13:13:33.866Z</time></trkpt><trkpt lat="45.5229032" lon="11.2080727"><ele>614.0</ele><time>2026-04-04T13:13:34.868Z</time></trkpt><trkpt lat="45.5229277" lon="11.2079612"><ele>613.5</ele><time>2026-04-04T13:13:35.869Z</time></trkpt><trkpt lat="45.5229525" lon="11.207833"><ele>613.0</ele><time>2026-04-04T13:13:36.865Z</time></trkpt><trkpt lat="45.522967" lon="11.2077087"><ele>612.5</ele><time>2026-04-04T13:13:37.868Z</time></trkpt><trkpt lat="45.5229851" lon="11.2075843"><ele>612.0</ele><time>2026-04-04T13:13:38.865Z</time></trkpt><trkpt lat="45.5230034" lon="11.2074772"><ele>612.0</ele><time>2026-04-04T13:13:39.862Z</time></trkpt><trkpt lat="45.5230389" lon="11.2073315"><ele>612.0</ele><time>2026-04-04T13:13:41.869Z</time></trkpt><trkpt lat="45.5229816" lon="11.2071871"><ele>612.0</ele><time>2026-04-04T13:13:43.868Z</time></trkpt><trkpt lat="45.5229095" lon="11.2071482"><ele>612.0</ele><time>2026-04-04T13:13:44.869Z</time></trkpt><trkpt lat="45.5228261" lon="11.2071294"><ele>612.0</ele><time>2026-04-04T13:13:45.869Z</time></trkpt><trkpt lat="45.5227335" lon="11.207112"><ele>611.6666666666666</ele><time>2026-04-04T13:13:46.882Z</time></trkpt><trkpt lat="45.5226375" lon="11.2070794"><ele>611.3333333333334</ele><time>2026-04-04T13:13:47.873Z</time></trkpt><trkpt lat="45.5225526" lon="11.2070542"><ele>611.0</ele><time>2026-04-04T13:13:48.875Z</time></trkpt><trkpt lat="45.5224724" lon="11.2070158"><ele>610.6666666666667</ele><time>2026-04-04T13:13:49.877Z</time></trkpt><trkpt lat="45.5223953" lon="11.2069823"><ele>610.3333333333334</ele><time>2026-04-04T13:13:50.871Z</time></trkpt><trkpt lat="45.5223354" lon="11.2069528"><ele>610.0</ele><time>2026-04-04T13:13:51.877Z</time></trkpt><trkpt lat="45.5222422" lon="11.2068918"><ele>610.0</ele><time>2026-04-04T13:13:53.879Z</time></trkpt><trkpt lat="45.5222041" lon="11.2068119"><ele>610.0</ele><time>2026-04-04T13:13:54.869Z</time></trkpt><trkpt lat="45.5221816" lon="11.2066952"><ele>610.0</ele><time>2026-04-04T13:13:55.867Z</time></trkpt><trkpt lat="45.5221287" lon="11.2066032"><ele>610.0</ele><time>2026-04-04T13:13:56.868Z</time></trkpt><trkpt lat="45.5220702" lon="11.2065309"><ele>610.0</ele><time>2026-04-04T13:13:57.871Z</time></trkpt><trkpt lat="45.521994" lon="11.2064812"><ele>610.0</ele><time>2026-04-04T13:13:58.88Z</time></trkpt><trkpt lat="45.5219293" lon="11.2064334"><ele>612.1666666666667</ele><time>2026-04-04T13:13:59.863Z</time></trkpt><trkpt lat="45.521866" lon="11.2063669"><ele>614.3333333333334</ele><time>2026-04-04T13:14:00.875Z</time></trkpt><trkpt lat="45.5218069" lon="11.2062946"><ele>616.5</ele><time>2026-04-04T13:14:01.87Z</time></trkpt><trkpt lat="45.5217535" lon="11.206246"><ele>618.6666666666666</ele><time>2026-04-04T13:14:02.874Z</time></trkpt><trkpt lat="45.5216704" lon="11.2062049"><ele>620.8333333333333</ele><time>2026-04-04T13:14:04.867Z</time></trkpt><trkpt lat="45.5216001" lon="11.20621"><ele>623.0</ele><time>2026-04-04T13:14:08.871Z</time></trkpt><trkpt lat="45.5216082" lon="11.2060951"><ele>623.0</ele><time>2026-04-04T13:14:12.877Z</time></trkpt><trkpt lat="45.5216687" lon="11.2060698"><ele>623.0</ele><time>2026-04-04T13:14:13.871Z</time></trkpt><trkpt lat="45.5218157" lon="11.2060826"><ele>623.0</ele><time>2026-04-04T13:14:15.862Z</time></trkpt><trkpt lat="45.5218968" lon="11.2061222"><ele>623.0</ele><time>2026-04-04T13:14:16.863Z</time></trkpt><trkpt lat="45.5219772" lon="11.2061592"><ele>623.0</ele><time>2026-04-04T13:14:17.868Z</time></trkpt><trkpt lat="45.5220619" lon="11.2061877"><ele>624.1999999999999</ele><time>2026-04-04T13:14:18.872Z</time></trkpt><trkpt lat="45.5221451" lon="11.2062312"><ele>625.4</ele><time>2026-04-04T13:14:19.882Z</time></trkpt><trkpt lat="45.5222197" lon="11.2062851"><ele>626.5999999999999</ele><time>2026-04-04T13:14:20.886Z</time></trkpt><trkpt lat="45.5223" lon="11.2063334"><ele>627.8</ele><time>2026-04-04T13:14:21.866Z</time></trkpt><trkpt lat="45.5223928" lon="11.2063863"><ele>629.0</ele><time>2026-04-04T13:14:22.875Z</time></trkpt><trkpt lat="45.5224935" lon="11.2064352"><ele>629.0</ele><time>2026-04-04T13:14:23.872Z</time></trkpt><trkpt lat="45.5225856" lon="11.2064893"><ele>629.0</ele><time>2026-04-04T13:14:24.877Z</time></trkpt><trkpt lat="45.522675" lon="11.2065305"><ele>629.0</ele><time>2026-04-04T13:14:25.875Z</time></trkpt><trkpt lat="45.5227707" lon="11.2065375"><ele>629.0</ele><time>2026-04-04T13:14:26.869Z</time></trkpt><trkpt lat="45.5228698" lon="11.2065063"><ele>629.0</ele><time>2026-04-04T13:14:27.875Z</time></trkpt><trkpt lat="45.5229651" lon="11.2064757"><ele>629.0</ele><time>2026-04-04T13:14:28.866Z</time></trkpt><trkpt lat="45.5230651" lon="11.2064333"><ele>629.0</ele><time>2026-04-04T13:14:29.869Z</time></trkpt><trkpt lat="45.523161" lon="11.2064"><ele>629.0</ele><time>2026-04-04T13:14:30.871Z</time></trkpt><trkpt lat="45.5232504" lon="11.2063643"><ele>629.0</ele><time>2026-04-04T13:14:31.873Z</time></trkpt><trkpt lat="45.523339" lon="11.20632"><ele>629.0</ele><time>2026-04-04T13:14:32.878Z</time></trkpt><trkpt lat="45.5234207" lon="11.2062716"><ele>629.0</ele><time>2026-04-04T13:14:33.877Z</time></trkpt><trkpt lat="45.523503" lon="11.2062101"><ele>629.0</ele><time>2026-04-04T13:14:34.867Z</time></trkpt><trkpt lat="45.5235842" lon="11.2061427"><ele>629.0</ele><time>2026-04-04T13:14:35.866Z</time></trkpt><trkpt lat="45.5236738" lon="11.2060912"><ele>629.0</ele><time>2026-04-04T13:14:36.868Z</time></trkpt><trkpt lat="45.5237725" lon="11.2060561"><ele>629.0</ele><time>2026-04-04T13:14:37.874Z</time></trkpt><trkpt lat="45.523877" lon="11.206027"><ele>629.2</ele><time>2026-04-04T13:14:38.866Z</time></trkpt><trkpt lat="45.523996" lon="11.2060003"><ele>629.4</ele><time>2026-04-04T13:14:39.871Z</time></trkpt><trkpt lat="45.5241073" lon="11.205979"><ele>629.6</ele><time>2026-04-04T13:14:40.875Z</time></trkpt><trkpt lat="45.5242076" lon="11.2059582"><ele>629.8</ele><time>2026-04-04T13:14:41.87Z</time></trkpt><trkpt lat="45.5242986" lon="11.2059525"><ele>630.0</ele><time>2026-04-04T13:14:42.872Z</time></trkpt><trkpt lat="45.5243834" lon="11.2059604"><ele>630.0</ele><time>2026-04-04T13:14:43.878Z</time></trkpt><trkpt lat="45.5244615" lon="11.2059829"><ele>630.0</ele><time>2026-04-04T13:14:44.868Z</time></trkpt><trkpt lat="45.5245361" lon="11.206012"><ele>630.0</ele><time>2026-04-04T13:14:45.872Z</time></trkpt><trkpt lat="45.524607" lon="11.2060428"><ele>630.0</ele><time>2026-04-04T13:14:46.869Z</time></trkpt><trkpt lat="45.5246768" lon="11.2060723"><ele>630.0</ele><time>2026-04-04T13:14:47.878Z</time></trkpt><trkpt lat="45.524751" lon="11.2060957"><ele>630.0</ele><time>2026-04-04T13:14:48.863Z</time></trkpt><trkpt lat="45.524825" lon="11.2061041"><ele>629.8</ele><time>2026-04-04T13:14:49.867Z</time></trkpt><trkpt lat="45.5248911" lon="11.2061052"><ele>629.6</ele><time>2026-04-04T13:14:50.866Z</time></trkpt><trkpt lat="45.5250084" lon="11.2061431"><ele>629.4</ele><time>2026-04-04T13:14:52.875Z</time></trkpt><trkpt lat="45.5251377" lon="11.206141"><ele>629.2</ele><time>2026-04-04T13:14:54.864Z</time></trkpt><trkpt lat="45.5252155" lon="11.2061034"><ele>629.0</ele><time>2026-04-04T13:14:55.867Z</time></trkpt><trkpt lat="45.5252827" lon="11.206071"><ele>629.0</ele><time>2026-04-04T13:14:56.875Z</time></trkpt><trkpt lat="45.5253483" lon="11.2060265"><ele>629.0</ele><time>2026-04-04T13:14:57.867Z</time></trkpt><trkpt lat="45.525423" lon="11.2059637"><ele>629.0</ele><time>2026-04-04T13:14:58.873Z</time></trkpt><trkpt lat="45.5254915" lon="11.205892"><ele>629.0</ele><time>2026-04-04T13:14:59.877Z</time></trkpt><trkpt lat="45.5255472" lon="11.2058355"><ele>629.0</ele><time>2026-04-04T13:15:00.871Z</time></trkpt><trkpt lat="45.5256042" lon="11.2057873"><ele>629.0</ele><time>2026-04-04T13:15:01.874Z</time></trkpt><trkpt lat="45.525666" lon="11.2057503"><ele>629.0</ele><time>2026-04-04T13:15:02.874Z</time></trkpt><trkpt lat="45.5257338" lon="11.2057418"><ele>629.1666666666666</ele><time>2026-04-04T13:15:03.868Z</time></trkpt><trkpt lat="45.5258634" lon="11.2057953"><ele>629.3333333333333</ele><time>2026-04-04T13:15:05.866Z</time></trkpt><trkpt lat="45.5259281" lon="11.2058416"><ele>629.5</ele><time>2026-04-04T13:15:06.867Z</time></trkpt><trkpt lat="45.5260008" lon="11.2058761"><ele>629.6666666666666</ele><time>2026-04-04T13:15:07.869Z</time></trkpt><trkpt lat="45.5260766" lon="11.205914"><ele>629.8333333333334</ele><time>2026-04-04T13:15:08.868Z</time></trkpt><trkpt lat="45.5261485" lon="11.2059534"><ele>630.0</ele><time>2026-04-04T13:15:09.877Z</time></trkpt><trkpt lat="45.5262132" lon="11.2059898"><ele>629.5</ele><time>2026-04-04T13:15:10.878Z</time></trkpt><trkpt lat="45.5262733" lon="11.2060281"><ele>629.0</ele><time>2026-04-04T13:15:11.867Z</time></trkpt><trkpt lat="45.5263329" lon="11.2060757"><ele>628.5</ele><time>2026-04-04T13:15:12.877Z</time></trkpt><trkpt lat="45.5263913" lon="11.2061101"><ele>628.0</ele><time>2026-04-04T13:15:13.876Z</time></trkpt><trkpt lat="45.5265092" lon="11.2061678"><ele>627.5</ele><time>2026-04-04T13:15:15.878Z</time></trkpt><trkpt lat="45.5266264" lon="11.2062053"><ele>627.0</ele><time>2026-04-04T13:15:17.88Z</time></trkpt><trkpt lat="45.5267401" lon="11.2062468"><ele>627.0</ele><time>2026-04-04T13:15:19.867Z</time></trkpt><trkpt lat="45.5268451" lon="11.2063038"><ele>627.0</ele><time>2026-04-04T13:15:21.874Z</time></trkpt><trkpt lat="45.5269583" lon="11.2063667"><ele>627.0</ele><time>2026-04-04T13:15:23.872Z</time></trkpt><trkpt lat="45.5270769" lon="11.2064161"><ele>627.0</ele><time>2026-04-04T13:15:25.875Z</time></trkpt><trkpt lat="45.5271898" lon="11.2064421"><ele>628.0</ele><time>2026-04-04T13:15:27.878Z</time></trkpt><trkpt lat="45.5272882" lon="11.2064643"><ele>629.0</ele><time>2026-04-04T13:15:29.882Z</time></trkpt><trkpt lat="45.5273854" lon="11.2064551"><ele>630.0</ele><time>2026-04-04T13:15:31.881Z</time></trkpt><trkpt lat="45.5274625" lon="11.2064863"><ele>631.0</ele><time>2026-04-04T13:15:33.873Z</time></trkpt><trkpt lat="45.5274689" lon="11.2065945"><ele>632.0</ele><time>2026-04-04T13:15:35.875Z</time></trkpt><trkpt lat="45.5273838" lon="11.2066236"><ele>633.0</ele><time>2026-04-04T13:15:37.874Z</time></trkpt><trkpt lat="45.5272824" lon="11.2066212"><ele>628.6</ele><time>2026-04-04T13:15:39.873Z</time></trkpt><trkpt lat="45.5271779" lon="11.2066153"><ele>624.1999999999999</ele><time>2026-04-04T13:15:41.869Z</time></trkpt><trkpt lat="45.5270647" lon="11.2066143"><ele>619.8</ele><time>2026-04-04T13:15:43.877Z</time></trkpt><trkpt lat="45.5270014" lon="11.2066178"><ele>615.4</ele><time>2026-04-04T13:15:44.875Z</time></trkpt><trkpt lat="45.5268865" lon="11.2066384"><ele>611.0</ele><time>2026-04-04T13:15:46.88Z</time></trkpt><trkpt lat="45.5267772" lon="11.2066529"><ele>610.5</ele><time>2026-04-04T13:15:48.866Z</time></trkpt><trkpt lat="45.5266551" lon="11.2066818"><ele>610.0</ele><time>2026-04-04T13:15:50.866Z</time></trkpt><trkpt lat="45.5265857" lon="11.206696"><ele>609.5</ele><time>2026-04-04T13:15:51.865Z</time></trkpt><trkpt lat="45.5265247" lon="11.2067212"><ele>609.0</ele><time>2026-04-04T13:15:52.869Z</time></trkpt><trkpt lat="45.5264527" lon="11.2067522"><ele>608.5</ele><time>2026-04-04T13:15:53.883Z</time></trkpt><trkpt lat="45.5263901" lon="11.2067853"><ele>608.0</ele><time>2026-04-04T13:15:54.868Z</time></trkpt><trkpt lat="45.5263291" lon="11.2068141"><ele>608.0</ele><time>2026-04-04T13:15:55.877Z</time></trkpt><trkpt lat="45.526237" lon="11.2068599"><ele>608.0</ele><time>2026-04-04T13:15:57.881Z</time></trkpt><trkpt lat="45.5261623" lon="11.2069012"><ele>608.0</ele><time>2026-04-04T13:15:59.875Z</time></trkpt><trkpt lat="45.526116" lon="11.2069821"><ele>608.0</ele><time>2026-04-04T13:16:01.868Z</time></trkpt><trkpt lat="45.5261574" lon="11.2070771"><ele>608.0</ele><time>2026-04-04T13:16:03.872Z</time></trkpt><trkpt lat="45.5262878" lon="11.2070351"><ele>608.0</ele><time>2026-04-04T13:16:05.87Z</time></trkpt><trkpt lat="45.5263739" lon="11.2070122"><ele>608.0</ele><time>2026-04-04T13:16:07.879Z</time></trkpt><trkpt lat="45.5264733" lon="11.2069941"><ele>608.0</ele><time>2026-04-04T13:16:09.874Z</time></trkpt><trkpt lat="45.5265686" lon="11.2070015"><ele>608.0</ele><time>2026-04-04T13:16:11.88Z</time></trkpt><trkpt lat="45.5266766" lon="11.2070181"><ele>608.0</ele><time>2026-04-04T13:16:13.865Z</time></trkpt><trkpt lat="45.5267878" lon="11.2070575"><ele>608.0</ele><time>2026-04-04T13:16:15.866Z</time></trkpt><trkpt lat="45.5268992" lon="11.207099"><ele>608.0</ele><time>2026-04-04T13:16:17.868Z</time></trkpt><trkpt lat="45.5270032" lon="11.2071482"><ele>608.0</ele><time>2026-04-04T13:16:19.874Z</time></trkpt><trkpt lat="45.5271114" lon="11.2072109"><ele>608.0</ele><time>2026-04-04T13:16:21.875Z</time></trkpt><trkpt lat="45.527211" lon="11.2072839"><ele>600.8</ele><time>2026-04-04T13:16:23.87Z</time></trkpt><trkpt lat="45.5273028" lon="11.2073399"><ele>593.5999999999999</ele><time>2026-04-04T13:16:25.877Z</time></trkpt><trkpt lat="45.5273963" lon="11.2074127"><ele>586.4000000000001</ele><time>2026-04-04T13:16:27.88Z</time></trkpt><trkpt lat="45.5274923" lon="11.207487"><ele>579.2</ele><time>2026-04-04T13:16:29.876Z</time></trkpt><trkpt lat="45.5276058" lon="11.2075668"><ele>572.0</ele><time>2026-04-04T13:16:31.877Z</time></trkpt><trkpt lat="45.5276707" lon="11.2076104"><ele>572.0</ele><time>2026-04-04T13:16:32.877Z</time></trkpt><trkpt lat="45.5277908" lon="11.2076623"><ele>572.0</ele><time>2026-04-04T13:16:34.868Z</time></trkpt><trkpt lat="45.5278548" lon="11.2076778"><ele>572.0</ele><time>2026-04-04T13:16:35.871Z</time></trkpt><trkpt lat="45.5279819" lon="11.2076736"><ele>572.0</ele><time>2026-04-04T13:16:37.871Z</time></trkpt><trkpt lat="45.5280543" lon="11.2076366"><ele>572.0</ele><time>2026-04-04T13:16:38.891Z</time></trkpt><trkpt lat="45.5281278" lon="11.2075829"><ele>570.0</ele><time>2026-04-04T13:16:39.875Z</time></trkpt><trkpt lat="45.5281958" lon="11.2075197"><ele>568.0</ele><time>2026-04-04T13:16:40.87Z</time></trkpt><trkpt lat="45.528259" lon="11.2074576"><ele>566.0</ele><time>2026-04-04T13:16:41.872Z</time></trkpt><trkpt lat="45.5283199" lon="11.2073997"><ele>564.0</ele><time>2026-04-04T13:16:42.869Z</time></trkpt><trkpt lat="45.5283815" lon="11.2073442"><ele>562.0</ele><time>2026-04-04T13:16:43.875Z</time></trkpt><trkpt lat="45.5284418" lon="11.2072985"><ele>560.0</ele><time>2026-04-04T13:16:44.874Z</time></trkpt><trkpt lat="45.5285214" lon="11.2072728"><ele>562.8</ele><time>2026-04-04T13:16:45.868Z</time></trkpt><trkpt lat="45.5286087" lon="11.2072455"><ele>565.6</ele><time>2026-04-04T13:16:46.873Z</time></trkpt><trkpt lat="45.5286901" lon="11.2072374"><ele>568.4</ele><time>2026-04-04T13:16:47.87Z</time></trkpt><trkpt lat="45.5287664" lon="11.207234"><ele>571.2</ele><time>2026-04-04T13:16:48.873Z</time></trkpt><trkpt lat="45.528865" lon="11.207234"><ele>574.0</ele><time>2026-04-04T13:16:49.865Z</time></trkpt><trkpt lat="45.5289685" lon="11.2072212"><ele>574.0</ele><time>2026-04-04T13:16:50.869Z</time></trkpt><trkpt lat="45.5290695" lon="11.2071935"><ele>574.0</ele><time>2026-04-04T13:16:51.876Z</time></trkpt><trkpt lat="45.5291618" lon="11.2071651"><ele>574.0</ele><time>2026-04-04T13:16:52.875Z</time></trkpt><trkpt lat="45.5292516" lon="11.2071218"><ele>574.0</ele><time>2026-04-04T13:16:53.87Z</time></trkpt><trkpt lat="45.5293347" lon="11.2070741"><ele>574.0</ele><time>2026-04-04T13:16:54.864Z</time></trkpt><trkpt lat="45.5294139" lon="11.2070219"><ele>574.0</ele><time>2026-04-04T13:16:55.873Z</time></trkpt><trkpt lat="45.5294921" lon="11.2069753"><ele>574.0</ele><time>2026-04-04T13:16:56.866Z</time></trkpt><trkpt lat="45.5295691" lon="11.206934"><ele>574.0</ele><time>2026-04-04T13:16:57.871Z</time></trkpt><trkpt lat="45.5296489" lon="11.2068938"><ele>574.0</ele><time>2026-04-04T13:16:58.873Z</time></trkpt><trkpt lat="45.529733" lon="11.2068472"><ele>574.0</ele><time>2026-04-04T13:16:59.873Z</time></trkpt><trkpt lat="45.5298135" lon="11.2067892"><ele>574.0</ele><time>2026-04-04T13:17:00.877Z</time></trkpt><trkpt lat="45.5298896" lon="11.206731"><ele>576.8</ele><time>2026-04-04T13:17:01.871Z</time></trkpt><trkpt lat="45.5299578" lon="11.2066721"><ele>579.5999999999999</ele><time>2026-04-04T13:17:02.877Z</time></trkpt><trkpt lat="45.5300253" lon="11.2066069"><ele>582.4</ele><time>2026-04-04T13:17:03.868Z</time></trkpt><trkpt lat="45.5300866" lon="11.2065483"><ele>585.1999999999999</ele><time>2026-04-04T13:17:04.874Z</time></trkpt><trkpt lat="45.5301957" lon="11.206477"><ele>588.0</ele><time>2026-04-04T13:17:06.878Z</time></trkpt><trkpt lat="45.5302911" lon="11.2064933"><ele>581.1666666666666</ele><time>2026-04-04T13:17:08.884Z</time></trkpt><trkpt lat="45.530337" lon="11.2065762"><ele>574.3333333333334</ele><time>2026-04-04T13:17:09.874Z</time></trkpt><trkpt lat="45.5303426" lon="11.2066689"><ele>567.5</ele><time>2026-04-04T13:17:10.875Z</time></trkpt><trkpt lat="45.5303449" lon="11.2067919"><ele>560.6666666666667</ele><time>2026-04-04T13:17:11.878Z</time></trkpt><trkpt lat="45.5303538" lon="11.2069058"><ele>553.8333333333334</ele><time>2026-04-04T13:17:12.863Z</time></trkpt><trkpt lat="45.5303624" lon="11.2070353"><ele>547.0</ele><time>2026-04-04T13:17:13.869Z</time></trkpt><trkpt lat="45.5303868" lon="11.2071539"><ele>545.4</ele><time>2026-04-04T13:17:14.873Z</time></trkpt><trkpt lat="45.5304173" lon="11.2072788"><ele>543.8000000000001</ele><time>2026-04-04T13:17:15.872Z</time></trkpt><trkpt lat="45.530452" lon="11.2074087"><ele>542.2</ele><time>2026-04-04T13:17:16.867Z</time></trkpt><trkpt lat="45.5304864" lon="11.2075391"><ele>540.6</ele><time>2026-04-04T13:17:17.883Z</time></trkpt><trkpt lat="45.5305148" lon="11.2076865"><ele>539.0</ele><time>2026-04-04T13:17:18.876Z</time></trkpt><trkpt lat="45.5305437" lon="11.207828"><ele>539.0</ele><time>2026-04-04T13:17:19.881Z</time></trkpt><trkpt lat="45.5305659" lon="11.2079505"><ele>539.0</ele><time>2026-04-04T13:17:20.867Z</time></trkpt><trkpt lat="45.5305984" lon="11.2080769"><ele>539.0</ele><time>2026-04-04T13:17:21.872Z</time></trkpt><trkpt lat="45.5306277" lon="11.2082051"><ele>539.0</ele><time>2026-04-04T13:17:22.876Z</time></trkpt><trkpt lat="45.5306628" lon="11.20832"><ele>539.0</ele><time>2026-04-04T13:17:23.872Z</time></trkpt><trkpt lat="45.5307097" lon="11.208417"><ele>539.0</ele><time>2026-04-04T13:17:24.875Z</time></trkpt><trkpt lat="45.5307625" lon="11.2084915"><ele>537.0</ele><time>2026-04-04T13:17:25.87Z</time></trkpt><trkpt lat="45.5308422" lon="11.2085511"><ele>535.0</ele><time>2026-04-04T13:17:26.877Z</time></trkpt><trkpt lat="45.5309238" lon="11.2085654"><ele>533.0</ele><time>2026-04-04T13:17:27.869Z</time></trkpt><trkpt lat="45.5310058" lon="11.208561"><ele>531.0</ele><time>2026-04-04T13:17:28.879Z</time></trkpt><trkpt lat="45.5310851" lon="11.2085735"><ele>529.0</ele><time>2026-04-04T13:17:29.882Z</time></trkpt><trkpt lat="45.5311522" lon="11.2086118"><ele>527.0</ele><time>2026-04-04T13:17:30.873Z</time></trkpt><trkpt lat="45.5312029" lon="11.2086859"><ele>529.6666666666666</ele><time>2026-04-04T13:17:31.872Z</time></trkpt><trkpt lat="45.5312327" lon="11.2087844"><ele>532.3333333333333</ele><time>2026-04-04T13:17:32.883Z</time></trkpt><trkpt lat="45.53124" lon="11.2089043"><ele>535.0</ele><time>2026-04-04T13:17:33.864Z</time></trkpt><trkpt lat="45.5312444" lon="11.2090309"><ele>537.6666666666666</ele><time>2026-04-04T13:17:34.869Z</time></trkpt><trkpt lat="45.5312493" lon="11.2091631"><ele>540.3333333333334</ele><time>2026-04-04T13:17:35.879Z</time></trkpt><trkpt lat="45.5312646" lon="11.2093006"><ele>543.0</ele><time>2026-04-04T13:17:36.874Z</time></trkpt><trkpt lat="45.5312948" lon="11.2094379"><ele>543.0</ele><time>2026-04-04T13:17:37.882Z</time></trkpt><trkpt lat="45.5313402" lon="11.209569"><ele>543.0</ele><time>2026-04-04T13:17:38.871Z</time></trkpt><trkpt lat="45.5313912" lon="11.2096968"><ele>543.0</ele><time>2026-04-04T13:17:39.878Z</time></trkpt><trkpt lat="45.5314366" lon="11.2098335"><ele>543.0</ele><time>2026-04-04T13:17:40.874Z</time></trkpt><trkpt lat="45.5314644" lon="11.2099743"><ele>543.0</ele><time>2026-04-04T13:17:41.864Z</time></trkpt><trkpt lat="45.5314827" lon="11.2101173"><ele>542.6</ele><time>2026-04-04T13:17:42.872Z</time></trkpt><trkpt lat="45.5314981" lon="11.2102597"><ele>542.1999999999999</ele><time>2026-04-04T13:17:43.876Z</time></trkpt><trkpt lat="45.5315077" lon="11.2104006"><ele>541.8</ele><time>2026-04-04T13:17:44.869Z</time></trkpt><trkpt lat="45.5315058" lon="11.2105486"><ele>541.4</ele><time>2026-04-04T13:17:45.87Z</time></trkpt><trkpt lat="45.5314918" lon="11.2107031"><ele>541.0</ele><time>2026-04-04T13:17:46.877Z</time></trkpt><trkpt lat="45.5314752" lon="11.2108599"><ele>540.75</ele><time>2026-04-04T13:17:47.891Z</time></trkpt><trkpt lat="45.5314651" lon="11.2110236"><ele>540.5</ele><time>2026-04-04T13:17:48.878Z</time></trkpt><trkpt lat="45.5314614" lon="11.2111843"><ele>540.25</ele><time>2026-04-04T13:17:49.869Z</time></trkpt><trkpt lat="45.5314734" lon="11.2113572"><ele>540.0</ele><time>2026-04-04T13:17:50.869Z</time></trkpt><trkpt lat="45.5315148" lon="11.2115273"><ele>537.4</ele><time>2026-04-04T13:17:51.876Z</time></trkpt><trkpt lat="45.5315669" lon="11.2116729"><ele>534.8</ele><time>2026-04-04T13:17:52.875Z</time></trkpt><trkpt lat="45.5316299" lon="11.211808"><ele>532.2</ele><time>2026-04-04T13:17:53.878Z</time></trkpt><trkpt lat="45.5316869" lon="11.2119346"><ele>529.6</ele><time>2026-04-04T13:17:54.871Z</time></trkpt><trkpt lat="45.5317451" lon="11.2120635"><ele>527.0</ele><time>2026-04-04T13:17:55.869Z</time></trkpt><trkpt lat="45.531798" lon="11.2121914"><ele>527.0</ele><time>2026-04-04T13:17:56.875Z</time></trkpt><trkpt lat="45.5318528" lon="11.2123132"><ele>527.0</ele><time>2026-04-04T13:17:57.871Z</time></trkpt><trkpt lat="45.5319057" lon="11.2124316"><ele>527.0</ele><time>2026-04-04T13:17:58.877Z</time></trkpt><trkpt lat="45.5319629" lon="11.2125245"><ele>527.0</ele><time>2026-04-04T13:17:59.872Z</time></trkpt><trkpt lat="45.532021" lon="11.2125905"><ele>527.0</ele><time>2026-04-04T13:18:00.866Z</time></trkpt><trkpt lat="45.5320885" lon="11.2126375"><ele>527.0</ele><time>2026-04-04T13:18:01.869Z</time></trkpt><trkpt lat="45.5321733" lon="11.2126746"><ele>527.75</ele><time>2026-04-04T13:18:02.876Z</time></trkpt><trkpt lat="45.5322787" lon="11.2127142"><ele>528.5</ele><time>2026-04-04T13:18:03.871Z</time></trkpt><trkpt lat="45.532405" lon="11.2127543"><ele>529.25</ele><time>2026-04-04T13:18:04.87Z</time></trkpt><trkpt lat="45.5325366" lon="11.2127958"><ele>530.0</ele><time>2026-04-04T13:18:05.874Z</time></trkpt><trkpt lat="45.532656" lon="11.2128327"><ele>530.0</ele><time>2026-04-04T13:18:06.866Z</time></trkpt><trkpt lat="45.5327709" lon="11.2128704"><ele>530.0</ele><time>2026-04-04T13:18:07.877Z</time></trkpt><trkpt lat="45.5328905" lon="11.2129123"><ele>530.0</ele><time>2026-04-04T13:18:08.868Z</time></trkpt><trkpt lat="45.5330147" lon="11.2129511"><ele>530.0</ele><time>2026-04-04T13:18:09.867Z</time></trkpt><trkpt lat="45.5331367" lon="11.2129903"><ele>531.25</ele><time>2026-04-04T13:18:10.869Z</time></trkpt><trkpt lat="45.5332773" lon="11.2130361"><ele>532.5</ele><time>2026-04-04T13:18:11.874Z</time></trkpt><trkpt lat="45.5334121" lon="11.2130676"><ele>533.75</ele><time>2026-04-04T13:18:12.861Z</time></trkpt><trkpt lat="45.5335329" lon="11.2130821"><ele>535.0</ele><time>2026-04-04T13:18:13.871Z</time></trkpt><trkpt lat="45.5336468" lon="11.2130868"><ele>533.25</ele><time>2026-04-04T13:18:14.866Z</time></trkpt><trkpt lat="45.5337576" lon="11.2130922"><ele>531.5</ele><time>2026-04-04T13:18:15.863Z</time></trkpt><trkpt lat="45.5338603" lon="11.2130888"><ele>529.75</ele><time>2026-04-04T13:18:16.862Z</time></trkpt><trkpt lat="45.5339694" lon="11.2130844"><ele>528.0</ele><time>2026-04-04T13:18:17.874Z</time></trkpt><trkpt lat="45.5341018" lon="11.2130808"><ele>528.0</ele><time>2026-04-04T13:18:18.877Z</time></trkpt><trkpt lat="45.534238" lon="11.2130847"><ele>528.0</ele><time>2026-04-04T13:18:19.871Z</time></trkpt><trkpt lat="45.5343648" lon="11.213111"><ele>528.0</ele><time>2026-04-04T13:18:20.878Z</time></trkpt><trkpt lat="45.5344792" lon="11.2131503"><ele>528.0</ele><time>2026-04-04T13:18:21.872Z</time></trkpt><trkpt lat="45.5345853" lon="11.2132003"><ele>523.8</ele><time>2026-04-04T13:18:22.868Z</time></trkpt><trkpt lat="45.5346786" lon="11.213273"><ele>519.5999999999999</ele><time>2026-04-04T13:18:23.877Z</time></trkpt><trkpt lat="45.5347772" lon="11.2133352"><ele>515.4000000000001</ele><time>2026-04-04T13:18:24.872Z</time></trkpt><trkpt lat="45.5348794" lon="11.2133861"><ele>511.20000000000005</ele><time>2026-04-04T13:18:25.878Z</time></trkpt><trkpt lat="45.5349991" lon="11.2134211"><ele>507.0</ele><time>2026-04-04T13:18:26.876Z</time></trkpt><trkpt lat="45.5351397" lon="11.2134348"><ele>507.0</ele><time>2026-04-04T13:18:27.866Z</time></trkpt><trkpt lat="45.5352704" lon="11.213434"><ele>507.0</ele><time>2026-04-04T13:18:28.87Z</time></trkpt><trkpt lat="45.5353956" lon="11.2134375"><ele>507.0</ele><time>2026-04-04T13:18:29.873Z</time></trkpt><trkpt lat="45.5355093" lon="11.2134368"><ele>507.0</ele><time>2026-04-04T13:18:30.87Z</time></trkpt><trkpt lat="45.5356147" lon="11.2134439"><ele>506.8</ele><time>2026-04-04T13:18:31.878Z</time></trkpt><trkpt lat="45.5357141" lon="11.2134473"><ele>506.6</ele><time>2026-04-04T13:18:32.871Z</time></trkpt><trkpt lat="45.5358048" lon="11.2134428"><ele>506.40000000000003</ele><time>2026-04-04T13:18:33.874Z</time></trkpt><trkpt lat="45.5358837" lon="11.213429"><ele>506.20000000000005</ele><time>2026-04-04T13:18:34.873Z</time></trkpt><trkpt lat="45.5359546" lon="11.2134058"><ele>506.0</ele><time>2026-04-04T13:18:35.872Z</time></trkpt><trkpt lat="45.5360523" lon="11.2133336"><ele>506.00000000000006</ele><time>2026-04-04T13:18:37.873Z</time></trkpt><trkpt lat="45.5361115" lon="11.2132937"><ele>506.0</ele><time>2026-04-04T13:18:39.869Z</time></trkpt><trkpt lat="45.536159" lon="11.2133753"><ele>506.00000000000006</ele><time>2026-04-04T13:18:41.873Z</time></trkpt><trkpt lat="45.5361513" lon="11.2134819"><ele>506.00000000000006</ele><time>2026-04-04T13:18:42.879Z</time></trkpt><trkpt lat="45.5361334" lon="11.2135905"><ele>506.0</ele><time>2026-04-04T13:18:43.87Z</time></trkpt><trkpt lat="45.5361109" lon="11.2136949"><ele>506.00000000000006</ele><time>2026-04-04T13:18:44.874Z</time></trkpt><trkpt lat="45.5360938" lon="11.2137939"><ele>506.00000000000006</ele><time>2026-04-04T13:18:45.873Z</time></trkpt><trkpt lat="45.5360782" lon="11.2138937"><ele>503.66666666666663</ele><time>2026-04-04T13:18:46.882Z</time></trkpt><trkpt lat="45.5360689" lon="11.2139936"><ele>501.3333333333333</ele><time>2026-04-04T13:18:47.877Z</time></trkpt><trkpt lat="45.536062" lon="11.2140864"><ele>499.0</ele><time>2026-04-04T13:18:48.879Z</time></trkpt><trkpt lat="45.5360638" lon="11.2141792"><ele>496.66666666666663</ele><time>2026-04-04T13:18:49.87Z</time></trkpt><trkpt lat="45.5360667" lon="11.21427"><ele>494.3333333333333</ele><time>2026-04-04T13:18:50.874Z</time></trkpt><trkpt lat="45.5360932" lon="11.2144384"><ele>492.0</ele><time>2026-04-04T13:18:52.882Z</time></trkpt><trkpt lat="45.5361712" lon="11.2145766"><ele>492.00000000000006</ele><time>2026-04-04T13:18:54.883Z</time></trkpt><trkpt lat="45.5362302" lon="11.2146353"><ele>492.0</ele><time>2026-04-04T13:18:55.871Z</time></trkpt><trkpt lat="45.536242" lon="11.2147541"><ele>492.00000000000006</ele><time>2026-04-04T13:18:56.874Z</time></trkpt><trkpt lat="45.5362336" lon="11.2148623"><ele>492.00000000000006</ele><time>2026-04-04T13:18:57.874Z</time></trkpt><trkpt lat="45.5362186" lon="11.2149533"><ele>492.0</ele><time>2026-04-04T13:18:58.87Z</time></trkpt><trkpt lat="45.5361886" lon="11.215062"><ele>492.00000000000006</ele><time>2026-04-04T13:18:59.879Z</time></trkpt><trkpt lat="45.536157" lon="11.2151457"><ele>492.00000000000006</ele><time>2026-04-04T13:19:00.862Z</time></trkpt><trkpt lat="45.5361001" lon="11.215265"><ele>492.0</ele><time>2026-04-04T13:19:02.87Z</time></trkpt><trkpt lat="45.5360221" lon="11.2153512"><ele>492.00000000000006</ele><time>2026-04-04T13:21:21.871Z</time></trkpt><trkpt lat="45.5359192" lon="11.2154377"><ele>492.00000000000006</ele><time>2026-04-04T13:21:23.871Z</time></trkpt><trkpt lat="45.5358476" lon="11.2154881"><ele>492.0</ele><time>2026-04-04T13:21:25.876Z</time></trkpt><trkpt lat="45.5358136" lon="11.2156527"><ele>492.0</ele><time>2026-04-04T13:21:27.876Z</time></trkpt><trkpt lat="45.5358332" lon="11.2157486"><ele>492.6666666666667</ele><time>2026-04-04T13:21:28.863Z</time></trkpt><trkpt lat="45.5358573" lon="11.2158341"><ele>493.33333333333337</ele><time>2026-04-04T13:21:29.867Z</time></trkpt><trkpt lat="45.5359119" lon="11.2160109"><ele>494.0</ele><time>2026-04-04T13:21:31.867Z</time></trkpt><trkpt lat="45.5359277" lon="11.2161172"><ele>494.6666666666667</ele><time>2026-04-04T13:21:32.867Z</time></trkpt><trkpt lat="45.5359466" lon="11.2162084"><ele>495.33333333333337</ele><time>2026-04-04T13:21:33.863Z</time></trkpt><trkpt lat="45.5359633" lon="11.2163121"><ele>496.0</ele><time>2026-04-04T13:21:34.866Z</time></trkpt><trkpt lat="45.5359895" lon="11.2163964"><ele>496.20000000000005</ele><time>2026-04-04T13:21:35.869Z</time></trkpt><trkpt lat="45.5360485" lon="11.2165343"><ele>496.40000000000003</ele><time>2026-04-04T13:21:37.867Z</time></trkpt><trkpt lat="45.5361101" lon="11.2166636"><ele>496.6</ele><time>2026-04-04T13:21:39.866Z</time></trkpt><trkpt lat="45.5361513" lon="11.2167367"><ele>496.8</ele><time>2026-04-04T13:21:40.875Z</time></trkpt><trkpt lat="45.5362131" lon="11.2168507"><ele>497.0</ele><time>2026-04-04T13:21:42.874Z</time></trkpt><trkpt lat="45.5362974" lon="11.2169126"><ele>496.99999999999994</ele><time>2026-04-04T13:21:44.869Z</time></trkpt><trkpt lat="45.5363929" lon="11.216893"><ele>497.0</ele><time>2026-04-04T13:21:46.868Z</time></trkpt><trkpt lat="45.5364757" lon="11.2168608"><ele>497.0</ele><time>2026-04-04T13:21:49.865Z</time></trkpt><trkpt lat="45.5365045" lon="11.2169501"><ele>497.0</ele><time>2026-04-04T13:21:51.864Z</time></trkpt><trkpt lat="45.5365342" lon="11.2170629"><ele>496.99999999999994</ele><time>2026-04-04T13:21:53.859Z</time></trkpt><trkpt lat="45.5365406" lon="11.217189"><ele>497.0</ele><time>2026-04-04T13:21:54.881Z</time></trkpt><trkpt lat="45.5365524" lon="11.2173064"><ele>496.99999999999994</ele><time>2026-04-04T13:21:55.868Z</time></trkpt><trkpt lat="45.5365562" lon="11.217408"><ele>497.0</ele><time>2026-04-04T13:21:56.868Z</time></trkpt><trkpt lat="45.536563" lon="11.2175484"><ele>497.0</ele><time>2026-04-04T13:21:58.873Z</time></trkpt><trkpt lat="45.5366081" lon="11.2176629"><ele>497.0</ele><time>2026-04-04T13:22:00.864Z</time></trkpt><trkpt lat="45.5366815" lon="11.2176532"><ele>496.99999999999994</ele><time>2026-04-04T13:22:01.864Z</time></trkpt><trkpt lat="45.5367445" lon="11.2176341"><ele>497.0</ele><time>2026-04-04T13:22:02.881Z</time></trkpt><trkpt lat="45.5367952" lon="11.2175755"><ele>497.0</ele><time>2026-04-04T13:22:03.865Z</time></trkpt><trkpt lat="45.5368479" lon="11.2175052"><ele>497.0</ele><time>2026-04-04T13:22:05.866Z</time></trkpt><trkpt lat="45.536907" lon="11.2175596"><ele>497.0</ele><time>2026-04-04T13:24:21.864Z</time></trkpt><trkpt lat="45.5369557" lon="11.2176215"><ele>497.0</ele><time>2026-04-04T13:24:34.87Z</time></trkpt><trkpt lat="45.5370057" lon="11.2176797"><ele>497.0</ele><time>2026-04-04T13:24:43.875Z</time></trkpt><trkpt lat="45.5370512" lon="11.2177431"><ele>497.0</ele><time>2026-04-04T13:25:00.878Z</time></trkpt><trkpt lat="45.5370918" lon="11.2178146"><ele>497.0</ele><time>2026-04-04T13:25:08.868Z</time></trkpt><trkpt lat="45.5371209" lon="11.2179021"><ele>496.57142857142856</ele><time>2026-04-04T13:25:18.868Z</time></trkpt><trkpt lat="45.5371725" lon="11.2179614"><ele>496.1428571428571</ele><time>2026-04-04T13:25:27.869Z</time></trkpt><trkpt lat="45.5372046" lon="11.2180407"><ele>495.7142857142857</ele><time>2026-04-04T13:25:34.867Z</time></trkpt><trkpt lat="45.5372417" lon="11.218137"><ele>495.2857142857143</ele><time>2026-04-04T13:25:41.873Z</time></trkpt><trkpt lat="45.5372846" lon="11.2182076"><ele>494.85714285714283</ele><time>2026-04-04T13:25:48.865Z</time></trkpt><trkpt lat="45.537323" lon="11.2182808"><ele>494.42857142857144</ele><time>2026-04-04T13:25:58.871Z</time></trkpt><trkpt lat="45.5373554" lon="11.2183673"><ele>494.0</ele><time>2026-04-04T13:26:04.866Z</time></trkpt><trkpt lat="45.5373719" lon="11.2184588"><ele>494.0</ele><time>2026-04-04T13:26:12.876Z</time></trkpt><trkpt lat="45.5374195" lon="11.2185226"><ele>494.0</ele><time>2026-04-04T13:26:24.86Z</time></trkpt><trkpt lat="45.5374522" lon="11.2186077"><ele>494.0</ele><time>2026-04-04T13:26:30.853Z</time></trkpt><trkpt lat="45.5374743" lon="11.2186946"><ele>494.0</ele><time>2026-04-04T13:26:37.885Z</time></trkpt><trkpt lat="45.5374718" lon="11.218791"><ele>494.0</ele><time>2026-04-04T13:26:47.777Z</time></trkpt><trkpt lat="45.5374331" lon="11.2188683"><ele>494.0</ele><time>2026-04-04T13:26:55.866Z</time></trkpt><trkpt lat="45.5373821" lon="11.2189244"><ele>494.0</ele><time>2026-04-04T13:27:02.871Z</time></trkpt><trkpt lat="45.5373158" lon="11.2189614"><ele>494.0</ele><time>2026-04-04T13:27:09.864Z</time></trkpt><trkpt lat="45.5372567" lon="11.2190081"><ele>488.0</ele><time>2026-04-04T13:27:18.86Z</time></trkpt></trkseg><trkseg><trkpt lat="45.5371452" lon="11.2158396"><ele>486.0</ele><time>2026-04-04T13:56:09.855Z</time></trkpt><trkpt lat="45.5370665" lon="11.215838"><ele>486.0</ele><time>2026-04-04T13:56:40.87Z</time></trkpt><trkpt lat="45.5369944" lon="11.2158652"><ele>486.0</ele><time>2026-04-04T13:56:42.865Z</time></trkpt><trkpt lat="45.536945" lon="11.2159862"><ele>486.0</ele><time>2026-04-04T13:56:43.861Z</time></trkpt><trkpt lat="45.536906" lon="11.2161068"><ele>486.0</ele><time>2026-04-04T13:56:44.865Z</time></trkpt><trkpt lat="45.5368775" lon="11.2161938"><ele>486.0</ele><time>2026-04-04T13:56:45.858Z</time></trkpt><trkpt lat="45.5368464" lon="11.2162823"><ele>487.8333333333333</ele><time>2026-04-04T13:56:47.862Z</time></trkpt><trkpt lat="45.5368213" lon="11.2163741"><ele>489.66666666666663</ele><time>2026-04-04T13:56:49.866Z</time></trkpt><trkpt lat="45.5368134" lon="11.2164664"><ele>491.5</ele><time>2026-04-04T13:56:51.87Z</time></trkpt><trkpt lat="45.536836" lon="11.2165724"><ele>493.3333333333333</ele><time>2026-04-04T13:56:55.849Z</time></trkpt><trkpt lat="45.5368335" lon="11.2166843"><ele>495.16666666666663</ele><time>2026-04-04T13:56:57.864Z</time></trkpt><trkpt lat="45.5367773" lon="11.2167872"><ele>497.0</ele><time>2026-04-04T13:56:59.867Z</time></trkpt><trkpt lat="45.5366825" lon="11.2168264"><ele>496.99999999999994</ele><time>2026-04-04T13:57:01.862Z</time></trkpt><trkpt lat="45.5366082" lon="11.2168487"><ele>497.0</ele><time>2026-04-04T13:57:03.866Z</time></trkpt><trkpt lat="45.5365379" lon="11.2168744"><ele>497.0</ele><time>2026-04-04T13:57:05.863Z</time></trkpt><trkpt lat="45.5364661" lon="11.2169147"><ele>497.0</ele><time>2026-04-04T13:57:07.866Z</time></trkpt><trkpt lat="45.5363484" lon="11.2169193"><ele>496.99999999999994</ele><time>2026-04-04T13:57:09.879Z</time></trkpt><trkpt lat="45.5362822" lon="11.2168991"><ele>497.0</ele><time>2026-04-04T13:57:10.867Z</time></trkpt><trkpt lat="45.5362259" lon="11.2168555"><ele>496.8</ele><time>2026-04-04T13:57:11.863Z</time></trkpt><trkpt lat="45.5361564" lon="11.2167309"><ele>496.6</ele><time>2026-04-04T13:57:13.872Z</time></trkpt><trkpt lat="45.5360985" lon="11.2166167"><ele>496.40000000000003</ele><time>2026-04-04T13:57:15.858Z</time></trkpt><trkpt lat="45.5360451" lon="11.2165246"><ele>496.20000000000005</ele><time>2026-04-04T13:57:17.863Z</time></trkpt><trkpt lat="45.5359963" lon="11.2164158"><ele>496.0</ele><time>2026-04-04T13:57:19.874Z</time></trkpt><trkpt lat="45.5359556" lon="11.2162957"><ele>496.0</ele><time>2026-04-04T13:57:21.862Z</time></trkpt><trkpt lat="45.5359307" lon="11.2161281"><ele>496.0</ele><time>2026-04-04T13:57:23.865Z</time></trkpt><trkpt lat="45.5358925" lon="11.2160484"><ele>496.0</ele><time>2026-04-04T13:57:24.867Z</time></trkpt><trkpt lat="45.5358378" lon="11.2159942"><ele>496.0</ele><time>2026-04-04T13:57:25.865Z</time></trkpt><trkpt lat="45.5358252" lon="11.2158314"><ele>496.0</ele><time>2026-04-04T13:57:27.866Z</time></trkpt><trkpt lat="45.5357906" lon="11.2156857"><ele>495.33333333333337</ele><time>2026-04-04T13:57:29.873Z</time></trkpt><trkpt lat="45.5357916" lon="11.2155702"><ele>494.6666666666667</ele><time>2026-04-04T13:57:31.865Z</time></trkpt><trkpt lat="45.535834" lon="11.215487"><ele>494.0</ele><time>2026-04-04T13:57:33.864Z</time></trkpt><trkpt lat="45.5358958" lon="11.215439"><ele>493.33333333333337</ele><time>2026-04-04T13:57:35.861Z</time></trkpt><trkpt lat="45.5359509" lon="11.2153853"><ele>492.6666666666667</ele><time>2026-04-04T13:57:37.857Z</time></trkpt><trkpt lat="45.5360154" lon="11.2153321"><ele>492.0</ele><time>2026-04-04T13:57:39.866Z</time></trkpt><trkpt lat="45.5360955" lon="11.2152517"><ele>492.0</ele><time>2026-04-04T13:57:41.861Z</time></trkpt><trkpt lat="45.536138" lon="11.2151761"><ele>492.0</ele><time>2026-04-04T13:57:42.861Z</time></trkpt><trkpt lat="45.5361799" lon="11.215077"><ele>492.0</ele><time>2026-04-04T13:57:43.867Z</time></trkpt><trkpt lat="45.5362095" lon="11.2149777"><ele>492.0</ele><time>2026-04-04T13:57:44.861Z</time></trkpt><trkpt lat="45.5362272" lon="11.2148824"><ele>492.0</ele><time>2026-04-04T13:57:45.859Z</time></trkpt><trkpt lat="45.5362365" lon="11.2147184"><ele>492.0</ele><time>2026-04-04T13:57:47.862Z</time></trkpt><trkpt lat="45.5362036" lon="11.2145935"><ele>492.0</ele><time>2026-04-04T13:57:49.878Z</time></trkpt><trkpt lat="45.5361293" lon="11.2145151"><ele>492.0</ele><time>2026-04-04T13:57:51.868Z</time></trkpt><trkpt lat="45.5360827" lon="11.2144132"><ele>492.0</ele><time>2026-04-04T13:57:53.861Z</time></trkpt><trkpt lat="45.5360648" lon="11.2142601"><ele>492.0</ele><time>2026-04-04T13:57:55.864Z</time></trkpt><trkpt lat="45.5360578" lon="11.2141604"><ele>492.0</ele><time>2026-04-04T13:57:56.866Z</time></trkpt><trkpt lat="45.5360587" lon="11.2140446"><ele>492.0</ele><time>2026-04-04T13:57:57.863Z</time></trkpt><trkpt lat="45.5360724" lon="11.2139285"><ele>491.8333333333333</ele><time>2026-04-04T13:57:58.865Z</time></trkpt><trkpt lat="45.5360913" lon="11.2138124"><ele>491.66666666666663</ele><time>2026-04-04T13:57:59.862Z</time></trkpt><trkpt lat="45.5361147" lon="11.2136952"><ele>491.5</ele><time>2026-04-04T13:58:00.868Z</time></trkpt><trkpt lat="45.5361404" lon="11.2135775"><ele>491.3333333333333</ele><time>2026-04-04T13:58:01.861Z</time></trkpt><trkpt lat="45.5361654" lon="11.2134698"><ele>491.16666666666663</ele><time>2026-04-04T13:58:02.866Z</time></trkpt><trkpt lat="45.5361883" lon="11.2133171"><ele>491.0</ele><time>2026-04-04T13:58:04.858Z</time></trkpt><trkpt lat="45.5362349" lon="11.2131785"><ele>491.71428571428567</ele><time>2026-04-04T13:58:06.869Z</time></trkpt><trkpt lat="45.5362811" lon="11.2131136"><ele>492.4285714285714</ele><time>2026-04-04T13:58:07.86Z</time></trkpt><trkpt lat="45.5363369" lon="11.2130525"><ele>493.1428571428571</ele><time>2026-04-04T13:58:08.862Z</time></trkpt><trkpt lat="45.5363939" lon="11.2129892"><ele>493.8571428571429</ele><time>2026-04-04T13:58:09.864Z</time></trkpt><trkpt lat="45.5364448" lon="11.2129171"><ele>494.5714285714286</ele><time>2026-04-04T13:58:10.867Z</time></trkpt><trkpt lat="45.5364867" lon="11.2128267"><ele>495.28571428571433</ele><time>2026-04-04T13:58:11.873Z</time></trkpt><trkpt lat="45.5365162" lon="11.2127361"><ele>496.0</ele><time>2026-04-04T13:58:12.861Z</time></trkpt><trkpt lat="45.5365229" lon="11.2126021"><ele>496.0</ele><time>2026-04-04T13:58:13.876Z</time></trkpt><trkpt lat="45.5365056" lon="11.2124673"><ele>496.0</ele><time>2026-04-04T13:58:14.865Z</time></trkpt><trkpt lat="45.5364756" lon="11.2123116"><ele>496.0</ele><time>2026-04-04T13:58:15.868Z</time></trkpt><trkpt lat="45.5364404" lon="11.2121688"><ele>496.0</ele><time>2026-04-04T13:58:16.865Z</time></trkpt><trkpt lat="45.536409" lon="11.2120441"><ele>496.0</ele><time>2026-04-04T13:58:17.863Z</time></trkpt><trkpt lat="45.5363835" lon="11.2119351"><ele>497.14285714285717</ele><time>2026-04-04T13:58:18.871Z</time></trkpt><trkpt lat="45.5363618" lon="11.2118425"><ele>498.28571428571433</ele><time>2026-04-04T13:58:19.861Z</time></trkpt><trkpt lat="45.5363486" lon="11.2117495"><ele>499.42857142857144</ele><time>2026-04-04T13:58:20.857Z</time></trkpt><trkpt lat="45.5363414" lon="11.2116529"><ele>500.57142857142856</ele><time>2026-04-04T13:58:21.87Z</time></trkpt><trkpt lat="45.5363571" lon="11.2115577"><ele>501.7142857142857</ele><time>2026-04-04T13:58:22.869Z</time></trkpt><trkpt lat="45.5363955" lon="11.2114863"><ele>502.8571428571429</ele><time>2026-04-04T13:58:23.863Z</time></trkpt><trkpt lat="45.5364589" lon="11.2114398"><ele>504.0</ele><time>2026-04-04T13:58:24.863Z</time></trkpt><trkpt lat="45.5365328" lon="11.2114342"><ele>504.0</ele><time>2026-04-04T13:58:25.869Z</time></trkpt><trkpt lat="45.5366113" lon="11.2114692"><ele>504.0</ele><time>2026-04-04T13:58:26.855Z</time></trkpt><trkpt lat="45.5366939" lon="11.211519"><ele>504.0</ele><time>2026-04-04T13:58:27.859Z</time></trkpt><trkpt lat="45.5367793" lon="11.2115544"><ele>504.0</ele><time>2026-04-04T13:58:28.866Z</time></trkpt><trkpt lat="45.5368752" lon="11.211557"><ele>504.0</ele><time>2026-04-04T13:58:29.862Z</time></trkpt><trkpt lat="45.5369703" lon="11.2115426"><ele>504.2</ele><time>2026-04-04T13:58:30.867Z</time></trkpt><trkpt lat="45.5370636" lon="11.2115168"><ele>504.4</ele><time>2026-04-04T13:58:31.87Z</time></trkpt><trkpt lat="45.53716" lon="11.2114916"><ele>504.6</ele><time>2026-04-04T13:58:32.864Z</time></trkpt><trkpt lat="45.5372611" lon="11.2114826"><ele>504.8</ele><time>2026-04-04T13:58:33.871Z</time></trkpt><trkpt lat="45.5373805" lon="11.2114941"><ele>505.0</ele><time>2026-04-04T13:58:34.862Z</time></trkpt><trkpt lat="45.5375136" lon="11.2115127"><ele>505.0</ele><time>2026-04-04T13:58:35.861Z</time></trkpt><trkpt lat="45.537639" lon="11.2115076"><ele>505.0</ele><time>2026-04-04T13:58:36.871Z</time></trkpt><trkpt lat="45.537758" lon="11.2114769"><ele>505.0</ele><time>2026-04-04T13:58:37.862Z</time></trkpt><trkpt lat="45.5378664" lon="11.2114401"><ele>505.0</ele><time>2026-04-04T13:58:38.865Z</time></trkpt><trkpt lat="45.5379737" lon="11.2114043"><ele>508.4</ele><time>2026-04-04T13:58:39.869Z</time></trkpt><trkpt lat="45.5380798" lon="11.2113606"><ele>511.8</ele><time>2026-04-04T13:58:40.865Z</time></trkpt><trkpt lat="45.5381964" lon="11.211317"><ele>515.2</ele><time>2026-04-04T13:58:41.864Z</time></trkpt><trkpt lat="45.5383043" lon="11.2112711"><ele>518.6</ele><time>2026-04-04T13:58:42.859Z</time></trkpt><trkpt lat="45.5384049" lon="11.2112259"><ele>522.0</ele><time>2026-04-04T13:58:43.858Z</time></trkpt><trkpt lat="45.5385056" lon="11.2111807"><ele>522.0</ele><time>2026-04-04T13:58:44.857Z</time></trkpt><trkpt lat="45.5386048" lon="11.2111288"><ele>522.0</ele><time>2026-04-04T13:58:45.863Z</time></trkpt><trkpt lat="45.5386959" lon="11.2110704"><ele>522.0</ele><time>2026-04-04T13:58:46.874Z</time></trkpt><trkpt lat="45.5387884" lon="11.2109984"><ele>522.0</ele><time>2026-04-04T13:58:47.863Z</time></trkpt><trkpt lat="45.5388818" lon="11.2109129"><ele>522.0</ele><time>2026-04-04T13:58:48.87Z</time></trkpt><trkpt lat="45.538971" lon="11.2108195"><ele>519.5</ele><time>2026-04-04T13:58:49.868Z</time></trkpt><trkpt lat="45.5390563" lon="11.2107185"><ele>517.0</ele><time>2026-04-04T13:58:50.872Z</time></trkpt><trkpt lat="45.5391443" lon="11.2106159"><ele>514.5</ele><time>2026-04-04T13:58:51.859Z</time></trkpt><trkpt lat="45.5392423" lon="11.2105028"><ele>512.0</ele><time>2026-04-04T13:58:52.869Z</time></trkpt><trkpt lat="45.5393353" lon="11.2104116"><ele>515.3333333333333</ele><time>2026-04-04T13:58:53.863Z</time></trkpt><trkpt lat="45.5394156" lon="11.2103382"><ele>518.6666666666666</ele><time>2026-04-04T13:58:54.873Z</time></trkpt><trkpt lat="45.5394988" lon="11.2102836"><ele>522.0</ele><time>2026-04-04T13:58:55.861Z</time></trkpt><trkpt lat="45.5395887" lon="11.2102366"><ele>525.3333333333334</ele><time>2026-04-04T13:58:56.861Z</time></trkpt><trkpt lat="45.5396746" lon="11.2102171"><ele>528.6666666666667</ele><time>2026-04-04T13:58:57.875Z</time></trkpt><trkpt lat="45.5397544" lon="11.2102182"><ele>532.0</ele><time>2026-04-04T13:58:58.862Z</time></trkpt><trkpt lat="45.5398234" lon="11.2102489"><ele>531.0</ele><time>2026-04-04T13:58:59.859Z</time></trkpt><trkpt lat="45.5398788" lon="11.2103016"><ele>530.0</ele><time>2026-04-04T13:59:00.861Z</time></trkpt><trkpt lat="45.5399265" lon="11.2103815"><ele>529.0</ele><time>2026-04-04T13:59:01.864Z</time></trkpt><trkpt lat="45.5399399" lon="11.2105486"><ele>528.0</ele><time>2026-04-04T13:59:02.86Z</time></trkpt><trkpt lat="45.5399626" lon="11.2106899"><ele>527.0</ele><time>2026-04-04T13:59:03.867Z</time></trkpt><trkpt lat="45.5399865" lon="11.2108303"><ele>527.0</ele><time>2026-04-04T13:59:04.857Z</time></trkpt><trkpt lat="45.540017" lon="11.2109749"><ele>527.0</ele><time>2026-04-04T13:59:05.863Z</time></trkpt><trkpt lat="45.5400489" lon="11.2111241"><ele>527.0</ele><time>2026-04-04T13:59:06.862Z</time></trkpt><trkpt lat="45.5400889" lon="11.2112949"><ele>527.0</ele><time>2026-04-04T13:59:07.864Z</time></trkpt><trkpt lat="45.5401217" lon="11.21147"><ele>523.8333333333333</ele><time>2026-04-04T13:59:08.861Z</time></trkpt><trkpt lat="45.5401515" lon="11.2116223"><ele>520.6666666666666</ele><time>2026-04-04T13:59:09.87Z</time></trkpt><trkpt lat="45.5401753" lon="11.2117585"><ele>517.5</ele><time>2026-04-04T13:59:10.865Z</time></trkpt><trkpt lat="45.540205" lon="11.2118747"><ele>514.3333333333334</ele><time>2026-04-04T13:59:11.873Z</time></trkpt><trkpt lat="45.5402232" lon="11.2119743"><ele>511.1666666666667</ele><time>2026-04-04T13:59:12.859Z</time></trkpt><trkpt lat="45.540264" lon="11.2120698"><ele>508.0</ele><time>2026-04-04T13:59:13.868Z</time></trkpt><trkpt lat="45.5403204" lon="11.2121371"><ele>512.3333333333334</ele><time>2026-04-04T13:59:14.898Z</time></trkpt><trkpt lat="45.5403935" lon="11.2121729"><ele>516.6666666666667</ele><time>2026-04-04T13:59:15.863Z</time></trkpt><trkpt lat="45.5404763" lon="11.2121924"><ele>521.0</ele><time>2026-04-04T13:59:16.869Z</time></trkpt><trkpt lat="45.5405616" lon="11.2122098"><ele>525.3333333333334</ele><time>2026-04-04T13:59:17.86Z</time></trkpt><trkpt lat="45.5406391" lon="11.2122247"><ele>529.6666666666666</ele><time>2026-04-04T13:59:18.862Z</time></trkpt><trkpt lat="45.5407172" lon="11.2122394"><ele>534.0</ele><time>2026-04-04T13:59:19.87Z</time></trkpt><trkpt lat="45.5407975" lon="11.2122664"><ele>534.0</ele><time>2026-04-04T13:59:20.863Z</time></trkpt><trkpt lat="45.5408737" lon="11.2123188"><ele>534.0</ele><time>2026-04-04T13:59:21.868Z</time></trkpt><trkpt lat="45.5409355" lon="11.2124018"><ele>534.0</ele><time>2026-04-04T13:59:22.858Z</time></trkpt><trkpt lat="45.5409739" lon="11.2125083"><ele>534.0</ele><time>2026-04-04T13:59:23.866Z</time></trkpt><trkpt lat="45.5409899" lon="11.2126218"><ele>534.0</ele><time>2026-04-04T13:59:24.865Z</time></trkpt><trkpt lat="45.5409927" lon="11.2127352"><ele>534.0</ele><time>2026-04-04T13:59:25.862Z</time></trkpt><trkpt lat="45.5409941" lon="11.2128516"><ele>530.8333333333334</ele><time>2026-04-04T13:59:26.862Z</time></trkpt><trkpt lat="45.5409999" lon="11.212973"><ele>527.6666666666666</ele><time>2026-04-04T13:59:27.858Z</time></trkpt><trkpt lat="45.5410151" lon="11.2130793"><ele>524.5</ele><time>2026-04-04T13:59:28.86Z</time></trkpt><trkpt lat="45.541048" lon="11.2131868"><ele>521.3333333333333</ele><time>2026-04-04T13:59:29.864Z</time></trkpt><trkpt lat="45.5411008" lon="11.2132752"><ele>518.1666666666666</ele><time>2026-04-04T13:59:30.858Z</time></trkpt><trkpt lat="45.5411835" lon="11.2133396"><ele>515.0</ele><time>2026-04-04T13:59:31.866Z</time></trkpt><trkpt lat="45.541274" lon="11.2133811"><ele>514.5</ele><time>2026-04-04T13:59:32.859Z</time></trkpt><trkpt lat="45.5413553" lon="11.2134037"><ele>514.0</ele><time>2026-04-04T13:59:33.866Z</time></trkpt><trkpt lat="45.5414378" lon="11.2134285"><ele>513.5</ele><time>2026-04-04T13:59:34.865Z</time></trkpt><trkpt lat="45.5415156" lon="11.2134522"><ele>513.0</ele><time>2026-04-04T13:59:35.873Z</time></trkpt><trkpt lat="45.541595" lon="11.2134649"><ele>512.5</ele><time>2026-04-04T13:59:36.863Z</time></trkpt><trkpt lat="45.5416668" lon="11.2134625"><ele>512.0</ele><time>2026-04-04T13:59:37.861Z</time></trkpt><trkpt lat="45.5417368" lon="11.2134343"><ele>512.0</ele><time>2026-04-04T13:59:38.873Z</time></trkpt><trkpt lat="45.5417919" lon="11.2133763"><ele>511.99999999999994</ele><time>2026-04-04T13:59:39.865Z</time></trkpt><trkpt lat="45.5418434" lon="11.2132988"><ele>512.0</ele><time>2026-04-04T13:59:40.861Z</time></trkpt><trkpt lat="45.5418884" lon="11.2132206"><ele>512.0</ele><time>2026-04-04T13:59:41.864Z</time></trkpt><trkpt lat="45.5419366" lon="11.2131502"><ele>511.99999999999994</ele><time>2026-04-04T13:59:42.863Z</time></trkpt><trkpt lat="45.5419873" lon="11.2130914"><ele>512.0</ele><time>2026-04-04T13:59:43.858Z</time></trkpt><trkpt lat="45.5420552" lon="11.2130682"><ele>512.0</ele><time>2026-04-04T13:59:44.866Z</time></trkpt><trkpt lat="45.542132" lon="11.2130681"><ele>511.40000000000003</ele><time>2026-04-04T13:59:45.861Z</time></trkpt><trkpt lat="45.5422194" lon="11.2130868"><ele>510.80000000000007</ele><time>2026-04-04T13:59:46.864Z</time></trkpt><trkpt lat="45.5423049" lon="11.2131325"><ele>510.2</ele><time>2026-04-04T13:59:47.866Z</time></trkpt><trkpt lat="45.5423927" lon="11.2131893"><ele>509.6</ele><time>2026-04-04T13:59:48.86Z</time></trkpt><trkpt lat="45.5424842" lon="11.213255"><ele>509.0</ele><time>2026-04-04T13:59:49.865Z</time></trkpt><trkpt lat="45.5425925" lon="11.2133133"><ele>509.0</ele><time>2026-04-04T13:59:50.869Z</time></trkpt><trkpt lat="45.5426908" lon="11.2133633"><ele>509.0</ele><time>2026-04-04T13:59:51.857Z</time></trkpt><trkpt lat="45.5427871" lon="11.2133932"><ele>509.0</ele><time>2026-04-04T13:59:52.867Z</time></trkpt><trkpt lat="45.5428865" lon="11.2133822"><ele>509.0</ele><time>2026-04-04T13:59:53.862Z</time></trkpt><trkpt lat="45.5429919" lon="11.2133399"><ele>509.0</ele><time>2026-04-04T13:59:54.881Z</time></trkpt><trkpt lat="45.5430886" lon="11.2132884"><ele>509.8571428571428</ele><time>2026-04-04T13:59:55.872Z</time></trkpt><trkpt lat="45.5431687" lon="11.2132396"><ele>510.71428571428567</ele><time>2026-04-04T13:59:56.861Z</time></trkpt><trkpt lat="45.5432408" lon="11.2131957"><ele>511.57142857142856</ele><time>2026-04-04T13:59:57.875Z</time></trkpt><trkpt lat="45.543308" lon="11.2131594"><ele>512.4285714285713</ele><time>2026-04-04T13:59:58.872Z</time></trkpt><trkpt lat="45.5433757" lon="11.2131209"><ele>513.2857142857142</ele><time>2026-04-04T13:59:59.861Z</time></trkpt><trkpt lat="45.5434386" lon="11.2130829"><ele>514.1428571428571</ele><time>2026-04-04T14:00:00.858Z</time></trkpt><trkpt lat="45.5435024" lon="11.2130515"><ele>515.0</ele><time>2026-04-04T14:00:01.858Z</time></trkpt><trkpt lat="45.5435661" lon="11.2130575"><ele>515.0</ele><time>2026-04-04T14:00:02.863Z</time></trkpt><trkpt lat="45.543622" lon="11.2131121"><ele>515.0</ele><time>2026-04-04T14:00:03.871Z</time></trkpt><trkpt lat="45.5436435" lon="11.2132141"><ele>515.0</ele><time>2026-04-04T14:00:04.862Z</time></trkpt><trkpt lat="45.5436481" lon="11.2133232"><ele>515.0</ele><time>2026-04-04T14:00:05.872Z</time></trkpt><trkpt lat="45.5436325" lon="11.2134391"><ele>515.0</ele><time>2026-04-04T14:00:06.864Z</time></trkpt><trkpt lat="45.543606" lon="11.2135549"><ele>515.0</ele><time>2026-04-04T14:00:07.872Z</time></trkpt><trkpt lat="45.5435746" lon="11.2136724"><ele>515.0</ele><time>2026-04-04T14:00:08.86Z</time></trkpt><trkpt lat="45.5435436" lon="11.2138"><ele>515.0</ele><time>2026-04-04T14:00:09.86Z</time></trkpt><trkpt lat="45.5435179" lon="11.2139301"><ele>515.0</ele><time>2026-04-04T14:00:10.868Z</time></trkpt><trkpt lat="45.5435073" lon="11.2140639"><ele>515.0</ele><time>2026-04-04T14:00:11.865Z</time></trkpt><trkpt lat="45.5435001" lon="11.2141962"><ele>515.0</ele><time>2026-04-04T14:00:12.875Z</time></trkpt><trkpt lat="45.5434948" lon="11.214325"><ele>513.8</ele><time>2026-04-04T14:00:13.865Z</time></trkpt><trkpt lat="45.543492" lon="11.214454"><ele>512.6</ele><time>2026-04-04T14:00:14.868Z</time></trkpt><trkpt lat="45.5435052" lon="11.2145921"><ele>511.4</ele><time>2026-04-04T14:00:15.87Z</time></trkpt><trkpt lat="45.543533" lon="11.2147265"><ele>510.2</ele><time>2026-04-04T14:00:16.86Z</time></trkpt><trkpt lat="45.5435711" lon="11.2148536"><ele>509.0</ele><time>2026-04-04T14:00:17.872Z</time></trkpt><trkpt lat="45.5436131" lon="11.2150005"><ele>508.66666666666663</ele><time>2026-04-04T14:00:18.865Z</time></trkpt><trkpt lat="45.5436499" lon="11.2151329"><ele>508.3333333333333</ele><time>2026-04-04T14:00:19.862Z</time></trkpt><trkpt lat="45.543685" lon="11.215247"><ele>508.0</ele><time>2026-04-04T14:00:20.86Z</time></trkpt><trkpt lat="45.5437253" lon="11.2153337"><ele>507.66666666666663</ele><time>2026-04-04T14:00:21.874Z</time></trkpt><trkpt lat="45.5437698" lon="11.2154054"><ele>507.3333333333333</ele><time>2026-04-04T14:00:22.862Z</time></trkpt><trkpt lat="45.5438368" lon="11.2154522"><ele>507.0</ele><time>2026-04-04T14:00:23.868Z</time></trkpt><trkpt lat="45.5439179" lon="11.215476"><ele>509.6666666666667</ele><time>2026-04-04T14:00:24.863Z</time></trkpt><trkpt lat="45.5439988" lon="11.2154951"><ele>512.3333333333334</ele><time>2026-04-04T14:00:25.862Z</time></trkpt><trkpt lat="45.5440796" lon="11.2155045"><ele>515.0</ele><time>2026-04-04T14:00:26.876Z</time></trkpt><trkpt lat="45.5441557" lon="11.2155129"><ele>517.6666666666667</ele><time>2026-04-04T14:00:27.865Z</time></trkpt><trkpt lat="45.544227" lon="11.2155212"><ele>520.3333333333334</ele><time>2026-04-04T14:00:28.877Z</time></trkpt><trkpt lat="45.5442966" lon="11.2155407"><ele>523.0</ele><time>2026-04-04T14:00:29.865Z</time></trkpt><trkpt lat="45.5443668" lon="11.2155733"><ele>523.0</ele><time>2026-04-04T14:00:30.866Z</time></trkpt><trkpt lat="45.5444308" lon="11.2156302"><ele>523.0</ele><time>2026-04-04T14:00:31.859Z</time></trkpt><trkpt lat="45.5444739" lon="11.2157153"><ele>523.0</ele><time>2026-04-04T14:00:32.86Z</time></trkpt><trkpt lat="45.5445011" lon="11.2158225"><ele>523.0</ele><time>2026-04-04T14:00:33.859Z</time></trkpt><trkpt lat="45.5445177" lon="11.2159358"><ele>523.0</ele><time>2026-04-04T14:00:34.865Z</time></trkpt><trkpt lat="45.5445466" lon="11.2160453"><ele>523.0</ele><time>2026-04-04T14:00:35.867Z</time></trkpt><trkpt lat="45.5445937" lon="11.2161461"><ele>520.1999999999999</ele><time>2026-04-04T14:00:36.861Z</time></trkpt><trkpt lat="45.5446654" lon="11.2162133"><ele>517.4</ele><time>2026-04-04T14:00:37.857Z</time></trkpt><trkpt lat="45.5447516" lon="11.2162562"><ele>514.5999999999999</ele><time>2026-04-04T14:00:38.872Z</time></trkpt><trkpt lat="45.5448374" lon="11.2162736"><ele>511.79999999999995</ele><time>2026-04-04T14:00:39.868Z</time></trkpt><trkpt lat="45.5449277" lon="11.2162653"><ele>509.0</ele><time>2026-04-04T14:00:40.857Z</time></trkpt><trkpt lat="45.5450239" lon="11.2162216"><ele>509.0</ele><time>2026-04-04T14:00:41.857Z</time></trkpt><trkpt lat="45.5451123" lon="11.2161374"><ele>509.0</ele><time>2026-04-04T14:00:42.859Z</time></trkpt><trkpt lat="45.5451947" lon="11.216032"><ele>509.0</ele><time>2026-04-04T14:00:43.866Z</time></trkpt><trkpt lat="45.5452808" lon="11.215915"><ele>509.0</ele><time>2026-04-04T14:00:44.871Z</time></trkpt><trkpt lat="45.5453644" lon="11.215796"><ele>507.0</ele><time>2026-04-04T14:00:45.867Z</time></trkpt><trkpt lat="45.5454342" lon="11.2156893"><ele>505.0</ele><time>2026-04-04T14:00:46.859Z</time></trkpt><trkpt lat="45.5455044" lon="11.215556"><ele>503.0</ele><time>2026-04-04T14:00:47.86Z</time></trkpt><trkpt lat="45.5455758" lon="11.2153898"><ele>501.0</ele><time>2026-04-04T14:00:48.863Z</time></trkpt><trkpt lat="45.5456474" lon="11.215225"><ele>501.0</ele><time>2026-04-04T14:00:49.869Z</time></trkpt><trkpt lat="45.5457297" lon="11.2150415"><ele>501.0</ele><time>2026-04-04T14:00:50.862Z</time></trkpt><trkpt lat="45.5458246" lon="11.2148557"><ele>501.0</ele><time>2026-04-04T14:00:51.859Z</time></trkpt><trkpt lat="45.5459283" lon="11.2146673"><ele>502.25</ele><time>2026-04-04T14:00:52.868Z</time></trkpt><trkpt lat="45.5460241" lon="11.2145038"><ele>503.5</ele><time>2026-04-04T14:00:53.867Z</time></trkpt><trkpt lat="45.5461188" lon="11.2143738"><ele>504.75</ele><time>2026-04-04T14:00:54.861Z</time></trkpt><trkpt lat="45.5462117" lon="11.2142722"><ele>506.0</ele><time>2026-04-04T14:00:55.87Z</time></trkpt><trkpt lat="45.5463015" lon="11.2141935"><ele>505.99999999999994</ele><time>2026-04-04T14:00:56.876Z</time></trkpt><trkpt lat="45.5463779" lon="11.214127"><ele>506.0</ele><time>2026-04-04T14:00:57.86Z</time></trkpt><trkpt lat="45.5464434" lon="11.2140665"><ele>506.0</ele><time>2026-04-04T14:00:58.869Z</time></trkpt><trkpt lat="45.5465025" lon="11.2140165"><ele>506.0</ele><time>2026-04-04T14:00:59.868Z</time></trkpt><trkpt lat="45.5465676" lon="11.2139726"><ele>505.99999999999994</ele><time>2026-04-04T14:01:00.867Z</time></trkpt><trkpt lat="45.5466444" lon="11.2139322"><ele>506.0</ele><time>2026-04-04T14:01:01.866Z</time></trkpt><trkpt lat="45.5467344" lon="11.213929"><ele>506.0</ele><time>2026-04-04T14:01:02.867Z</time></trkpt><trkpt lat="45.5468287" lon="11.2139643"><ele>506.0</ele><time>2026-04-04T14:01:03.868Z</time></trkpt><trkpt lat="45.5469196" lon="11.2140377"><ele>506.0</ele><time>2026-04-04T14:01:04.873Z</time></trkpt><trkpt lat="45.5470033" lon="11.2141402"><ele>506.0</ele><time>2026-04-04T14:01:05.86Z</time></trkpt><trkpt lat="45.5470904" lon="11.2142453"><ele>506.0</ele><time>2026-04-04T14:01:06.869Z</time></trkpt><trkpt lat="45.5471828" lon="11.2143488"><ele>504.6</ele><time>2026-04-04T14:01:07.863Z</time></trkpt><trkpt lat="45.5472718" lon="11.2144548"><ele>503.20000000000005</ele><time>2026-04-04T14:01:08.861Z</time></trkpt><trkpt lat="45.54736" lon="11.214552"><ele>501.79999999999995</ele><time>2026-04-04T14:01:09.876Z</time></trkpt><trkpt lat="45.5474374" lon="11.2146573"><ele>500.4</ele><time>2026-04-04T14:01:10.864Z</time></trkpt><trkpt lat="45.5475137" lon="11.2147665"><ele>499.0</ele><time>2026-04-04T14:01:11.874Z</time></trkpt><trkpt lat="45.5475784" lon="11.2148604"><ele>498.50000000000006</ele><time>2026-04-04T14:01:12.861Z</time></trkpt><trkpt lat="45.5476411" lon="11.2149507"><ele>498.0</ele><time>2026-04-04T14:01:13.861Z</time></trkpt><trkpt lat="45.5476993" lon="11.2150357"><ele>497.5</ele><time>2026-04-04T14:01:14.864Z</time></trkpt><trkpt lat="45.5477551" lon="11.2151142"><ele>497.0</ele><time>2026-04-04T14:01:15.864Z</time></trkpt><trkpt lat="45.5478056" lon="11.2151854"><ele>496.50000000000006</ele><time>2026-04-04T14:01:16.871Z</time></trkpt><trkpt lat="45.5478529" lon="11.2152524"><ele>496.0</ele><time>2026-04-04T14:01:17.865Z</time></trkpt><trkpt lat="45.5478994" lon="11.2153211"><ele>494.4</ele><time>2026-04-04T14:01:18.863Z</time></trkpt><trkpt lat="45.5479768" lon="11.2154635"><ele>492.8</ele><time>2026-04-04T14:01:20.867Z</time></trkpt><trkpt lat="45.548022" lon="11.215591"><ele>491.19999999999993</ele><time>2026-04-04T14:01:22.858Z</time></trkpt><trkpt lat="45.5480416" lon="11.2157174"><ele>489.59999999999997</ele><time>2026-04-04T14:01:26.869Z</time></trkpt><trkpt lat="45.5481545" lon="11.2157231"><ele>488.0</ele><time>2026-04-04T14:01:28.871Z</time></trkpt><trkpt lat="45.5482387" lon="11.2156737"><ele>487.79999999999995</ele><time>2026-04-04T14:01:29.863Z</time></trkpt><trkpt lat="45.5483359" lon="11.2155865"><ele>487.59999999999997</ele><time>2026-04-04T14:01:30.86Z</time></trkpt><trkpt lat="45.548426" lon="11.2154978"><ele>487.40000000000003</ele><time>2026-04-04T14:01:31.867Z</time></trkpt><trkpt lat="45.5485047" lon="11.2154116"><ele>487.20000000000005</ele><time>2026-04-04T14:01:32.863Z</time></trkpt><trkpt lat="45.5485684" lon="11.2152975"><ele>487.0</ele><time>2026-04-04T14:01:33.865Z</time></trkpt><trkpt lat="45.5486119" lon="11.2151447"><ele>487.0</ele><time>2026-04-04T14:01:34.865Z</time></trkpt><trkpt lat="45.5486406" lon="11.2149928"><ele>487.00000000000006</ele><time>2026-04-04T14:01:35.864Z</time></trkpt><trkpt lat="45.5486419" lon="11.2148499"><ele>487.00000000000006</ele><time>2026-04-04T14:01:36.861Z</time></trkpt><trkpt lat="45.5486169" lon="11.2147059"><ele>487.0</ele><time>2026-04-04T14:01:37.876Z</time></trkpt><trkpt lat="45.5485493" lon="11.2145847"><ele>487.0</ele><time>2026-04-04T14:01:38.857Z</time></trkpt><trkpt lat="45.5484969" lon="11.2144636"><ele>487.20000000000005</ele><time>2026-04-04T14:01:39.882Z</time></trkpt><trkpt lat="45.5485029" lon="11.21435"><ele>487.40000000000003</ele><time>2026-04-04T14:01:40.863Z</time></trkpt><trkpt lat="45.5485272" lon="11.2142147"><ele>487.59999999999997</ele><time>2026-04-04T14:01:41.869Z</time></trkpt><trkpt lat="45.5485698" lon="11.2140753"><ele>487.79999999999995</ele><time>2026-04-04T14:01:42.863Z</time></trkpt><trkpt lat="45.5486074" lon="11.2139302"><ele>488.0</ele><time>2026-04-04T14:01:43.862Z</time></trkpt><trkpt lat="45.5486196" lon="11.2137896"><ele>488.25</ele><time>2026-04-04T14:01:44.861Z</time></trkpt><trkpt lat="45.5485972" lon="11.2136339"><ele>488.5</ele><time>2026-04-04T14:01:45.869Z</time></trkpt><trkpt lat="45.5485655" lon="11.2134652"><ele>488.75</ele><time>2026-04-04T14:01:46.857Z</time></trkpt><trkpt lat="45.5485514" lon="11.2132763"><ele>489.0</ele><time>2026-04-04T14:01:47.874Z</time></trkpt><trkpt lat="45.5485541" lon="11.2130753"><ele>489.0</ele><time>2026-04-04T14:01:48.865Z</time></trkpt><trkpt lat="45.5485726" lon="11.2128708"><ele>489.0</ele><time>2026-04-04T14:01:49.863Z</time></trkpt><trkpt lat="45.5486108" lon="11.2126719"><ele>489.0</ele><time>2026-04-04T14:01:50.89Z</time></trkpt><trkpt lat="45.5486532" lon="11.2124425"><ele>488.5</ele><time>2026-04-04T14:01:51.866Z</time></trkpt><trkpt lat="45.5486786" lon="11.2122344"><ele>488.0</ele><time>2026-04-04T14:01:52.865Z</time></trkpt><trkpt lat="45.5487008" lon="11.2120342"><ele>487.5</ele><time>2026-04-04T14:01:53.865Z</time></trkpt><trkpt lat="45.5487299" lon="11.2118517"><ele>487.0</ele><time>2026-04-04T14:01:54.87Z</time></trkpt><trkpt lat="45.548766" lon="11.2116971"><ele>486.6</ele><time>2026-04-04T14:01:55.866Z</time></trkpt><trkpt lat="45.5488048" lon="11.21155"><ele>486.20000000000005</ele><time>2026-04-04T14:01:56.866Z</time></trkpt><trkpt lat="45.5488539" lon="11.2114174"><ele>485.8</ele><time>2026-04-04T14:01:57.865Z</time></trkpt><trkpt lat="45.5489074" lon="11.2112825"><ele>485.4</ele><time>2026-04-04T14:01:58.867Z</time></trkpt><trkpt lat="45.548966" lon="11.2111586"><ele>485.0</ele><time>2026-04-04T14:01:59.858Z</time></trkpt><trkpt lat="45.5490333" lon="11.2110409"><ele>485.0</ele><time>2026-04-04T14:02:00.859Z</time></trkpt><trkpt lat="45.5491045" lon="11.2109116"><ele>485.0</ele><time>2026-04-04T14:02:01.866Z</time></trkpt><trkpt lat="45.5491704" lon="11.2107905"><ele>485.0</ele><time>2026-04-04T14:02:02.86Z</time></trkpt><trkpt lat="45.5492168" lon="11.210678"><ele>485.0</ele><time>2026-04-04T14:02:03.862Z</time></trkpt><trkpt lat="45.5492209" lon="11.210576"><ele>485.0</ele><time>2026-04-04T14:02:04.869Z</time></trkpt><trkpt lat="45.5491913" lon="11.2104753"><ele>484.0</ele><time>2026-04-04T14:02:05.869Z</time></trkpt><trkpt lat="45.5491326" lon="11.2103866"><ele>483.0</ele><time>2026-04-04T14:02:06.862Z</time></trkpt><trkpt lat="45.5490663" lon="11.2102921"><ele>482.0</ele><time>2026-04-04T14:02:07.872Z</time></trkpt><trkpt lat="45.5489899" lon="11.210186"><ele>481.0</ele><time>2026-04-04T14:02:08.863Z</time></trkpt><trkpt lat="45.5489208" lon="11.2100868"><ele>480.0</ele><time>2026-04-04T14:02:09.869Z</time></trkpt><trkpt lat="45.548862" lon="11.2099878"><ele>480.0</ele><time>2026-04-04T14:02:10.858Z</time></trkpt><trkpt lat="45.5488071" lon="11.2098912"><ele>480.0</ele><time>2026-04-04T14:02:11.876Z</time></trkpt><trkpt lat="45.5487805" lon="11.2097666"><ele>480.0</ele><time>2026-04-04T14:02:12.863Z</time></trkpt><trkpt lat="45.5487641" lon="11.209635"><ele>480.0</ele><time>2026-04-04T14:02:13.877Z</time></trkpt><trkpt lat="45.5487375" lon="11.2095156"><ele>480.0</ele><time>2026-04-04T14:02:14.87Z</time></trkpt><trkpt lat="45.5486981" lon="11.2094082"><ele>480.0</ele><time>2026-04-04T14:02:15.864Z</time></trkpt><trkpt lat="45.5486325" lon="11.2093298"><ele>480.3333333333333</ele><time>2026-04-04T14:02:16.876Z</time></trkpt><trkpt lat="45.5485498" lon="11.2092784"><ele>480.66666666666663</ele><time>2026-04-04T14:02:17.862Z</time></trkpt><trkpt lat="45.5484524" lon="11.209262"><ele>481.0</ele><time>2026-04-04T14:02:18.856Z</time></trkpt><trkpt lat="45.5483607" lon="11.2092652"><ele>481.3333333333333</ele><time>2026-04-04T14:02:19.862Z</time></trkpt><trkpt lat="45.548275" lon="11.2092786"><ele>481.66666666666663</ele><time>2026-04-04T14:02:20.87Z</time></trkpt><trkpt lat="45.5481952" lon="11.2092826"><ele>482.0</ele><time>2026-04-04T14:02:21.861Z</time></trkpt><trkpt lat="45.5481193" lon="11.2092923"><ele>481.99999999999994</ele><time>2026-04-04T14:02:22.863Z</time></trkpt><trkpt lat="45.548052" lon="11.20929"><ele>482.0</ele><time>2026-04-04T14:02:23.867Z</time></trkpt><trkpt lat="45.5479872" lon="11.2092845"><ele>482.0</ele><time>2026-04-04T14:02:24.866Z</time></trkpt><trkpt lat="45.5479032" lon="11.2092519"><ele>482.0</ele><time>2026-04-04T14:02:26.856Z</time></trkpt><trkpt lat="45.5479039" lon="11.2091476"><ele>481.99999999999994</ele><time>2026-04-04T14:02:28.862Z</time></trkpt><trkpt lat="45.5480222" lon="11.2091204"><ele>482.0</ele><time>2026-04-04T14:02:30.862Z</time></trkpt><trkpt lat="45.5480994" lon="11.209099"><ele>481.99999999999994</ele><time>2026-04-04T14:02:31.872Z</time></trkpt><trkpt lat="45.5481791" lon="11.2090704"><ele>482.0</ele><time>2026-04-04T14:02:32.863Z</time></trkpt><trkpt lat="45.5482556" lon="11.2090241"><ele>482.0</ele><time>2026-04-04T14:02:33.875Z</time></trkpt><trkpt lat="45.5483319" lon="11.2089781"><ele>482.0</ele><time>2026-04-04T14:02:34.861Z</time></trkpt><trkpt lat="45.5484087" lon="11.2089352"><ele>481.99999999999994</ele><time>2026-04-04T14:02:35.873Z</time></trkpt><trkpt lat="45.5484893" lon="11.2089042"><ele>482.0</ele><time>2026-04-04T14:02:36.858Z</time></trkpt><trkpt lat="45.5485722" lon="11.2089034"><ele>482.66666666666663</ele><time>2026-04-04T14:02:37.865Z</time></trkpt><trkpt lat="45.5486494" lon="11.2089051"><ele>483.3333333333333</ele><time>2026-04-04T14:02:38.861Z</time></trkpt><trkpt lat="45.5487303" lon="11.2089215"><ele>484.0</ele><time>2026-04-04T14:02:39.867Z</time></trkpt><trkpt lat="45.5488063" lon="11.2089429"><ele>484.66666666666663</ele><time>2026-04-04T14:02:40.863Z</time></trkpt><trkpt lat="45.5488906" lon="11.2089365"><ele>485.3333333333333</ele><time>2026-04-04T14:02:41.867Z</time></trkpt><trkpt lat="45.5489735" lon="11.2089132"><ele>486.0</ele><time>2026-04-04T14:02:42.87Z</time></trkpt><trkpt lat="45.5490651" lon="11.2088987"><ele>482.4</ele><time>2026-04-04T14:02:43.86Z</time></trkpt><trkpt lat="45.5491602" lon="11.2088381"><ele>478.8</ele><time>2026-04-04T14:02:44.865Z</time></trkpt><trkpt lat="45.5492616" lon="11.2087949"><ele>475.19999999999993</ele><time>2026-04-04T14:02:45.864Z</time></trkpt><trkpt lat="45.549384" lon="11.2087616"><ele>471.59999999999997</ele><time>2026-04-04T14:02:46.862Z</time></trkpt><trkpt lat="45.5494931" lon="11.2087144"><ele>468.0</ele><time>2026-04-04T14:02:47.869Z</time></trkpt><trkpt lat="45.5495928" lon="11.2086628"><ele>464.4</ele><time>2026-04-04T14:02:48.868Z</time></trkpt><trkpt lat="45.5496845" lon="11.208605"><ele>460.79999999999995</ele><time>2026-04-04T14:02:49.859Z</time></trkpt><trkpt lat="45.5497668" lon="11.2085374"><ele>457.2</ele><time>2026-04-04T14:02:50.862Z</time></trkpt><trkpt lat="45.5498427" lon="11.2084792"><ele>453.6</ele><time>2026-04-04T14:02:51.861Z</time></trkpt><trkpt lat="45.5499196" lon="11.2084195"><ele>450.0</ele><time>2026-04-04T14:02:52.871Z</time></trkpt><trkpt lat="45.5499926" lon="11.2083508"><ele>450.0</ele><time>2026-04-04T14:02:53.863Z</time></trkpt><trkpt lat="45.5500595" lon="11.2082887"><ele>450.0</ele><time>2026-04-04T14:02:54.887Z</time></trkpt><trkpt lat="45.5501237" lon="11.2082343"><ele>450.0</ele><time>2026-04-04T14:02:55.864Z</time></trkpt><trkpt lat="45.5501885" lon="11.2081776"><ele>450.0</ele><time>2026-04-04T14:02:56.864Z</time></trkpt><trkpt lat="45.5502653" lon="11.2081162"><ele>450.0</ele><time>2026-04-04T14:02:57.86Z</time></trkpt><trkpt lat="45.5503314" lon="11.2080648"><ele>450.0</ele><time>2026-04-04T14:02:58.856Z</time></trkpt><trkpt lat="45.5503897" lon="11.2080269"><ele>447.0</ele><time>2026-04-04T14:02:59.875Z</time></trkpt><trkpt lat="45.5505091" lon="11.2079542"><ele>444.0</ele><time>2026-04-04T14:03:01.862Z</time></trkpt><trkpt lat="45.5505852" lon="11.2079205"><ele>441.0</ele><time>2026-04-04T14:03:03.863Z</time></trkpt><trkpt lat="45.5506688" lon="11.2078909"><ele>438.0</ele><time>2026-04-04T14:03:06.861Z</time></trkpt><trkpt lat="45.5507557" lon="11.2078598"><ele>435.0</ele><time>2026-04-04T14:03:09.868Z</time></trkpt><trkpt lat="45.5508352" lon="11.2078223"><ele>435.0</ele><time>2026-04-04T14:03:12.872Z</time></trkpt><trkpt lat="45.5509096" lon="11.2077838"><ele>435.0</ele><time>2026-04-04T14:03:15.865Z</time></trkpt><trkpt lat="45.5509863" lon="11.2077287"><ele>435.0</ele><time>2026-04-04T14:03:18.867Z</time></trkpt><trkpt lat="45.5510721" lon="11.2076649"><ele>435.0</ele><time>2026-04-04T14:03:21.87Z</time></trkpt><trkpt lat="45.5511364" lon="11.2076117"><ele>435.0</ele><time>2026-04-04T14:03:23.876Z</time></trkpt><trkpt lat="45.5512023" lon="11.207578"><ele>435.0</ele><time>2026-04-04T14:03:25.864Z</time></trkpt><trkpt lat="45.551275" lon="11.2075396"><ele>434.0</ele><time>2026-04-04T14:03:27.865Z</time></trkpt><trkpt lat="45.5513608" lon="11.207483"><ele>433.0</ele><time>2026-04-04T14:03:29.869Z</time></trkpt><trkpt lat="45.5514304" lon="11.2074369"><ele>432.0</ele><time>2026-04-04T14:03:31.87Z</time></trkpt><trkpt lat="45.5515014" lon="11.2074034"><ele>431.0</ele><time>2026-04-04T14:03:33.87Z</time></trkpt><trkpt lat="45.5515938" lon="11.2073594"><ele>430.0</ele><time>2026-04-04T14:03:36.873Z</time></trkpt><trkpt lat="45.5516562" lon="11.2073231"><ele>429.0</ele><time>2026-04-04T14:03:38.858Z</time></trkpt><trkpt lat="45.5517359" lon="11.2072855"><ele>427.57142857142856</ele><time>2026-04-04T14:03:40.866Z</time></trkpt><trkpt lat="45.5518022" lon="11.2072493"><ele>426.14285714285717</ele><time>2026-04-04T14:03:42.863Z</time></trkpt><trkpt lat="45.5518706" lon="11.2072184"><ele>424.71428571428567</ele><time>2026-04-04T14:03:44.863Z</time></trkpt><trkpt lat="45.5519331" lon="11.2071794"><ele>423.2857142857143</ele><time>2026-04-04T14:03:46.869Z</time></trkpt><trkpt lat="45.5519912" lon="11.2071359"><ele>421.85714285714283</ele><time>2026-04-04T14:03:48.868Z</time></trkpt><trkpt lat="45.5520667" lon="11.2071024"><ele>420.4285714285714</ele><time>2026-04-04T14:03:50.866Z</time></trkpt><trkpt lat="45.5521267" lon="11.2070704"><ele>419.0</ele><time>2026-04-04T14:03:52.864Z</time></trkpt><trkpt lat="45.5522199" lon="11.2070252"><ele>417.3333333333333</ele><time>2026-04-04T14:03:55.869Z</time></trkpt><trkpt lat="45.5522836" lon="11.2069685"><ele>415.66666666666663</ele><time>2026-04-04T14:03:57.861Z</time></trkpt><trkpt lat="45.5523518" lon="11.2069089"><ele>414.0</ele><time>2026-04-04T14:03:59.875Z</time></trkpt><trkpt lat="45.5524366" lon="11.2068937"><ele>412.33333333333337</ele><time>2026-04-04T14:04:01.872Z</time></trkpt><trkpt lat="45.5525203" lon="11.2068386"><ele>410.6666666666667</ele><time>2026-04-04T14:04:04.874Z</time></trkpt><trkpt lat="45.5525921" lon="11.2068223"><ele>409.0</ele><time>2026-04-04T14:04:06.868Z</time></trkpt><trkpt lat="45.5526603" lon="11.2068036"><ele>409.00000000000006</ele><time>2026-04-04T14:04:08.861Z</time></trkpt><trkpt lat="45.5527255" lon="11.206791"><ele>409.0</ele><time>2026-04-04T14:04:10.86Z</time></trkpt><trkpt lat="45.5528078" lon="11.206795"><ele>409.0</ele><time>2026-04-04T14:04:12.862Z</time></trkpt><trkpt lat="45.5528848" lon="11.2068301"><ele>409.0</ele><time>2026-04-04T14:04:14.867Z</time></trkpt><trkpt lat="45.5529918" lon="11.2069092"><ele>409.00000000000006</ele><time>2026-04-04T14:04:16.861Z</time></trkpt><trkpt lat="45.5530849" lon="11.206931"><ele>409.0</ele><time>2026-04-04T14:04:18.858Z</time></trkpt><trkpt lat="45.5531912" lon="11.2069418"><ele>408.6</ele><time>2026-04-04T14:04:20.873Z</time></trkpt><trkpt lat="45.55329" lon="11.2069428"><ele>408.2</ele><time>2026-04-04T14:04:22.866Z</time></trkpt><trkpt lat="45.5533766" lon="11.2069762"><ele>407.8</ele><time>2026-04-04T14:04:24.872Z</time></trkpt><trkpt lat="45.5534288" lon="11.2071041"><ele>407.40000000000003</ele><time>2026-04-04T14:04:26.857Z</time></trkpt><trkpt lat="45.5534707" lon="11.207231"><ele>407.0</ele><time>2026-04-04T14:04:28.861Z</time></trkpt><trkpt lat="45.5535023" lon="11.2073315"><ele>405.49999999999994</ele><time>2026-04-04T14:04:30.875Z</time></trkpt><trkpt lat="45.5535367" lon="11.2074154"><ele>404.0</ele><time>2026-04-04T14:04:32.868Z</time></trkpt><trkpt lat="45.5535798" lon="11.2075297"><ele>402.5</ele><time>2026-04-04T14:04:34.866Z</time></trkpt><trkpt lat="45.5536072" lon="11.2076196"><ele>401.0</ele><time>2026-04-04T14:04:35.861Z</time></trkpt><trkpt lat="45.5536418" lon="11.2077762"><ele>399.49999999999994</ele><time>2026-04-04T14:04:37.864Z</time></trkpt><trkpt lat="45.5536435" lon="11.2079207"><ele>398.0</ele><time>2026-04-04T14:04:39.861Z</time></trkpt><trkpt lat="45.5536454" lon="11.2080742"><ele>396.79999999999995</ele><time>2026-04-04T14:04:41.861Z</time></trkpt><trkpt lat="45.5536597" lon="11.2082238"><ele>395.6</ele><time>2026-04-04T14:04:43.864Z</time></trkpt><trkpt lat="45.5536575" lon="11.2083907"><ele>394.4</ele><time>2026-04-04T14:04:45.864Z</time></trkpt><trkpt lat="45.5536713" lon="11.2084806"><ele>393.20000000000005</ele><time>2026-04-04T14:04:46.86Z</time></trkpt><trkpt lat="45.5536672" lon="11.2086519"><ele>392.0</ele><time>2026-04-04T14:04:48.859Z</time></trkpt><trkpt lat="45.553666" lon="11.2088223"><ele>392.0</ele><time>2026-04-04T14:04:50.868Z</time></trkpt><trkpt lat="45.5536341" lon="11.2089724"><ele>392.0</ele><time>2026-04-04T14:04:52.862Z</time></trkpt><trkpt lat="45.5536285" lon="11.2091319"><ele>392.0</ele><time>2026-04-04T14:04:54.866Z</time></trkpt><trkpt lat="45.5536533" lon="11.2093075"><ele>392.0</ele><time>2026-04-04T14:04:56.86Z</time></trkpt><trkpt lat="45.5536718" lon="11.2094018"><ele>392.0</ele><time>2026-04-04T14:04:57.863Z</time></trkpt><trkpt lat="45.5537151" lon="11.2094958"><ele>392.49999999999994</ele><time>2026-04-04T14:04:58.859Z</time></trkpt><trkpt lat="45.5537608" lon="11.2095736"><ele>393.0</ele><time>2026-04-04T14:04:59.86Z</time></trkpt><trkpt lat="45.5538474" lon="11.2096419"><ele>393.5</ele><time>2026-04-04T14:05:01.869Z</time></trkpt><trkpt lat="45.5539202" lon="11.2095391"><ele>394.0</ele><time>2026-04-04T14:05:03.859Z</time></trkpt><trkpt lat="45.5539492" lon="11.209437"><ele>394.49999999999994</ele><time>2026-04-04T14:05:04.86Z</time></trkpt><trkpt lat="45.5539886" lon="11.2093252"><ele>395.0</ele><time>2026-04-04T14:05:05.867Z</time></trkpt><trkpt lat="45.5540447" lon="11.2092178"><ele>395.0</ele><time>2026-04-04T14:05:06.864Z</time></trkpt><trkpt lat="45.5541238" lon="11.209118"><ele>395.0</ele><time>2026-04-04T14:05:07.866Z</time></trkpt><trkpt lat="45.5542096" lon="11.209036"><ele>395.0</ele><time>2026-04-04T14:05:08.865Z</time></trkpt><trkpt lat="45.5542792" lon="11.2089779"><ele>395.0</ele><time>2026-04-04T14:05:09.869Z</time></trkpt><trkpt lat="45.5543455" lon="11.2089349"><ele>395.0</ele><time>2026-04-04T14:05:10.868Z</time></trkpt><trkpt lat="45.5544545" lon="11.2088877"><ele>400.0</ele><time>2026-04-04T14:05:12.872Z</time></trkpt><trkpt lat="45.5545663" lon="11.2088297"><ele>405.0</ele><time>2026-04-04T14:05:14.857Z</time></trkpt><trkpt lat="45.5546688" lon="11.2087614"><ele>410.0</ele><time>2026-04-04T14:05:16.864Z</time></trkpt><trkpt lat="45.5547574" lon="11.2086689"><ele>415.0</ele><time>2026-04-04T14:05:18.861Z</time></trkpt><trkpt lat="45.5548114" lon="11.208528"><ele>415.0</ele><time>2026-04-04T14:05:20.872Z</time></trkpt><trkpt lat="45.5548666" lon="11.2083958"><ele>415.0</ele><time>2026-04-04T14:05:22.858Z</time></trkpt><trkpt lat="45.5549247" lon="11.2082715"><ele>415.0</ele><time>2026-04-04T14:05:24.864Z</time></trkpt><trkpt lat="45.5550038" lon="11.2081603"><ele>415.0</ele><time>2026-04-04T14:05:26.862Z</time></trkpt><trkpt lat="45.5550972" lon="11.2080872"><ele>415.0</ele><time>2026-04-04T14:05:28.862Z</time></trkpt><trkpt lat="45.5552249" lon="11.2081036"><ele>416.00000000000006</ele><time>2026-04-04T14:05:30.869Z</time></trkpt><trkpt lat="45.555302" lon="11.2081349"><ele>417.0</ele><time>2026-04-04T14:05:31.862Z</time></trkpt><trkpt lat="45.5553807" lon="11.2081591"><ele>418.0</ele><time>2026-04-04T14:05:32.86Z</time></trkpt><trkpt lat="45.5554561" lon="11.2081849"><ele>419.0</ele><time>2026-04-04T14:05:33.861Z</time></trkpt><trkpt lat="45.5555265" lon="11.2082092"><ele>420.00000000000006</ele><time>2026-04-04T14:05:34.866Z</time></trkpt><trkpt lat="45.5555966" lon="11.2082298"><ele>421.0</ele><time>2026-04-04T14:05:35.863Z</time></trkpt><trkpt lat="45.555693" lon="11.2083184"><ele>421.00000000000006</ele><time>2026-04-04T14:05:37.857Z</time></trkpt><trkpt lat="45.5557051" lon="11.208432"><ele>421.0</ele><time>2026-04-04T14:05:38.874Z</time></trkpt><trkpt lat="45.5557051" lon="11.2085529"><ele>421.0</ele><time>2026-04-04T14:05:39.866Z</time></trkpt><trkpt lat="45.5557108" lon="11.2086705"><ele>421.0</ele><time>2026-04-04T14:05:40.864Z</time></trkpt><trkpt lat="45.5557134" lon="11.208798"><ele>421.00000000000006</ele><time>2026-04-04T14:05:41.879Z</time></trkpt><trkpt lat="45.5557291" lon="11.2089223"><ele>421.0</ele><time>2026-04-04T14:05:42.861Z</time></trkpt><trkpt lat="45.5557553" lon="11.2090468"><ele>419.83333333333337</ele><time>2026-04-04T14:05:43.871Z</time></trkpt><trkpt lat="45.5558059" lon="11.2091753"><ele>418.6666666666667</ele><time>2026-04-04T14:05:44.864Z</time></trkpt><trkpt lat="45.5558614" lon="11.2092784"><ele>417.5</ele><time>2026-04-04T14:05:45.871Z</time></trkpt><trkpt lat="45.5559222" lon="11.2093533"><ele>416.33333333333337</ele><time>2026-04-04T14:05:46.856Z</time></trkpt><trkpt lat="45.5559822" lon="11.209408"><ele>415.1666666666667</ele><time>2026-04-04T14:05:47.861Z</time></trkpt><trkpt lat="45.5560671" lon="11.2094823"><ele>414.0</ele><time>2026-04-04T14:05:49.869Z</time></trkpt><trkpt lat="45.5561288" lon="11.2095182"><ele>416.5</ele><time>2026-04-04T14:05:51.863Z</time></trkpt><trkpt lat="45.5562104" lon="11.2094296"><ele>419.0</ele><time>2026-04-04T14:05:53.866Z</time></trkpt><trkpt lat="45.5562467" lon="11.2093489"><ele>421.5</ele><time>2026-04-04T14:05:54.861Z</time></trkpt><trkpt lat="45.5562919" lon="11.2092618"><ele>424.0</ele><time>2026-04-04T14:05:55.867Z</time></trkpt><trkpt lat="45.5563361" lon="11.2091689"><ele>426.5</ele><time>2026-04-04T14:05:56.859Z</time></trkpt><trkpt lat="45.5563832" lon="11.2090787"><ele>429.0</ele><time>2026-04-04T14:05:57.872Z</time></trkpt><trkpt lat="45.5564303" lon="11.2089831"><ele>429.1666666666667</ele><time>2026-04-04T14:05:58.872Z</time></trkpt><trkpt lat="45.5564792" lon="11.2088853"><ele>429.33333333333337</ele><time>2026-04-04T14:05:59.861Z</time></trkpt><trkpt lat="45.5565221" lon="11.208797"><ele>429.5</ele><time>2026-04-04T14:06:00.876Z</time></trkpt><trkpt lat="45.5565622" lon="11.2087254"><ele>429.6666666666667</ele><time>2026-04-04T14:06:01.861Z</time></trkpt><trkpt lat="45.5566625" lon="11.2087084"><ele>429.83333333333337</ele><time>2026-04-04T14:06:03.87Z</time></trkpt><trkpt lat="45.5567171" lon="11.2088378"><ele>430.0</ele><time>2026-04-04T14:06:05.87Z</time></trkpt><trkpt lat="45.5567194" lon="11.2089902"><ele>430.0</ele><time>2026-04-04T14:06:07.864Z</time></trkpt><trkpt lat="45.5568025" lon="11.209072"><ele>430.0</ele><time>2026-04-04T14:06:09.867Z</time></trkpt><trkpt lat="45.5569056" lon="11.2089662"><ele>430.0</ele><time>2026-04-04T14:06:11.868Z</time></trkpt><trkpt lat="45.5569562" lon="11.2088869"><ele>430.0</ele><time>2026-04-04T14:06:12.864Z</time></trkpt><trkpt lat="45.5570072" lon="11.2088004"><ele>430.0</ele><time>2026-04-04T14:06:13.873Z</time></trkpt><trkpt lat="45.5570608" lon="11.2087147"><ele>432.1666666666667</ele><time>2026-04-04T14:06:14.862Z</time></trkpt><trkpt lat="45.5571159" lon="11.2086184"><ele>434.33333333333337</ele><time>2026-04-04T14:06:15.862Z</time></trkpt><trkpt lat="45.557174" lon="11.2085238"><ele>436.5</ele><time>2026-04-04T14:06:16.873Z</time></trkpt><trkpt lat="45.5572352" lon="11.2084304"><ele>438.66666666666663</ele><time>2026-04-04T14:06:17.863Z</time></trkpt><trkpt lat="45.5572965" lon="11.2083304"><ele>440.8333333333333</ele><time>2026-04-04T14:06:18.861Z</time></trkpt><trkpt lat="45.5573557" lon="11.2082305"><ele>443.0</ele><time>2026-04-04T14:06:19.863Z</time></trkpt><trkpt lat="45.5574131" lon="11.2081301"><ele>443.66666666666663</ele><time>2026-04-04T14:06:20.874Z</time></trkpt><trkpt lat="45.5574757" lon="11.2080331"><ele>444.3333333333333</ele><time>2026-04-04T14:06:21.862Z</time></trkpt><trkpt lat="45.5575333" lon="11.2079348"><ele>445.0</ele><time>2026-04-04T14:06:22.865Z</time></trkpt><trkpt lat="45.5575809" lon="11.2078258"><ele>445.66666666666663</ele><time>2026-04-04T14:06:23.874Z</time></trkpt><trkpt lat="45.5576171" lon="11.2077131"><ele>446.3333333333333</ele><time>2026-04-04T14:06:24.864Z</time></trkpt><trkpt lat="45.5576303" lon="11.2075939"><ele>447.0</ele><time>2026-04-04T14:06:25.867Z</time></trkpt><trkpt lat="45.5576287" lon="11.2074683"><ele>449.25</ele><time>2026-04-04T14:06:26.863Z</time></trkpt><trkpt lat="45.5576127" lon="11.2073239"><ele>451.5</ele><time>2026-04-04T14:06:27.861Z</time></trkpt><trkpt lat="45.5575858" lon="11.2071641"><ele>453.75</ele><time>2026-04-04T14:06:28.871Z</time></trkpt><trkpt lat="45.5575531" lon="11.2069879"><ele>456.0</ele><time>2026-04-04T14:06:29.862Z</time></trkpt><trkpt lat="45.5575239" lon="11.2068304"><ele>456.0</ele><time>2026-04-04T14:06:30.861Z</time></trkpt><trkpt lat="45.5575018" lon="11.206704"><ele>456.0</ele><time>2026-04-04T14:06:31.866Z</time></trkpt><trkpt lat="45.5574878" lon="11.2066098"><ele>456.0</ele><time>2026-04-04T14:06:32.862Z</time></trkpt><trkpt lat="45.5575262" lon="11.2064609"><ele>456.0</ele><time>2026-04-04T14:06:34.857Z</time></trkpt><trkpt lat="45.5576812" lon="11.2065028"><ele>456.0</ele><time>2026-04-04T14:06:36.869Z</time></trkpt><trkpt lat="45.5577677" lon="11.2065374"><ele>456.0</ele><time>2026-04-04T14:06:37.863Z</time></trkpt><trkpt lat="45.557867" lon="11.2065648"><ele>456.0</ele><time>2026-04-04T14:06:38.865Z</time></trkpt><trkpt lat="45.5579637" lon="11.2065952"><ele>456.0</ele><time>2026-04-04T14:06:39.862Z</time></trkpt><trkpt lat="45.5580596" lon="11.2066304"><ele>456.0</ele><time>2026-04-04T14:06:40.864Z</time></trkpt><trkpt lat="45.5581593" lon="11.206675"><ele>456.0</ele><time>2026-04-04T14:06:41.868Z</time></trkpt><trkpt lat="45.558253" lon="11.2067387"><ele>457.8</ele><time>2026-04-04T14:06:42.862Z</time></trkpt><trkpt lat="45.5583348" lon="11.2068275"><ele>459.6</ele><time>2026-04-04T14:06:43.871Z</time></trkpt><trkpt lat="45.5583935" lon="11.2069431"><ele>461.4</ele><time>2026-04-04T14:06:44.861Z</time></trkpt><trkpt lat="45.5584434" lon="11.2070711"><ele>463.2</ele><time>2026-04-04T14:06:45.868Z</time></trkpt><trkpt lat="45.558487" lon="11.2072158"><ele>465.0</ele><time>2026-04-04T14:06:46.867Z</time></trkpt><trkpt lat="45.5585259" lon="11.2073599"><ele>465.0</ele><time>2026-04-04T14:06:47.864Z</time></trkpt><trkpt lat="45.5585647" lon="11.2075002"><ele>465.0</ele><time>2026-04-04T14:06:48.86Z</time></trkpt><trkpt lat="45.5586032" lon="11.2076424"><ele>465.0</ele><time>2026-04-04T14:06:49.865Z</time></trkpt><trkpt lat="45.558637" lon="11.2077784"><ele>465.0</ele><time>2026-04-04T14:06:50.864Z</time></trkpt><trkpt lat="45.5586732" lon="11.2079157"><ele>465.0</ele><time>2026-04-04T14:06:51.882Z</time></trkpt><trkpt lat="45.5587039" lon="11.2080562"><ele>468.8</ele><time>2026-04-04T14:06:52.859Z</time></trkpt><trkpt lat="45.5587362" lon="11.2082112"><ele>472.6</ele><time>2026-04-04T14:06:53.868Z</time></trkpt><trkpt lat="45.5587702" lon="11.208373"><ele>476.4</ele><time>2026-04-04T14:06:54.877Z</time></trkpt><trkpt lat="45.558806" lon="11.2085242"><ele>480.2</ele><time>2026-04-04T14:06:55.862Z</time></trkpt><trkpt lat="45.5588474" lon="11.2086507"><ele>484.0</ele><time>2026-04-04T14:06:56.872Z</time></trkpt><trkpt lat="45.5588897" lon="11.2087426"><ele>484.00000000000006</ele><time>2026-04-04T14:06:57.86Z</time></trkpt><trkpt lat="45.5589536" lon="11.2087988"><ele>484.0</ele><time>2026-04-04T14:06:58.874Z</time></trkpt><trkpt lat="45.559023" lon="11.2087946"><ele>484.0</ele><time>2026-04-04T14:06:59.862Z</time></trkpt><trkpt lat="45.559095" lon="11.2087298"><ele>484.0</ele><time>2026-04-04T14:07:00.862Z</time></trkpt><trkpt lat="45.5591729" lon="11.2086396"><ele>484.00000000000006</ele><time>2026-04-04T14:07:01.869Z</time></trkpt><trkpt lat="45.5592571" lon="11.208538"><ele>484.0</ele><time>2026-04-04T14:07:02.862Z</time></trkpt><trkpt lat="45.5593626" lon="11.2084167"><ele>484.0</ele><time>2026-04-04T14:07:03.87Z</time></trkpt><trkpt lat="45.5594747" lon="11.2082817"><ele>484.0</ele><time>2026-04-04T14:07:04.865Z</time></trkpt><trkpt lat="45.5595804" lon="11.2081577"><ele>484.0</ele><time>2026-04-04T14:07:05.874Z</time></trkpt><trkpt lat="45.5596719" lon="11.2080506"><ele>484.0</ele><time>2026-04-04T14:07:06.858Z</time></trkpt><trkpt lat="45.559763" lon="11.2079446"><ele>488.0</ele><time>2026-04-04T14:07:07.863Z</time></trkpt><trkpt lat="45.5598742" lon="11.207839"><ele>492.0</ele><time>2026-04-04T14:07:08.872Z</time></trkpt><trkpt lat="45.5599902" lon="11.207774"><ele>496.0</ele><time>2026-04-04T14:07:09.863Z</time></trkpt><trkpt lat="45.5601096" lon="11.2077474"><ele>500.0</ele><time>2026-04-04T14:07:10.858Z</time></trkpt><trkpt lat="45.5602235" lon="11.2077397"><ele>500.0</ele><time>2026-04-04T14:07:11.861Z</time></trkpt><trkpt lat="45.5603316" lon="11.2077428"><ele>500.0</ele><time>2026-04-04T14:07:12.871Z</time></trkpt><trkpt lat="45.5604402" lon="11.2077615"><ele>500.0</ele><time>2026-04-04T14:07:13.865Z</time></trkpt><trkpt lat="45.5605581" lon="11.2078044"><ele>500.0</ele><time>2026-04-04T14:07:14.86Z</time></trkpt><trkpt lat="45.5606742" lon="11.207901"><ele>499.75</ele><time>2026-04-04T14:07:15.865Z</time></trkpt><trkpt lat="45.5607934" lon="11.2080232"><ele>499.5</ele><time>2026-04-04T14:07:16.861Z</time></trkpt><trkpt lat="45.5609025" lon="11.2081429"><ele>499.25</ele><time>2026-04-04T14:07:17.863Z</time></trkpt><trkpt lat="45.5610154" lon="11.2082721"><ele>499.0</ele><time>2026-04-04T14:07:18.865Z</time></trkpt><trkpt lat="45.561124" lon="11.2083825"><ele>502.25</ele><time>2026-04-04T14:07:19.862Z</time></trkpt><trkpt lat="45.5612436" lon="11.2084809"><ele>505.5</ele><time>2026-04-04T14:07:20.867Z</time></trkpt><trkpt lat="45.5613762" lon="11.2085441"><ele>508.75</ele><time>2026-04-04T14:07:21.862Z</time></trkpt><trkpt lat="45.5615084" lon="11.208623"><ele>512.0</ele><time>2026-04-04T14:07:22.865Z</time></trkpt><trkpt lat="45.5616397" lon="11.2087126"><ele>512.0</ele><time>2026-04-04T14:07:23.872Z</time></trkpt><trkpt lat="45.5617687" lon="11.2087962"><ele>512.0</ele><time>2026-04-04T14:07:24.858Z</time></trkpt><trkpt lat="45.561897" lon="11.2088759"><ele>512.0</ele><time>2026-04-04T14:07:25.862Z</time></trkpt><trkpt lat="45.5620096" lon="11.2089506"><ele>512.0</ele><time>2026-04-04T14:07:26.86Z</time></trkpt><trkpt lat="45.5621096" lon="11.2090146"><ele>512.6666666666666</ele><time>2026-04-04T14:07:27.874Z</time></trkpt><trkpt lat="45.562196" lon="11.2090744"><ele>513.3333333333333</ele><time>2026-04-04T14:07:28.859Z</time></trkpt><trkpt lat="45.5622616" lon="11.209122"><ele>514.0</ele><time>2026-04-04T14:07:29.873Z</time></trkpt><trkpt lat="45.5623215" lon="11.2091525"><ele>514.6666666666666</ele><time>2026-04-04T14:07:30.859Z</time></trkpt><trkpt lat="45.5624176" lon="11.2090693"><ele>515.3333333333334</ele><time>2026-04-04T14:07:32.869Z</time></trkpt><trkpt lat="45.5624073" lon="11.2089654"><ele>516.0</ele><time>2026-04-04T14:07:33.866Z</time></trkpt><trkpt lat="45.5623595" lon="11.2088601"><ele>517.2</ele><time>2026-04-04T14:07:34.864Z</time></trkpt><trkpt lat="45.5623116" lon="11.2087453"><ele>518.4000000000001</ele><time>2026-04-04T14:07:35.86Z</time></trkpt><trkpt lat="45.5622611" lon="11.2086203"><ele>519.6</ele><time>2026-04-04T14:07:36.865Z</time></trkpt><trkpt lat="45.5622094" lon="11.208497"><ele>520.8000000000001</ele><time>2026-04-04T14:07:37.859Z</time></trkpt><trkpt lat="45.5621585" lon="11.2083754"><ele>522.0</ele><time>2026-04-04T14:07:38.87Z</time></trkpt><trkpt lat="45.5621103" lon="11.2082649"><ele>521.8333333333334</ele><time>2026-04-04T14:07:39.862Z</time></trkpt><trkpt lat="45.5620591" lon="11.2081489"><ele>521.6666666666666</ele><time>2026-04-04T14:07:40.861Z</time></trkpt><trkpt lat="45.5620124" lon="11.2080459"><ele>521.5</ele><time>2026-04-04T14:07:41.865Z</time></trkpt><trkpt lat="45.5619646" lon="11.2079421"><ele>521.3333333333333</ele><time>2026-04-04T14:07:42.87Z</time></trkpt><trkpt lat="45.561919" lon="11.2078392"><ele>521.1666666666666</ele><time>2026-04-04T14:07:43.868Z</time></trkpt><trkpt lat="45.561875" lon="11.207729"><ele>521.0</ele><time>2026-04-04T14:07:44.864Z</time></trkpt><trkpt lat="45.5618314" lon="11.2076175"><ele>521.0</ele><time>2026-04-04T14:07:45.87Z</time></trkpt><trkpt lat="45.5617899" lon="11.2075035"><ele>521.0</ele><time>2026-04-04T14:07:46.853Z</time></trkpt><trkpt lat="45.5617588" lon="11.2073857"><ele>521.0</ele><time>2026-04-04T14:07:47.87Z</time></trkpt><trkpt lat="45.5617402" lon="11.2072918"><ele>521.0</ele><time>2026-04-04T14:07:48.862Z</time></trkpt><trkpt lat="45.5617442" lon="11.2071791"><ele>521.0</ele><time>2026-04-04T14:07:49.867Z</time></trkpt><trkpt lat="45.5617651" lon="11.2070771"><ele>521.0</ele><time>2026-04-04T14:07:50.872Z</time></trkpt><trkpt lat="45.5618099" lon="11.2069996"><ele>521.5</ele><time>2026-04-04T14:07:51.865Z</time></trkpt><trkpt lat="45.561861" lon="11.2069297"><ele>522.0</ele><time>2026-04-04T14:07:52.869Z</time></trkpt><trkpt lat="45.5619467" lon="11.2068398"><ele>522.5</ele><time>2026-04-04T14:07:54.858Z</time></trkpt><trkpt lat="45.5620057" lon="11.2067813"><ele>523.0</ele><time>2026-04-04T14:07:57.868Z</time></trkpt><trkpt lat="45.5620773" lon="11.2067176"><ele>523.5</ele><time>2026-04-04T14:08:02.862Z</time></trkpt><trkpt lat="45.5621293" lon="11.2067722"><ele>524.0</ele><time>2026-04-04T14:08:04.858Z</time></trkpt><trkpt lat="45.5621799" lon="11.2068409"><ele>524.0</ele><time>2026-04-04T14:08:06.863Z</time></trkpt><trkpt lat="45.5622292" lon="11.2069302"><ele>524.0</ele><time>2026-04-04T14:08:08.861Z</time></trkpt><trkpt lat="45.5622868" lon="11.2070417"><ele>524.0</ele><time>2026-04-04T14:08:10.868Z</time></trkpt><trkpt lat="45.5623437" lon="11.2071576"><ele>524.0</ele><time>2026-04-04T14:08:12.866Z</time></trkpt><trkpt lat="45.5623995" lon="11.2072879"><ele>524.0</ele><time>2026-04-04T14:08:14.859Z</time></trkpt><trkpt lat="45.562437" lon="11.2074033"><ele>524.0</ele><time>2026-04-04T14:08:16.866Z</time></trkpt><trkpt lat="45.5624773" lon="11.2075501"><ele>524.0</ele><time>2026-04-04T14:08:18.862Z</time></trkpt><trkpt lat="45.5625569" lon="11.2075569"><ele>524.0</ele><time>2026-04-04T14:08:20.871Z</time></trkpt><trkpt lat="45.5625722" lon="11.2074433"><ele>524.0</ele><time>2026-04-04T14:08:21.866Z</time></trkpt><trkpt lat="45.5625627" lon="11.2073422"><ele>524.0</ele><time>2026-04-04T14:08:22.861Z</time></trkpt><trkpt lat="45.5625544" lon="11.2072507"><ele>524.0</ele><time>2026-04-04T14:08:23.865Z</time></trkpt><trkpt lat="45.5625458" lon="11.2071572"><ele>524.0</ele><time>2026-04-04T14:08:24.869Z</time></trkpt><trkpt lat="45.5625424" lon="11.2070597"><ele>524.0</ele><time>2026-04-04T14:08:25.862Z</time></trkpt><trkpt lat="45.5625428" lon="11.2069654"><ele>524.0</ele><time>2026-04-04T14:08:26.864Z</time></trkpt><trkpt lat="45.5625779" lon="11.2068004"><ele>524.0</ele><time>2026-04-04T14:08:28.864Z</time></trkpt><trkpt lat="45.562616" lon="11.2067196"><ele>524.0</ele><time>2026-04-04T14:08:29.88Z</time></trkpt><trkpt lat="45.5626737" lon="11.2066738"><ele>524.0</ele><time>2026-04-04T14:08:30.871Z</time></trkpt><trkpt lat="45.5627366" lon="11.2066355"><ele>524.0</ele><time>2026-04-04T14:08:31.863Z</time></trkpt><trkpt lat="45.562804" lon="11.2065907"><ele>524.0</ele><time>2026-04-04T14:08:32.87Z</time></trkpt><trkpt lat="45.562885" lon="11.2065272"><ele>524.0</ele><time>2026-04-04T14:08:33.863Z</time></trkpt><trkpt lat="45.5629506" lon="11.206451"><ele>524.0</ele><time>2026-04-04T14:08:34.853Z</time></trkpt><trkpt lat="45.5630004" lon="11.2063622"><ele>524.0</ele><time>2026-04-04T14:08:35.861Z</time></trkpt><trkpt lat="45.5630364" lon="11.2062625"><ele>524.0</ele><time>2026-04-04T14:08:36.865Z</time></trkpt><trkpt lat="45.5630674" lon="11.2061518"><ele>521.8333333333333</ele><time>2026-04-04T14:08:37.863Z</time></trkpt><trkpt lat="45.5630969" lon="11.2060371"><ele>519.6666666666666</ele><time>2026-04-04T14:08:38.862Z</time></trkpt><trkpt lat="45.5631248" lon="11.2059278"><ele>517.5</ele><time>2026-04-04T14:08:39.861Z</time></trkpt><trkpt lat="45.5631501" lon="11.205826"><ele>515.3333333333334</ele><time>2026-04-04T14:08:40.864Z</time></trkpt><trkpt lat="45.5631684" lon="11.2057204"><ele>513.1666666666667</ele><time>2026-04-04T14:08:41.876Z</time></trkpt><trkpt lat="45.5631824" lon="11.2056194"><ele>511.0</ele><time>2026-04-04T14:08:42.856Z</time></trkpt><trkpt lat="45.5631919" lon="11.2055153"><ele>511.0</ele><time>2026-04-04T14:08:43.872Z</time></trkpt><trkpt lat="45.5631883" lon="11.2054206"><ele>511.0</ele><time>2026-04-04T14:08:44.869Z</time></trkpt><trkpt lat="45.5631751" lon="11.2053274"><ele>511.0</ele><time>2026-04-04T14:08:45.874Z</time></trkpt><trkpt lat="45.5631535" lon="11.2052386"><ele>511.0</ele><time>2026-04-04T14:08:46.863Z</time></trkpt><trkpt lat="45.5631263" lon="11.2051344"><ele>511.0</ele><time>2026-04-04T14:08:47.861Z</time></trkpt><trkpt lat="45.563112" lon="11.2050103"><ele>511.0</ele><time>2026-04-04T14:08:48.872Z</time></trkpt><trkpt lat="45.5631139" lon="11.2048997"><ele>511.0</ele><time>2026-04-04T14:08:49.866Z</time></trkpt><trkpt lat="45.5631243" lon="11.2047955"><ele>513.4</ele><time>2026-04-04T14:08:50.857Z</time></trkpt><trkpt lat="45.5631415" lon="11.2046994"><ele>515.8</ele><time>2026-04-04T14:08:51.868Z</time></trkpt><trkpt lat="45.5632236" lon="11.2045803"><ele>518.1999999999999</ele><time>2026-04-04T14:08:53.867Z</time></trkpt><trkpt lat="45.5633359" lon="11.2044849"><ele>520.6</ele><time>2026-04-04T14:08:55.873Z</time></trkpt><trkpt lat="45.5634307" lon="11.2044604"><ele>523.0</ele><time>2026-04-04T14:08:56.863Z</time></trkpt><trkpt lat="45.563523" lon="11.2044557"><ele>523.0</ele><time>2026-04-04T14:08:57.86Z</time></trkpt><trkpt lat="45.5636197" lon="11.2044816"><ele>523.0</ele><time>2026-04-04T14:08:58.866Z</time></trkpt><trkpt lat="45.5637091" lon="11.2045178"><ele>523.0</ele><time>2026-04-04T14:08:59.857Z</time></trkpt><trkpt lat="45.5637937" lon="11.204582"><ele>523.0</ele><time>2026-04-04T14:09:00.865Z</time></trkpt><trkpt lat="45.5638833" lon="11.2046897"><ele>523.0</ele><time>2026-04-04T14:09:01.864Z</time></trkpt><trkpt lat="45.5639886" lon="11.2048251"><ele>520.0</ele><time>2026-04-04T14:09:02.856Z</time></trkpt><trkpt lat="45.5640714" lon="11.2049501"><ele>517.0</ele><time>2026-04-04T14:09:03.861Z</time></trkpt><trkpt lat="45.5641426" lon="11.2050585"><ele>514.0</ele><time>2026-04-04T14:09:04.864Z</time></trkpt><trkpt lat="45.5642142" lon="11.2051656"><ele>511.0</ele><time>2026-04-04T14:09:05.858Z</time></trkpt><trkpt lat="45.5642936" lon="11.2052721"><ele>508.0</ele><time>2026-04-04T14:09:06.861Z</time></trkpt><trkpt lat="45.564369" lon="11.205384"><ele>508.0</ele><time>2026-04-04T14:09:07.877Z</time></trkpt><trkpt lat="45.5644405" lon="11.2054873"><ele>507.99999999999994</ele><time>2026-04-04T14:09:08.872Z</time></trkpt><trkpt lat="45.5645157" lon="11.205593"><ele>507.99999999999994</ele><time>2026-04-04T14:09:09.862Z</time></trkpt><trkpt lat="45.5645806" lon="11.2056886"><ele>508.0</ele><time>2026-04-04T14:09:10.865Z</time></trkpt><trkpt lat="45.5646447" lon="11.2057704"><ele>508.0</ele><time>2026-04-04T14:09:11.861Z</time></trkpt><trkpt lat="45.5647098" lon="11.2058425"><ele>506.50000000000006</ele><time>2026-04-04T14:09:12.873Z</time></trkpt><trkpt lat="45.5647851" lon="11.2058891"><ele>505.0</ele><time>2026-04-04T14:09:13.861Z</time></trkpt><trkpt lat="45.5648697" lon="11.2059007"><ele>503.5</ele><time>2026-04-04T14:09:14.856Z</time></trkpt><trkpt lat="45.5649622" lon="11.2058856"><ele>502.0</ele><time>2026-04-04T14:09:15.863Z</time></trkpt><trkpt lat="45.5650568" lon="11.2058642"><ele>500.50000000000006</ele><time>2026-04-04T14:09:16.861Z</time></trkpt><trkpt lat="45.5651429" lon="11.2058445"><ele>499.0</ele><time>2026-04-04T14:09:17.866Z</time></trkpt><trkpt lat="45.5652263" lon="11.2058246"><ele>499.00000000000006</ele><time>2026-04-04T14:09:18.863Z</time></trkpt><trkpt lat="45.5653041" lon="11.2058079"><ele>499.0</ele><time>2026-04-04T14:09:19.871Z</time></trkpt><trkpt lat="45.5653833" lon="11.205794"><ele>499.0</ele><time>2026-04-04T14:09:20.868Z</time></trkpt><trkpt lat="45.5654778" lon="11.2057758"><ele>499.0</ele><time>2026-04-04T14:09:21.868Z</time></trkpt><trkpt lat="45.5655692" lon="11.2057602"><ele>499.00000000000006</ele><time>2026-04-04T14:09:22.857Z</time></trkpt><trkpt lat="45.5656557" lon="11.2057496"><ele>499.0</ele><time>2026-04-04T14:09:23.861Z</time></trkpt><trkpt lat="45.5657336" lon="11.2057299"><ele>496.83333333333337</ele><time>2026-04-04T14:09:24.865Z</time></trkpt><trkpt lat="45.5658033" lon="11.2057147"><ele>494.6666666666667</ele><time>2026-04-04T14:09:25.859Z</time></trkpt><trkpt lat="45.5658664" lon="11.2057039"><ele>492.5</ele><time>2026-04-04T14:09:26.864Z</time></trkpt><trkpt lat="45.5659302" lon="11.2057849"><ele>490.33333333333337</ele><time>2026-04-04T14:09:28.865Z</time></trkpt><trkpt lat="45.5658652" lon="11.2059407"><ele>488.1666666666667</ele><time>2026-04-04T14:09:30.858Z</time></trkpt><trkpt lat="45.5657983" lon="11.2060024"><ele>486.0</ele><time>2026-04-04T14:09:31.859Z</time></trkpt><trkpt lat="45.5657299" lon="11.2060537"><ele>486.0</ele><time>2026-04-04T14:09:32.86Z</time></trkpt><trkpt lat="45.5656563" lon="11.2061303"><ele>486.0</ele><time>2026-04-04T14:09:33.868Z</time></trkpt><trkpt lat="45.5655856" lon="11.2061845"><ele>486.0</ele><time>2026-04-04T14:09:34.86Z</time></trkpt><trkpt lat="45.5655246" lon="11.2062388"><ele>486.0</ele><time>2026-04-04T14:09:35.862Z</time></trkpt><trkpt lat="45.5654741" lon="11.2062993"><ele>486.0</ele><time>2026-04-04T14:09:36.87Z</time></trkpt><trkpt lat="45.565431" lon="11.2064584"><ele>486.0</ele><time>2026-04-04T14:09:38.862Z</time></trkpt><trkpt lat="45.5654772" lon="11.2065468"><ele>485.1666666666667</ele><time>2026-04-04T14:09:39.867Z</time></trkpt><trkpt lat="45.565526" lon="11.2066055"><ele>484.33333333333337</ele><time>2026-04-04T14:09:40.869Z</time></trkpt><trkpt lat="45.5656097" lon="11.2066312"><ele>483.5</ele><time>2026-04-04T14:09:42.865Z</time></trkpt><trkpt lat="45.5656779" lon="11.2066111"><ele>482.6666666666667</ele><time>2026-04-04T14:09:44.866Z</time></trkpt><trkpt lat="45.565773" lon="11.2065941"><ele>481.83333333333337</ele><time>2026-04-04T14:09:46.856Z</time></trkpt><trkpt lat="45.5658851" lon="11.2065802"><ele>481.0</ele><time>2026-04-04T14:09:48.864Z</time></trkpt><trkpt lat="45.566005" lon="11.206556"><ele>481.0</ele><time>2026-04-04T14:09:50.866Z</time></trkpt><trkpt lat="45.566079" lon="11.2065367"><ele>481.0</ele><time>2026-04-04T14:09:51.865Z</time></trkpt><trkpt lat="45.5661598" lon="11.2065069"><ele>481.0</ele><time>2026-04-04T14:09:52.867Z</time></trkpt><trkpt lat="45.5662758" lon="11.206459"><ele>481.0</ele><time>2026-04-04T14:09:53.872Z</time></trkpt><trkpt lat="45.5663755" lon="11.2064679"><ele>481.0</ele><time>2026-04-04T14:09:54.857Z</time></trkpt><trkpt lat="45.5664902" lon="11.2065495"><ele>476.75</ele><time>2026-04-04T14:09:55.873Z</time></trkpt><trkpt lat="45.5666083" lon="11.20664"><ele>472.5</ele><time>2026-04-04T14:09:56.861Z</time></trkpt><trkpt lat="45.5667154" lon="11.2067244"><ele>468.25</ele><time>2026-04-04T14:09:57.864Z</time></trkpt><trkpt lat="45.5668136" lon="11.2068107"><ele>464.0</ele><time>2026-04-04T14:09:58.872Z</time></trkpt><trkpt lat="45.5668891" lon="11.2068805"><ele>463.99999999999994</ele><time>2026-04-04T14:09:59.859Z</time></trkpt><trkpt lat="45.5669418" lon="11.2069549"><ele>464.0</ele><time>2026-04-04T14:10:00.86Z</time></trkpt><trkpt lat="45.5669698" lon="11.2070435"><ele>464.0</ele><time>2026-04-04T14:10:01.861Z</time></trkpt><trkpt lat="45.5669174" lon="11.2071887"><ele>464.0</ele><time>2026-04-04T14:10:03.867Z</time></trkpt><trkpt lat="45.5668357" lon="11.207219"><ele>463.99999999999994</ele><time>2026-04-04T14:10:04.857Z</time></trkpt><trkpt lat="45.5667412" lon="11.2072131"><ele>464.0</ele><time>2026-04-04T14:10:05.873Z</time></trkpt><trkpt lat="45.5666518" lon="11.2072046"><ele>464.0</ele><time>2026-04-04T14:10:06.866Z</time></trkpt><trkpt lat="45.566574" lon="11.2072278"><ele>464.0</ele><time>2026-04-04T14:10:07.864Z</time></trkpt><trkpt lat="45.5664976" lon="11.2073027"><ele>464.0</ele><time>2026-04-04T14:10:09.866Z</time></trkpt><trkpt lat="45.5665473" lon="11.2074233"><ele>464.0</ele><time>2026-04-04T14:10:12.871Z</time></trkpt><trkpt lat="45.5666163" lon="11.2074908"><ele>464.0</ele><time>2026-04-04T14:10:14.866Z</time></trkpt><trkpt lat="45.5667016" lon="11.2075632"><ele>463.1428571428572</ele><time>2026-04-04T14:10:16.862Z</time></trkpt><trkpt lat="45.5667606" lon="11.2076078"><ele>462.28571428571433</ele><time>2026-04-04T14:10:17.875Z</time></trkpt><trkpt lat="45.5668315" lon="11.2076465"><ele>461.42857142857144</ele><time>2026-04-04T14:10:18.857Z</time></trkpt><trkpt lat="45.5668966" lon="11.2076828"><ele>460.5714285714286</ele><time>2026-04-04T14:10:19.868Z</time></trkpt><trkpt lat="45.5669601" lon="11.2077102"><ele>459.7142857142858</ele><time>2026-04-04T14:10:20.865Z</time></trkpt><trkpt lat="45.5670276" lon="11.2077387"><ele>458.85714285714283</ele><time>2026-04-04T14:10:21.864Z</time></trkpt><trkpt lat="45.5671011" lon="11.2077595"><ele>458.0</ele><time>2026-04-04T14:10:22.86Z</time></trkpt><trkpt lat="45.56717" lon="11.2077703"><ele>455.7142857142857</ele><time>2026-04-04T14:10:23.862Z</time></trkpt><trkpt lat="45.567237" lon="11.2077618"><ele>453.42857142857144</ele><time>2026-04-04T14:10:24.869Z</time></trkpt><trkpt lat="45.5673014" lon="11.207731"><ele>451.14285714285717</ele><time>2026-04-04T14:10:25.864Z</time></trkpt><trkpt lat="45.5673632" lon="11.207682"><ele>448.8571428571429</ele><time>2026-04-04T14:10:26.856Z</time></trkpt><trkpt lat="45.567417" lon="11.2076134"><ele>446.57142857142856</ele><time>2026-04-04T14:10:27.863Z</time></trkpt><trkpt lat="45.5674636" lon="11.2075431"><ele>444.28571428571433</ele><time>2026-04-04T14:10:28.869Z</time></trkpt><trkpt lat="45.5675048" lon="11.2074669"><ele>442.0</ele><time>2026-04-04T14:10:29.865Z</time></trkpt><trkpt lat="45.5675407" lon="11.2073853"><ele>442.1666666666667</ele><time>2026-04-04T14:10:30.866Z</time></trkpt><trkpt lat="45.5675703" lon="11.2072973"><ele>442.33333333333337</ele><time>2026-04-04T14:10:31.866Z</time></trkpt><trkpt lat="45.5675912" lon="11.2072117"><ele>442.5</ele><time>2026-04-04T14:10:32.866Z</time></trkpt><trkpt lat="45.5676219" lon="11.2071294"><ele>442.66666666666663</ele><time>2026-04-04T14:10:33.86Z</time></trkpt><trkpt lat="45.5677201" lon="11.2070434"><ele>442.8333333333333</ele><time>2026-04-04T14:10:35.874Z</time></trkpt><trkpt lat="45.5678214" lon="11.2070127"><ele>443.0</ele><time>2026-04-04T14:10:37.865Z</time></trkpt><trkpt lat="45.5679131" lon="11.2069798"><ele>442.99999999999994</ele><time>2026-04-04T14:10:39.862Z</time></trkpt><trkpt lat="45.5679811" lon="11.2069474"><ele>443.0</ele><time>2026-04-04T14:10:41.86Z</time></trkpt><trkpt lat="45.5680589" lon="11.2068948"><ele>443.0</ele><time>2026-04-04T14:10:43.866Z</time></trkpt><trkpt lat="45.5681241" lon="11.2068456"><ele>443.0</ele><time>2026-04-04T14:10:44.859Z</time></trkpt><trkpt lat="45.5682022" lon="11.20679"><ele>442.99999999999994</ele><time>2026-04-04T14:10:45.868Z</time></trkpt><trkpt lat="45.5682769" lon="11.2067341"><ele>443.0</ele><time>2026-04-04T14:10:46.86Z</time></trkpt><trkpt lat="45.5683667" lon="11.2066699"><ele>442.99999999999994</ele><time>2026-04-04T14:10:47.861Z</time></trkpt><trkpt lat="45.56846" lon="11.2066081"><ele>443.0</ele><time>2026-04-04T14:10:48.86Z</time></trkpt><trkpt lat="45.5685397" lon="11.2065646"><ele>443.0</ele><time>2026-04-04T14:10:49.866Z</time></trkpt><trkpt lat="45.5686037" lon="11.2065261"><ele>443.0</ele><time>2026-04-04T14:10:50.865Z</time></trkpt><trkpt lat="45.5686799" lon="11.206515"><ele>442.99999999999994</ele><time>2026-04-04T14:10:52.886Z</time></trkpt><trkpt lat="45.5687311" lon="11.2064466"><ele>443.0</ele><time>2026-04-04T14:11:25.868Z</time></trkpt><trkpt lat="45.5687289" lon="11.206342"><ele>444.14285714285717</ele><time>2026-04-04T14:11:37.856Z</time></trkpt><trkpt lat="45.5687236" lon="11.206249"><ele>445.28571428571433</ele><time>2026-04-04T14:11:42.875Z</time></trkpt><trkpt lat="45.5687591" lon="11.2061517"><ele>446.42857142857144</ele><time>2026-04-04T14:11:49.86Z</time></trkpt><trkpt lat="45.568795" lon="11.2060688"><ele>447.57142857142856</ele><time>2026-04-04T14:11:55.861Z</time></trkpt><trkpt lat="45.5688545" lon="11.2060203"><ele>448.7142857142857</ele><time>2026-04-04T14:12:01.872Z</time></trkpt><trkpt lat="45.568896" lon="11.2059474"><ele>449.85714285714283</ele><time>2026-04-04T14:12:09.87Z</time></trkpt><trkpt lat="45.5689573" lon="11.2059069"><ele>451.0</ele><time>2026-04-04T14:12:15.697Z</time></trkpt><trkpt lat="45.569019" lon="11.2058722"><ele>451.0</ele><time>2026-04-04T14:12:22.857Z</time></trkpt><trkpt lat="45.5690785" lon="11.2058364"><ele>451.0</ele><time>2026-04-04T14:12:29.86Z</time></trkpt><trkpt lat="45.569141" lon="11.205789"><ele>451.0</ele><time>2026-04-04T14:12:37.861Z</time></trkpt><trkpt lat="45.5692058" lon="11.2057575"><ele>451.0</ele><time>2026-04-04T14:12:45.872Z</time></trkpt><trkpt lat="45.5692649" lon="11.2057256"><ele>451.0</ele><time>2026-04-04T14:12:51.864Z</time></trkpt><trkpt lat="45.5693263" lon="11.2056746"><ele>451.0</ele><time>2026-04-04T14:12:57.86Z</time></trkpt><trkpt lat="45.569391" lon="11.2056434"><ele>451.0</ele><time>2026-04-04T14:13:05.862Z</time></trkpt><trkpt lat="45.569455" lon="11.2056184"><ele>454.2857142857143</ele><time>2026-04-04T14:13:12.86Z</time></trkpt><trkpt lat="45.569513" lon="11.2055811"><ele>457.57142857142856</ele><time>2026-04-04T14:13:19.861Z</time></trkpt><trkpt lat="45.5695782" lon="11.2055641"><ele>460.85714285714283</ele><time>2026-04-04T14:13:25.87Z</time></trkpt><trkpt lat="45.5696367" lon="11.2055146"><ele>464.1428571428571</ele><time>2026-04-04T14:13:33.861Z</time></trkpt><trkpt lat="45.569685" lon="11.2054348"><ele>467.42857142857144</ele><time>2026-04-04T14:13:40.863Z</time></trkpt><trkpt lat="45.5697488" lon="11.2054317"><ele>470.71428571428567</ele><time>2026-04-04T14:13:51.869Z</time></trkpt><trkpt lat="45.5698125" lon="11.2053873"><ele>473.99999999999994</ele><time>2026-04-04T14:13:59.757Z</time></trkpt><trkpt lat="45.5698671" lon="11.2053258"><ele>473.99999999999994</ele><time>2026-04-04T14:14:06.858Z</time></trkpt><trkpt lat="45.5699357" lon="11.205293"><ele>474.0</ele><time>2026-04-04T14:14:13.857Z</time></trkpt><trkpt lat="45.569998" lon="11.2052655"><ele>473.99999999999994</ele><time>2026-04-04T14:14:20.863Z</time></trkpt><trkpt lat="45.5700617" lon="11.205237"><ele>473.99999999999994</ele><time>2026-04-04T14:14:28.865Z</time></trkpt><trkpt lat="45.5701235" lon="11.2052675"><ele>474.0</ele><time>2026-04-04T14:14:36.863Z</time></trkpt><trkpt lat="45.5701898" lon="11.2052379"><ele>473.99999999999994</ele><time>2026-04-04T14:14:44.858Z</time></trkpt><trkpt lat="45.570232" lon="11.2051682"><ele>473.99999999999994</ele><time>2026-04-04T14:14:52.862Z</time></trkpt><trkpt lat="45.5702555" lon="11.2050469"><ele>473.99999999999994</ele><time>2026-04-04T14:15:10.859Z</time></trkpt><trkpt lat="45.5702657" lon="11.2049503"><ele>474.0</ele><time>2026-04-04T14:15:16.863Z</time></trkpt><trkpt lat="45.5703213" lon="11.2048836"><ele>473.99999999999994</ele><time>2026-04-04T14:15:24.857Z</time></trkpt><trkpt lat="45.5703794" lon="11.2048385"><ele>473.99999999999994</ele><time>2026-04-04T14:15:33.861Z</time></trkpt><trkpt lat="45.5704441" lon="11.2048071"><ele>474.0</ele><time>2026-04-04T14:15:42.861Z</time></trkpt><trkpt lat="45.5705081" lon="11.2047722"><ele>473.99999999999994</ele><time>2026-04-04T14:15:49.853Z</time></trkpt><trkpt lat="45.5705766" lon="11.2047474"><ele>473.99999999999994</ele><time>2026-04-04T14:15:56.822Z</time></trkpt><trkpt lat="45.5706365" lon="11.2047059"><ele>476.8571428571428</ele><time>2026-04-04T14:16:06.867Z</time></trkpt><trkpt lat="45.5706967" lon="11.2046595"><ele>479.71428571428567</ele><time>2026-04-04T14:16:16.856Z</time></trkpt><trkpt lat="45.5707584" lon="11.2046326"><ele>482.57142857142856</ele><time>2026-04-04T14:16:24.868Z</time></trkpt><trkpt lat="45.5708139" lon="11.2045867"><ele>485.4285714285714</ele><time>2026-04-04T14:16:31.843Z</time></trkpt><trkpt lat="45.5708763" lon="11.2045379"><ele>488.2857142857142</ele><time>2026-04-04T14:16:39.86Z</time></trkpt><trkpt lat="45.5709316" lon="11.20448"><ele>491.14285714285717</ele><time>2026-04-04T14:16:46.857Z</time></trkpt><trkpt lat="45.570997" lon="11.2044347"><ele>494.0</ele><time>2026-04-04T14:16:55.868Z</time></trkpt><trkpt lat="45.5710643" lon="11.2044108"><ele>493.99999999999994</ele><time>2026-04-04T14:17:02.864Z</time></trkpt><trkpt lat="45.5711328" lon="11.2042533"><ele>494.0</ele><time>2026-04-04T14:18:19.861Z</time></trkpt><trkpt lat="45.5711771" lon="11.2041837"><ele>494.0</ele><time>2026-04-04T14:18:43.859Z</time></trkpt><trkpt lat="45.5712429" lon="11.204093"><ele>494.0</ele><time>2026-04-04T14:19:27.866Z</time></trkpt><trkpt lat="45.5712839" lon="11.2040213"><ele>493.99999999999994</ele><time>2026-04-04T14:19:36.855Z</time></trkpt><trkpt lat="45.5713109" lon="11.2039353"><ele>494.0</ele><time>2026-04-04T14:19:43.863Z</time></trkpt><trkpt lat="45.5713348" lon="11.2038497"><ele>495.28571428571433</ele><time>2026-04-04T14:19:52.864Z</time></trkpt><trkpt lat="45.5713989" lon="11.2038453"><ele>496.57142857142856</ele><time>2026-04-04T14:20:03.859Z</time></trkpt><trkpt lat="45.5714566" lon="11.2038023"><ele>497.8571428571429</ele><time>2026-04-04T14:20:10.871Z</time></trkpt><trkpt lat="45.5714976" lon="11.2037177"><ele>499.14285714285717</ele><time>2026-04-04T14:20:35.864Z</time></trkpt><trkpt lat="45.571558" lon="11.203664"><ele>500.42857142857144</ele><time>2026-04-04T14:20:42.857Z</time></trkpt><trkpt lat="45.5716223" lon="11.2036459"><ele>501.7142857142857</ele><time>2026-04-04T14:20:49.86Z</time></trkpt><trkpt lat="45.5716719" lon="11.2035792"><ele>503.0</ele><time>2026-04-04T14:21:00.86Z</time></trkpt><trkpt lat="45.5716944" lon="11.2034883"><ele>503.0</ele><time>2026-04-04T14:21:17.857Z</time></trkpt><trkpt lat="45.5717597" lon="11.2034684"><ele>503.00000000000006</ele><time>2026-04-04T14:21:49.758Z</time></trkpt><trkpt lat="45.57181" lon="11.2034117"><ele>503.0</ele><time>2026-04-04T14:22:18.768Z</time></trkpt><trkpt lat="45.5717827" lon="11.2033216"><ele>503.0</ele><time>2026-04-04T14:23:01.862Z</time></trkpt><trkpt lat="45.5717581" lon="11.2032372"><ele>503.00000000000006</ele><time>2026-04-04T14:23:22.855Z</time></trkpt><trkpt lat="45.5717807" lon="11.2031112"><ele>503.0</ele><time>2026-04-04T14:23:45.86Z</time></trkpt><trkpt lat="45.5717526" lon="11.2030237"><ele>503.0</ele><time>2026-04-04T14:23:57.856Z</time></trkpt><trkpt lat="45.5717145" lon="11.2029486"><ele>522.0</ele><time>2026-04-04T14:24:06.852Z</time></trkpt><trkpt lat="45.5716647" lon="11.2028786"><ele>522.0</ele><time>2026-04-04T14:24:17.864Z</time></trkpt><trkpt lat="45.5716594" lon="11.2027831"><ele>522.0</ele><time>2026-04-04T14:24:24.856Z</time></trkpt><trkpt lat="45.5716799" lon="11.2026947"><ele>522.0</ele><time>2026-04-04T14:25:19.859Z</time></trkpt></trkseg><trkseg><trkpt lat="45.5682293" lon="11.2066565"><ele>442.99999999999994</ele><time>2026-04-04T15:25:31.861Z</time></trkpt><trkpt lat="45.5683002" lon="11.2066936"><ele>443.0</ele><time>2026-04-04T15:27:04.829Z</time></trkpt><trkpt lat="45.5682777" lon="11.2067867"><ele>443.0</ele><time>2026-04-04T15:27:23.858Z</time></trkpt><trkpt lat="45.5682015" lon="11.2068705"><ele>443.0</ele><time>2026-04-04T15:27:26.861Z</time></trkpt><trkpt lat="45.5681375" lon="11.2069388"><ele>442.99999999999994</ele><time>2026-04-04T15:27:28.791Z</time></trkpt><trkpt lat="45.5680658" lon="11.207035"><ele>443.0</ele><time>2026-04-04T15:27:30.858Z</time></trkpt><trkpt lat="45.5680115" lon="11.2071328"><ele>443.0</ele><time>2026-04-04T15:27:32.871Z</time></trkpt><trkpt lat="45.5679137" lon="11.2070536"><ele>442.99999999999994</ele><time>2026-04-04T15:27:33.855Z</time></trkpt><trkpt lat="45.5678282" lon="11.2070033"><ele>442.99999999999994</ele><time>2026-04-04T15:27:35.856Z</time></trkpt><trkpt lat="45.5678783" lon="11.2070993"><ele>443.0</ele><time>2026-04-04T15:27:40.856Z</time></trkpt><trkpt lat="45.5679479" lon="11.2071424"><ele>443.0</ele><time>2026-04-04T15:27:42.861Z</time></trkpt><trkpt lat="45.5680541" lon="11.2071402"><ele>443.0</ele><time>2026-04-04T15:27:44.858Z</time></trkpt><trkpt lat="45.5681793" lon="11.2071593"><ele>442.99999999999994</ele><time>2026-04-04T15:27:46.864Z</time></trkpt><trkpt lat="45.5682425" lon="11.2071587"><ele>442.99999999999994</ele><time>2026-04-04T15:27:47.857Z</time></trkpt><trkpt lat="45.5683582" lon="11.2071372"><ele>443.0</ele><time>2026-04-04T15:27:49.86Z</time></trkpt><trkpt lat="45.5684773" lon="11.2070823"><ele>443.0</ele><time>2026-04-04T15:27:51.857Z</time></trkpt><trkpt lat="45.5685694" lon="11.2070089"><ele>442.99999999999994</ele><time>2026-04-04T15:27:53.857Z</time></trkpt><trkpt lat="45.5686196" lon="11.2069356"><ele>443.0</ele><time>2026-04-04T15:27:55.851Z</time></trkpt><trkpt lat="45.5686652" lon="11.2068394"><ele>443.0</ele><time>2026-04-04T15:27:58.859Z</time></trkpt><trkpt lat="45.5686951" lon="11.2067329"><ele>443.0</ele><time>2026-04-04T15:28:01.867Z</time></trkpt><trkpt lat="45.5687784" lon="11.2066795"><ele>442.99999999999994</ele><time>2026-04-04T15:28:04.857Z</time></trkpt><trkpt lat="45.5688352" lon="11.2067287"><ele>443.0</ele><time>2026-04-04T15:28:06.862Z</time></trkpt><trkpt lat="45.5688467" lon="11.2068552"><ele>443.2</ele><time>2026-04-04T15:28:08.857Z</time></trkpt><trkpt lat="45.5687977" lon="11.2069971"><ele>443.4</ele><time>2026-04-04T15:28:10.862Z</time></trkpt><trkpt lat="45.5687348" lon="11.2071156"><ele>443.59999999999997</ele><time>2026-04-04T15:28:12.862Z</time></trkpt><trkpt lat="45.5686997" lon="11.2072259"><ele>443.79999999999995</ele><time>2026-04-04T15:28:14.86Z</time></trkpt><trkpt lat="45.5686396" lon="11.207361"><ele>444.0</ele><time>2026-04-04T15:28:16.858Z</time></trkpt><trkpt lat="45.5686069" lon="11.2075334"><ele>441.6666666666667</ele><time>2026-04-04T15:28:18.86Z</time></trkpt><trkpt lat="45.5685445" lon="11.207595"><ele>439.33333333333337</ele><time>2026-04-04T15:28:19.86Z</time></trkpt><trkpt lat="45.568486" lon="11.2076581"><ele>437.0</ele><time>2026-04-04T15:28:20.857Z</time></trkpt><trkpt lat="45.5684251" lon="11.2077229"><ele>434.6666666666667</ele><time>2026-04-04T15:28:21.854Z</time></trkpt><trkpt lat="45.5683791" lon="11.2078288"><ele>432.33333333333337</ele><time>2026-04-04T15:28:22.867Z</time></trkpt><trkpt lat="45.5683756" lon="11.2079555"><ele>430.0</ele><time>2026-04-04T15:28:23.855Z</time></trkpt><trkpt lat="45.5683814" lon="11.2080847"><ele>430.8</ele><time>2026-04-04T15:28:24.858Z</time></trkpt><trkpt lat="45.5683545" lon="11.2082152"><ele>431.6</ele><time>2026-04-04T15:28:25.857Z</time></trkpt><trkpt lat="45.5683022" lon="11.2083433"><ele>432.4</ele><time>2026-04-04T15:28:26.86Z</time></trkpt><trkpt lat="45.5682425" lon="11.2084619"><ele>433.2</ele><time>2026-04-04T15:28:27.854Z</time></trkpt><trkpt lat="45.5681897" lon="11.2085855"><ele>434.0</ele><time>2026-04-04T15:28:28.856Z</time></trkpt><trkpt lat="45.5681505" lon="11.2087317"><ele>434.0</ele><time>2026-04-04T15:28:29.855Z</time></trkpt><trkpt lat="45.5681183" lon="11.2088797"><ele>434.0</ele><time>2026-04-04T15:28:30.867Z</time></trkpt><trkpt lat="45.5680779" lon="11.2090296"><ele>434.0</ele><time>2026-04-04T15:28:31.861Z</time></trkpt><trkpt lat="45.5680295" lon="11.2091732"><ele>434.0</ele><time>2026-04-04T15:28:32.855Z</time></trkpt><trkpt lat="45.5679689" lon="11.2092991"><ele>434.0</ele><time>2026-04-04T15:28:33.865Z</time></trkpt><trkpt lat="45.5679107" lon="11.2094375"><ele>431.75</ele><time>2026-04-04T15:28:34.862Z</time></trkpt><trkpt lat="45.5678645" lon="11.2095933"><ele>429.5</ele><time>2026-04-04T15:28:35.857Z</time></trkpt><trkpt lat="45.5678304" lon="11.2097702"><ele>427.25</ele><time>2026-04-04T15:28:36.862Z</time></trkpt><trkpt lat="45.5677954" lon="11.2099507"><ele>425.0</ele><time>2026-04-04T15:28:37.854Z</time></trkpt><trkpt lat="45.5677428" lon="11.2101309"><ele>424.25</ele><time>2026-04-04T15:28:38.862Z</time></trkpt><trkpt lat="45.5676871" lon="11.2103166"><ele>423.5</ele><time>2026-04-04T15:28:39.857Z</time></trkpt><trkpt lat="45.5676387" lon="11.210501"><ele>422.75</ele><time>2026-04-04T15:28:40.857Z</time></trkpt><trkpt lat="45.5675794" lon="11.2106215"><ele>422.0</ele><time>2026-04-04T15:28:41.861Z</time></trkpt><trkpt lat="45.5675062" lon="11.2107092"><ele>424.0</ele><time>2026-04-04T15:28:42.854Z</time></trkpt><trkpt lat="45.5674238" lon="11.2107929"><ele>426.0</ele><time>2026-04-04T15:28:43.863Z</time></trkpt><trkpt lat="45.5673713" lon="11.210906"><ele>428.00000000000006</ele><time>2026-04-04T15:28:44.857Z</time></trkpt><trkpt lat="45.5673478" lon="11.2110254"><ele>430.0</ele><time>2026-04-04T15:28:45.856Z</time></trkpt><trkpt lat="45.5673637" lon="11.2111537"><ele>432.0</ele><time>2026-04-04T15:28:46.864Z</time></trkpt><trkpt lat="45.5674081" lon="11.2112704"><ele>432.0</ele><time>2026-04-04T15:28:47.859Z</time></trkpt><trkpt lat="45.5674605" lon="11.2113897"><ele>432.00000000000006</ele><time>2026-04-04T15:28:48.855Z</time></trkpt><trkpt lat="45.5675099" lon="11.2115053"><ele>432.00000000000006</ele><time>2026-04-04T15:28:49.855Z</time></trkpt><trkpt lat="45.5675393" lon="11.2116256"><ele>432.0</ele><time>2026-04-04T15:28:50.859Z</time></trkpt><trkpt lat="45.5675358" lon="11.2117547"><ele>432.0</ele><time>2026-04-04T15:28:51.854Z</time></trkpt><trkpt lat="45.5675107" lon="11.2118801"><ele>433.0</ele><time>2026-04-04T15:28:52.858Z</time></trkpt><trkpt lat="45.567502" lon="11.2120117"><ele>434.00000000000006</ele><time>2026-04-04T15:28:53.859Z</time></trkpt><trkpt lat="45.567517" lon="11.2121451"><ele>435.00000000000006</ele><time>2026-04-04T15:28:54.859Z</time></trkpt><trkpt lat="45.5675519" lon="11.2122696"><ele>436.0</ele><time>2026-04-04T15:28:55.865Z</time></trkpt><trkpt lat="45.5675931" lon="11.2123896"><ele>437.0</ele><time>2026-04-04T15:28:56.857Z</time></trkpt><trkpt lat="45.567621" lon="11.2125199"><ele>437.8</ele><time>2026-04-04T15:28:57.855Z</time></trkpt><trkpt lat="45.5676271" lon="11.2126566"><ele>438.6</ele><time>2026-04-04T15:28:58.856Z</time></trkpt><trkpt lat="45.5676008" lon="11.2127941"><ele>439.40000000000003</ele><time>2026-04-04T15:28:59.859Z</time></trkpt><trkpt lat="45.5675545" lon="11.2129172"><ele>440.20000000000005</ele><time>2026-04-04T15:29:00.863Z</time></trkpt><trkpt lat="45.5675083" lon="11.2130409"><ele>441.0</ele><time>2026-04-04T15:29:01.862Z</time></trkpt><trkpt lat="45.5674611" lon="11.2131657"><ele>442.6</ele><time>2026-04-04T15:29:02.858Z</time></trkpt><trkpt lat="45.5674189" lon="11.2132894"><ele>444.20000000000005</ele><time>2026-04-04T15:29:03.862Z</time></trkpt><trkpt lat="45.5673787" lon="11.2134139"><ele>445.79999999999995</ele><time>2026-04-04T15:29:04.857Z</time></trkpt><trkpt lat="45.5673427" lon="11.2135371"><ele>447.4</ele><time>2026-04-04T15:29:05.858Z</time></trkpt><trkpt lat="45.5673118" lon="11.2136607"><ele>449.0</ele><time>2026-04-04T15:29:06.872Z</time></trkpt><trkpt lat="45.5673037" lon="11.2137959"><ele>448.99999999999994</ele><time>2026-04-04T15:29:07.859Z</time></trkpt><trkpt lat="45.567298" lon="11.2139223"><ele>449.0</ele><time>2026-04-04T15:29:08.859Z</time></trkpt><trkpt lat="45.5672865" lon="11.2140591"><ele>449.0</ele><time>2026-04-04T15:29:09.858Z</time></trkpt><trkpt lat="45.5672696" lon="11.2141941"><ele>449.0</ele><time>2026-04-04T15:29:10.862Z</time></trkpt><trkpt lat="45.5672484" lon="11.2143232"><ele>448.99999999999994</ele><time>2026-04-04T15:29:11.862Z</time></trkpt><trkpt lat="45.5672348" lon="11.2144288"><ele>449.0</ele><time>2026-04-04T15:29:12.86Z</time></trkpt><trkpt lat="45.5672574" lon="11.2145135"><ele>448.99999999999994</ele><time>2026-04-04T15:29:13.858Z</time></trkpt><trkpt lat="45.5673698" lon="11.2145101"><ele>449.0</ele><time>2026-04-04T15:29:15.861Z</time></trkpt><trkpt lat="45.5673944" lon="11.2144143"><ele>449.0</ele><time>2026-04-04T15:29:16.863Z</time></trkpt><trkpt lat="45.5673945" lon="11.2142963"><ele>449.0</ele><time>2026-04-04T15:29:17.858Z</time></trkpt><trkpt lat="45.567394" lon="11.2141616"><ele>448.99999999999994</ele><time>2026-04-04T15:29:18.859Z</time></trkpt><trkpt lat="45.5673977" lon="11.2140364"><ele>449.0</ele><time>2026-04-04T15:29:19.862Z</time></trkpt><trkpt lat="45.5674035" lon="11.2139005"><ele>448.99999999999994</ele><time>2026-04-04T15:29:20.859Z</time></trkpt><trkpt lat="45.567424" lon="11.2137679"><ele>449.0</ele><time>2026-04-04T15:29:21.864Z</time></trkpt><trkpt lat="45.5674619" lon="11.2136431"><ele>449.0</ele><time>2026-04-04T15:29:22.851Z</time></trkpt><trkpt lat="45.5675017" lon="11.2135439"><ele>449.0</ele><time>2026-04-04T15:29:23.855Z</time></trkpt><trkpt lat="45.5675629" lon="11.2134496"><ele>448.99999999999994</ele><time>2026-04-04T15:29:24.863Z</time></trkpt><trkpt lat="45.5676425" lon="11.2133926"><ele>449.0</ele><time>2026-04-04T15:29:25.856Z</time></trkpt><trkpt lat="45.5677208" lon="11.2133656"><ele>448.99999999999994</ele><time>2026-04-04T15:29:26.858Z</time></trkpt><trkpt lat="45.567798" lon="11.2133764"><ele>449.0</ele><time>2026-04-04T15:29:27.864Z</time></trkpt><trkpt lat="45.5678528" lon="11.2134596"><ele>449.0</ele><time>2026-04-04T15:29:28.875Z</time></trkpt><trkpt lat="45.5678579" lon="11.21357"><ele>449.0</ele><time>2026-04-04T15:29:29.86Z</time></trkpt><trkpt lat="45.5678216" lon="11.2136805"><ele>448.99999999999994</ele><time>2026-04-04T15:29:30.861Z</time></trkpt><trkpt lat="45.567796" lon="11.213797"><ele>449.0</ele><time>2026-04-04T15:29:31.864Z</time></trkpt><trkpt lat="45.5677702" lon="11.2139161"><ele>450.2</ele><time>2026-04-04T15:29:32.857Z</time></trkpt><trkpt lat="45.5677476" lon="11.2140372"><ele>451.4</ele><time>2026-04-04T15:29:33.856Z</time></trkpt><trkpt lat="45.5677254" lon="11.2141583"><ele>452.6</ele><time>2026-04-04T15:29:34.86Z</time></trkpt><trkpt lat="45.5677059" lon="11.2143079"><ele>453.8</ele><time>2026-04-04T15:29:35.859Z</time></trkpt><trkpt lat="45.5676844" lon="11.2144641"><ele>455.0</ele><time>2026-04-04T15:29:36.856Z</time></trkpt><trkpt lat="45.5676571" lon="11.214632"><ele>455.0</ele><time>2026-04-04T15:29:37.857Z</time></trkpt><trkpt lat="45.5676247" lon="11.2148044"><ele>455.0</ele><time>2026-04-04T15:29:38.858Z</time></trkpt><trkpt lat="45.5675771" lon="11.2149757"><ele>455.0</ele><time>2026-04-04T15:29:39.858Z</time></trkpt><trkpt lat="45.5675235" lon="11.2151315"><ele>455.0</ele><time>2026-04-04T15:29:40.855Z</time></trkpt><trkpt lat="45.5674692" lon="11.2152736"><ele>456.2</ele><time>2026-04-04T15:29:41.857Z</time></trkpt><trkpt lat="45.5674219" lon="11.215417"><ele>457.4</ele><time>2026-04-04T15:29:42.86Z</time></trkpt><trkpt lat="45.5673744" lon="11.215552"><ele>458.6</ele><time>2026-04-04T15:29:43.858Z</time></trkpt><trkpt lat="45.5673324" lon="11.2156806"><ele>459.8</ele><time>2026-04-04T15:29:44.855Z</time></trkpt><trkpt lat="45.5672991" lon="11.2157998"><ele>461.0</ele><time>2026-04-04T15:29:45.864Z</time></trkpt><trkpt lat="45.5672668" lon="11.2159144"><ele>459.20000000000005</ele><time>2026-04-04T15:29:46.861Z</time></trkpt><trkpt lat="45.567229" lon="11.2160258"><ele>457.40000000000003</ele><time>2026-04-04T15:29:47.86Z</time></trkpt><trkpt lat="45.5671791" lon="11.2161276"><ele>455.6</ele><time>2026-04-04T15:29:48.858Z</time></trkpt><trkpt lat="45.5671167" lon="11.2162252"><ele>453.8</ele><time>2026-04-04T15:29:49.859Z</time></trkpt><trkpt lat="45.5670473" lon="11.2163352"><ele>452.0</ele><time>2026-04-04T15:29:50.86Z</time></trkpt><trkpt lat="45.5669669" lon="11.2164477"><ele>455.0</ele><time>2026-04-04T15:29:51.858Z</time></trkpt><trkpt lat="45.5668794" lon="11.216562"><ele>458.0</ele><time>2026-04-04T15:29:52.862Z</time></trkpt><trkpt lat="45.5667887" lon="11.2166806"><ele>461.0</ele><time>2026-04-04T15:29:53.862Z</time></trkpt><trkpt lat="45.5666919" lon="11.2167913"><ele>464.0</ele><time>2026-04-04T15:29:54.863Z</time></trkpt><trkpt lat="45.5665945" lon="11.2168768"><ele>464.0</ele><time>2026-04-04T15:29:55.857Z</time></trkpt><trkpt lat="45.5664885" lon="11.2169489"><ele>464.0</ele><time>2026-04-04T15:29:56.86Z</time></trkpt><trkpt lat="45.5663729" lon="11.2170113"><ele>464.0</ele><time>2026-04-04T15:29:57.86Z</time></trkpt><trkpt lat="45.5662602" lon="11.2170843"><ele>464.0</ele><time>2026-04-04T15:29:58.856Z</time></trkpt><trkpt lat="45.5661505" lon="11.2171737"><ele>463.5</ele><time>2026-04-04T15:29:59.859Z</time></trkpt><trkpt lat="45.5660495" lon="11.2172777"><ele>463.0</ele><time>2026-04-04T15:30:00.854Z</time></trkpt><trkpt lat="45.5659556" lon="11.2173832"><ele>462.5</ele><time>2026-04-04T15:30:01.856Z</time></trkpt><trkpt lat="45.5658456" lon="11.2174716"><ele>462.0</ele><time>2026-04-04T15:30:02.859Z</time></trkpt><trkpt lat="45.565731" lon="11.2175479"><ele>462.0</ele><time>2026-04-04T15:30:03.864Z</time></trkpt><trkpt lat="45.5656024" lon="11.2176007"><ele>462.0</ele><time>2026-04-04T15:30:04.859Z</time></trkpt><trkpt lat="45.5654801" lon="11.2176484"><ele>462.0</ele><time>2026-04-04T15:30:05.862Z</time></trkpt><trkpt lat="45.565357" lon="11.2177033"><ele>462.0</ele><time>2026-04-04T15:30:06.858Z</time></trkpt><trkpt lat="45.5652259" lon="11.2177406"><ele>460.0</ele><time>2026-04-04T15:30:07.857Z</time></trkpt><trkpt lat="45.5650916" lon="11.2177506"><ele>458.0</ele><time>2026-04-04T15:30:08.863Z</time></trkpt><trkpt lat="45.5649596" lon="11.2177356"><ele>456.0</ele><time>2026-04-04T15:30:09.859Z</time></trkpt><trkpt lat="45.5648272" lon="11.2177002"><ele>454.0</ele><time>2026-04-04T15:30:10.858Z</time></trkpt><trkpt lat="45.5647019" lon="11.2176368"><ele>454.0</ele><time>2026-04-04T15:30:11.863Z</time></trkpt><trkpt lat="45.5645858" lon="11.2175529"><ele>454.0</ele><time>2026-04-04T15:30:12.855Z</time></trkpt><trkpt lat="45.5644779" lon="11.2174531"><ele>454.0</ele><time>2026-04-04T15:30:13.859Z</time></trkpt><trkpt lat="45.5643764" lon="11.2173471"><ele>454.0</ele><time>2026-04-04T15:30:14.86Z</time></trkpt><trkpt lat="45.5642858" lon="11.2172299"><ele>455.25</ele><time>2026-04-04T15:30:15.857Z</time></trkpt><trkpt lat="45.5642027" lon="11.217119"><ele>456.5</ele><time>2026-04-04T15:30:16.863Z</time></trkpt><trkpt lat="45.5641107" lon="11.2169942"><ele>457.75</ele><time>2026-04-04T15:30:17.861Z</time></trkpt><trkpt lat="45.5640211" lon="11.2168643"><ele>459.0</ele><time>2026-04-04T15:30:18.855Z</time></trkpt><trkpt lat="45.563927" lon="11.2167165"><ele>459.0</ele><time>2026-04-04T15:30:19.861Z</time></trkpt><trkpt lat="45.5638303" lon="11.2165653"><ele>459.0</ele><time>2026-04-04T15:30:20.858Z</time></trkpt><trkpt lat="45.5637382" lon="11.2163987"><ele>459.0</ele><time>2026-04-04T15:30:21.859Z</time></trkpt><trkpt lat="45.5636367" lon="11.2162321"><ele>459.0</ele><time>2026-04-04T15:30:22.857Z</time></trkpt><trkpt lat="45.5635382" lon="11.2160878"><ele>457.25</ele><time>2026-04-04T15:30:23.862Z</time></trkpt><trkpt lat="45.5634404" lon="11.2159447"><ele>455.5</ele><time>2026-04-04T15:30:24.885Z</time></trkpt><trkpt lat="45.5633373" lon="11.2157842"><ele>453.75</ele><time>2026-04-04T15:30:25.857Z</time></trkpt><trkpt lat="45.5632515" lon="11.2156208"><ele>452.0</ele><time>2026-04-04T15:30:26.858Z</time></trkpt><trkpt lat="45.5631808" lon="11.2154634"><ele>452.0</ele><time>2026-04-04T15:30:27.862Z</time></trkpt><trkpt lat="45.5631002" lon="11.2153086"><ele>452.0</ele><time>2026-04-04T15:30:28.854Z</time></trkpt><trkpt lat="45.5630288" lon="11.2151703"><ele>452.0</ele><time>2026-04-04T15:30:29.856Z</time></trkpt><trkpt lat="45.5629619" lon="11.2150465"><ele>452.0</ele><time>2026-04-04T15:30:30.857Z</time></trkpt><trkpt lat="45.5629035" lon="11.2149501"><ele>454.8</ele><time>2026-04-04T15:30:31.859Z</time></trkpt><trkpt lat="45.5628285" lon="11.2149058"><ele>457.6</ele><time>2026-04-04T15:30:32.864Z</time></trkpt><trkpt lat="45.5627425" lon="11.2149016"><ele>460.40000000000003</ele><time>2026-04-04T15:30:33.854Z</time></trkpt><trkpt lat="45.56265" lon="11.2149261"><ele>463.20000000000005</ele><time>2026-04-04T15:30:34.857Z</time></trkpt><trkpt lat="45.5625521" lon="11.2149723"><ele>466.0</ele><time>2026-04-04T15:30:35.86Z</time></trkpt><trkpt lat="45.5624637" lon="11.2150558"><ele>466.0</ele><time>2026-04-04T15:30:36.86Z</time></trkpt><trkpt lat="45.5623871" lon="11.2151823"><ele>466.0</ele><time>2026-04-04T15:30:37.861Z</time></trkpt><trkpt lat="45.5623194" lon="11.2153421"><ele>466.0</ele><time>2026-04-04T15:30:38.859Z</time></trkpt><trkpt lat="45.5622422" lon="11.2155063"><ele>466.0</ele><time>2026-04-04T15:30:39.856Z</time></trkpt><trkpt lat="45.5621607" lon="11.2156571"><ele>467.75</ele><time>2026-04-04T15:30:40.86Z</time></trkpt><trkpt lat="45.5620729" lon="11.2157941"><ele>469.5</ele><time>2026-04-04T15:30:41.857Z</time></trkpt><trkpt lat="45.5619892" lon="11.2159203"><ele>471.25</ele><time>2026-04-04T15:30:42.862Z</time></trkpt><trkpt lat="45.5619039" lon="11.2160361"><ele>473.0</ele><time>2026-04-04T15:30:43.864Z</time></trkpt><trkpt lat="45.5618256" lon="11.2161615"><ele>469.79999999999995</ele><time>2026-04-04T15:30:44.859Z</time></trkpt><trkpt lat="45.5617578" lon="11.2162891"><ele>466.59999999999997</ele><time>2026-04-04T15:30:45.858Z</time></trkpt><trkpt lat="45.5617003" lon="11.2164171"><ele>463.40000000000003</ele><time>2026-04-04T15:30:46.859Z</time></trkpt><trkpt lat="45.5616476" lon="11.2165445"><ele>460.20000000000005</ele><time>2026-04-04T15:30:47.856Z</time></trkpt><trkpt lat="45.5615906" lon="11.2166746"><ele>457.0</ele><time>2026-04-04T15:30:48.858Z</time></trkpt><trkpt lat="45.5615204" lon="11.2167898"><ele>457.0</ele><time>2026-04-04T15:30:49.86Z</time></trkpt><trkpt lat="45.5614339" lon="11.216889"><ele>457.0</ele><time>2026-04-04T15:30:50.863Z</time></trkpt><trkpt lat="45.5613266" lon="11.2169737"><ele>457.0</ele><time>2026-04-04T15:30:51.861Z</time></trkpt><trkpt lat="45.5612123" lon="11.2170613"><ele>457.0</ele><time>2026-04-04T15:30:52.858Z</time></trkpt><trkpt lat="45.5611016" lon="11.217137"><ele>455.25</ele><time>2026-04-04T15:30:53.865Z</time></trkpt><trkpt lat="45.5609969" lon="11.2172105"><ele>453.5</ele><time>2026-04-04T15:30:54.857Z</time></trkpt><trkpt lat="45.5608928" lon="11.2172887"><ele>451.75</ele><time>2026-04-04T15:30:55.861Z</time></trkpt><trkpt lat="45.5607922" lon="11.2173697"><ele>450.0</ele><time>2026-04-04T15:30:56.857Z</time></trkpt><trkpt lat="45.5606905" lon="11.2174569"><ele>450.0</ele><time>2026-04-04T15:30:57.859Z</time></trkpt><trkpt lat="45.5605856" lon="11.217542"><ele>450.0</ele><time>2026-04-04T15:30:58.855Z</time></trkpt><trkpt lat="45.5604796" lon="11.2176342"><ele>450.0</ele><time>2026-04-04T15:30:59.856Z</time></trkpt><trkpt lat="45.5603793" lon="11.2177278"><ele>450.0</ele><time>2026-04-04T15:31:00.857Z</time></trkpt><trkpt lat="45.5602827" lon="11.2178378"><ele>448.5</ele><time>2026-04-04T15:31:01.859Z</time></trkpt><trkpt lat="45.5601899" lon="11.2179549"><ele>447.0</ele><time>2026-04-04T15:31:02.858Z</time></trkpt><trkpt lat="45.5601005" lon="11.2180785"><ele>445.5</ele><time>2026-04-04T15:31:03.857Z</time></trkpt><trkpt lat="45.5600094" lon="11.2182009"><ele>444.0</ele><time>2026-04-04T15:31:04.859Z</time></trkpt><trkpt lat="45.5599187" lon="11.2183181"><ele>444.0</ele><time>2026-04-04T15:31:05.855Z</time></trkpt><trkpt lat="45.5598307" lon="11.2184287"><ele>444.0</ele><time>2026-04-04T15:31:06.86Z</time></trkpt><trkpt lat="45.5597451" lon="11.2185276"><ele>444.0</ele><time>2026-04-04T15:31:07.86Z</time></trkpt><trkpt lat="45.5596588" lon="11.2186303"><ele>444.0</ele><time>2026-04-04T15:31:08.859Z</time></trkpt><trkpt lat="45.5595754" lon="11.2187415"><ele>441.6</ele><time>2026-04-04T15:31:09.857Z</time></trkpt><trkpt lat="45.559498" lon="11.2188482"><ele>439.2</ele><time>2026-04-04T15:31:10.853Z</time></trkpt><trkpt lat="45.5594223" lon="11.2189451"><ele>436.80000000000007</ele><time>2026-04-04T15:31:11.852Z</time></trkpt><trkpt lat="45.5593524" lon="11.2190464"><ele>434.40000000000003</ele><time>2026-04-04T15:31:12.858Z</time></trkpt><trkpt lat="45.5592865" lon="11.2191421"><ele>432.0</ele><time>2026-04-04T15:31:13.856Z</time></trkpt><trkpt lat="45.5592239" lon="11.2192413"><ele>432.0</ele><time>2026-04-04T15:31:14.858Z</time></trkpt><trkpt lat="45.5591726" lon="11.2193465"><ele>432.0</ele><time>2026-04-04T15:31:15.861Z</time></trkpt><trkpt lat="45.559133" lon="11.2194596"><ele>432.0</ele><time>2026-04-04T15:31:16.857Z</time></trkpt><trkpt lat="45.5591229" lon="11.219576"><ele>432.0</ele><time>2026-04-04T15:31:17.855Z</time></trkpt><trkpt lat="45.5591437" lon="11.219702"><ele>432.0</ele><time>2026-04-04T15:31:18.863Z</time></trkpt><trkpt lat="45.5591843" lon="11.2198214"><ele>432.0</ele><time>2026-04-04T15:31:19.858Z</time></trkpt><trkpt lat="45.5592241" lon="11.2199414"><ele>432.1666666666667</ele><time>2026-04-04T15:31:20.857Z</time></trkpt><trkpt lat="45.55926" lon="11.2200579"><ele>432.33333333333337</ele><time>2026-04-04T15:31:21.858Z</time></trkpt><trkpt lat="45.5592892" lon="11.2201767"><ele>432.5</ele><time>2026-04-04T15:31:22.861Z</time></trkpt><trkpt lat="45.5593009" lon="11.2203037"><ele>432.6666666666667</ele><time>2026-04-04T15:31:23.857Z</time></trkpt><trkpt lat="45.5592878" lon="11.2204288"><ele>432.83333333333337</ele><time>2026-04-04T15:31:24.854Z</time></trkpt><trkpt lat="45.5592547" lon="11.2205406"><ele>433.0</ele><time>2026-04-04T15:31:25.857Z</time></trkpt><trkpt lat="45.5591995" lon="11.2206342"><ele>433.33333333333337</ele><time>2026-04-04T15:31:26.854Z</time></trkpt><trkpt lat="45.5591292" lon="11.2207057"><ele>433.6666666666667</ele><time>2026-04-04T15:31:27.855Z</time></trkpt><trkpt lat="45.5590487" lon="11.220754"><ele>434.0</ele><time>2026-04-04T15:31:28.865Z</time></trkpt><trkpt lat="45.5589697" lon="11.2207892"><ele>434.33333333333337</ele><time>2026-04-04T15:31:29.856Z</time></trkpt><trkpt lat="45.5588827" lon="11.2208133"><ele>434.6666666666667</ele><time>2026-04-04T15:31:30.86Z</time></trkpt><trkpt lat="45.5588015" lon="11.2208265"><ele>435.0</ele><time>2026-04-04T15:31:31.864Z</time></trkpt><trkpt lat="45.5587198" lon="11.2208364"><ele>431.6666666666667</ele><time>2026-04-04T15:31:32.857Z</time></trkpt><trkpt lat="45.5586404" lon="11.2208514"><ele>428.33333333333337</ele><time>2026-04-04T15:31:33.857Z</time></trkpt><trkpt lat="45.5585655" lon="11.2208827"><ele>425.0</ele><time>2026-04-04T15:31:34.864Z</time></trkpt><trkpt lat="45.5584994" lon="11.2209481"><ele>421.6666666666667</ele><time>2026-04-04T15:31:35.856Z</time></trkpt><trkpt lat="45.5584536" lon="11.2210415"><ele>418.33333333333337</ele><time>2026-04-04T15:31:36.858Z</time></trkpt><trkpt lat="45.5584173" lon="11.2211374"><ele>415.0</ele><time>2026-04-04T15:31:37.865Z</time></trkpt><trkpt lat="45.5583921" lon="11.2212525"><ele>415.00000000000006</ele><time>2026-04-04T15:31:38.862Z</time></trkpt><trkpt lat="45.5583606" lon="11.2213608"><ele>415.0</ele><time>2026-04-04T15:31:39.861Z</time></trkpt><trkpt lat="45.5583155" lon="11.2214713"><ele>415.0</ele><time>2026-04-04T15:31:40.858Z</time></trkpt><trkpt lat="45.5582625" lon="11.2215697"><ele>415.0</ele><time>2026-04-04T15:31:41.852Z</time></trkpt><trkpt lat="45.5581779" lon="11.2216011"><ele>415.00000000000006</ele><time>2026-04-04T15:31:42.856Z</time></trkpt><trkpt lat="45.5580961" lon="11.221631"><ele>415.0</ele><time>2026-04-04T15:31:43.865Z</time></trkpt><trkpt lat="45.5579703" lon="11.2215979"><ele>411.8</ele><time>2026-04-04T15:31:44.857Z</time></trkpt><trkpt lat="45.5578551" lon="11.2215832"><ele>408.6</ele><time>2026-04-04T15:31:45.864Z</time></trkpt><trkpt lat="45.5577463" lon="11.2215805"><ele>405.4</ele><time>2026-04-04T15:31:46.857Z</time></trkpt><trkpt lat="45.5576443" lon="11.2215754"><ele>402.2</ele><time>2026-04-04T15:31:47.856Z</time></trkpt><trkpt lat="45.5575421" lon="11.2215622"><ele>399.0</ele><time>2026-04-04T15:31:48.857Z</time></trkpt><trkpt lat="45.5574325" lon="11.2215494"><ele>399.0</ele><time>2026-04-04T15:31:49.861Z</time></trkpt><trkpt lat="45.5573287" lon="11.2215395"><ele>399.0</ele><time>2026-04-04T15:31:50.859Z</time></trkpt><trkpt lat="45.5572293" lon="11.2215415"><ele>399.0</ele><time>2026-04-04T15:31:51.858Z</time></trkpt><trkpt lat="45.5571238" lon="11.2215564"><ele>399.0</ele><time>2026-04-04T15:31:52.854Z</time></trkpt><trkpt lat="45.5570246" lon="11.2215954"><ele>399.0</ele><time>2026-04-04T15:31:53.857Z</time></trkpt><trkpt lat="45.5569344" lon="11.2216559"><ele>396.4</ele><time>2026-04-04T15:31:54.857Z</time></trkpt><trkpt lat="45.5568487" lon="11.2217322"><ele>393.79999999999995</ele><time>2026-04-04T15:31:55.861Z</time></trkpt><trkpt lat="45.5567675" lon="11.221818"><ele>391.20000000000005</ele><time>2026-04-04T15:31:56.86Z</time></trkpt><trkpt lat="45.5566889" lon="11.2218983"><ele>388.6</ele><time>2026-04-04T15:31:57.863Z</time></trkpt><trkpt lat="45.556609" lon="11.2219819"><ele>386.0</ele><time>2026-04-04T15:31:58.86Z</time></trkpt><trkpt lat="45.556528" lon="11.2220679"><ele>386.0</ele><time>2026-04-04T15:31:59.872Z</time></trkpt><trkpt lat="45.5564467" lon="11.2221436"><ele>386.0</ele><time>2026-04-04T15:32:00.861Z</time></trkpt><trkpt lat="45.5563653" lon="11.2222223"><ele>386.0</ele><time>2026-04-04T15:32:01.858Z</time></trkpt><trkpt lat="45.5562829" lon="11.2222829"><ele>386.0</ele><time>2026-04-04T15:32:02.877Z</time></trkpt><trkpt lat="45.5562023" lon="11.2223332"><ele>386.0</ele><time>2026-04-04T15:32:03.857Z</time></trkpt><trkpt lat="45.5561282" lon="11.2223742"><ele>384.66666666666663</ele><time>2026-04-04T15:32:04.856Z</time></trkpt><trkpt lat="45.5560555" lon="11.2223951"><ele>383.3333333333333</ele><time>2026-04-04T15:32:05.867Z</time></trkpt><trkpt lat="45.5559947" lon="11.2223661"><ele>382.0</ele><time>2026-04-04T15:32:06.858Z</time></trkpt><trkpt lat="45.5559672" lon="11.2222847"><ele>380.66666666666663</ele><time>2026-04-04T15:32:07.858Z</time></trkpt><trkpt lat="45.5559941" lon="11.2221707"><ele>379.3333333333333</ele><time>2026-04-04T15:32:08.857Z</time></trkpt><trkpt lat="45.5560601" lon="11.2220576"><ele>378.0</ele><time>2026-04-04T15:32:09.862Z</time></trkpt><trkpt lat="45.5561658" lon="11.2219383"><ele>376.3333333333333</ele><time>2026-04-04T15:32:10.86Z</time></trkpt><trkpt lat="45.5562765" lon="11.2217799"><ele>374.66666666666663</ele><time>2026-04-04T15:32:11.855Z</time></trkpt><trkpt lat="45.5563812" lon="11.2215952"><ele>373.0</ele><time>2026-04-04T15:32:12.86Z</time></trkpt><trkpt lat="45.5564769" lon="11.2214042"><ele>373.0</ele><time>2026-04-04T15:32:13.859Z</time></trkpt><trkpt lat="45.5565641" lon="11.221224"><ele>373.0</ele><time>2026-04-04T15:32:14.856Z</time></trkpt><trkpt lat="45.5566444" lon="11.2210562"><ele>373.0</ele><time>2026-04-04T15:32:15.865Z</time></trkpt><trkpt lat="45.5567252" lon="11.2208967"><ele>373.0</ele><time>2026-04-04T15:32:16.857Z</time></trkpt><trkpt lat="45.5568079" lon="11.2207471"><ele>373.0</ele><time>2026-04-04T15:32:17.857Z</time></trkpt><trkpt lat="45.556885" lon="11.2206134"><ele>373.0</ele><time>2026-04-04T15:32:18.864Z</time></trkpt><trkpt lat="45.5569605" lon="11.2204934"><ele>373.0</ele><time>2026-04-04T15:32:19.857Z</time></trkpt><trkpt lat="45.5570357" lon="11.2203958"><ele>373.0</ele><time>2026-04-04T15:32:20.856Z</time></trkpt><trkpt lat="45.5571026" lon="11.2203227"><ele>373.0</ele><time>2026-04-04T15:32:21.856Z</time></trkpt><trkpt lat="45.5571613" lon="11.2202699"><ele>373.0</ele><time>2026-04-04T15:32:22.861Z</time></trkpt><trkpt lat="45.5572192" lon="11.2201478"><ele>373.0</ele><time>2026-04-04T15:32:24.859Z</time></trkpt><trkpt lat="45.557174" lon="11.2200651"><ele>373.0</ele><time>2026-04-04T15:32:26.86Z</time></trkpt><trkpt lat="45.5571" lon="11.2200381"><ele>373.0</ele><time>2026-04-04T15:32:28.865Z</time></trkpt><trkpt lat="45.5569698" lon="11.2200377"><ele>373.0</ele><time>2026-04-04T15:32:30.861Z</time></trkpt><trkpt lat="45.5568915" lon="11.220033"><ele>370.5</ele><time>2026-04-04T15:32:31.862Z</time></trkpt><trkpt lat="45.5568168" lon="11.2200342"><ele>368.0</ele><time>2026-04-04T15:32:32.861Z</time></trkpt><trkpt lat="45.5567479" lon="11.2200346"><ele>365.5</ele><time>2026-04-04T15:32:33.86Z</time></trkpt><trkpt lat="45.5566666" lon="11.2200349"><ele>363.0</ele><time>2026-04-04T15:32:34.862Z</time></trkpt><trkpt lat="45.5565795" lon="11.2200333"><ele>360.5</ele><time>2026-04-04T15:32:35.863Z</time></trkpt><trkpt lat="45.5564883" lon="11.2200286"><ele>358.0</ele><time>2026-04-04T15:32:36.858Z</time></trkpt><trkpt lat="45.5563886" lon="11.2200261"><ele>358.0</ele><time>2026-04-04T15:32:37.853Z</time></trkpt><trkpt lat="45.5562872" lon="11.22002"><ele>358.0</ele><time>2026-04-04T15:32:38.861Z</time></trkpt><trkpt lat="45.5561835" lon="11.220009"><ele>358.0</ele><time>2026-04-04T15:32:39.86Z</time></trkpt><trkpt lat="45.5560812" lon="11.2200026"><ele>358.0</ele><time>2026-04-04T15:32:40.861Z</time></trkpt><trkpt lat="45.5559809" lon="11.2199981"><ele>358.0</ele><time>2026-04-04T15:32:41.862Z</time></trkpt><trkpt lat="45.5558795" lon="11.2200025"><ele>356.0</ele><time>2026-04-04T15:32:42.859Z</time></trkpt><trkpt lat="45.5557885" lon="11.2200423"><ele>354.0</ele><time>2026-04-04T15:32:43.858Z</time></trkpt><trkpt lat="45.5556984" lon="11.2201025"><ele>352.0</ele><time>2026-04-04T15:32:44.858Z</time></trkpt><trkpt lat="45.5556053" lon="11.2201795"><ele>350.0</ele><time>2026-04-04T15:32:45.855Z</time></trkpt><trkpt lat="45.5555046" lon="11.2202743"><ele>348.0</ele><time>2026-04-04T15:32:46.861Z</time></trkpt><trkpt lat="45.5553851" lon="11.2203893"><ele>346.25</ele><time>2026-04-04T15:32:47.859Z</time></trkpt><trkpt lat="45.5552618" lon="11.220505"><ele>344.5</ele><time>2026-04-04T15:32:48.858Z</time></trkpt><trkpt lat="45.5551428" lon="11.2206159"><ele>342.75</ele><time>2026-04-04T15:32:49.857Z</time></trkpt><trkpt lat="45.5550261" lon="11.2207177"><ele>341.0</ele><time>2026-04-04T15:32:50.858Z</time></trkpt><trkpt lat="45.5549079" lon="11.2208111"><ele>341.0</ele><time>2026-04-04T15:32:51.868Z</time></trkpt><trkpt lat="45.5547902" lon="11.2209011"><ele>341.0</ele><time>2026-04-04T15:32:52.859Z</time></trkpt><trkpt lat="45.5546751" lon="11.2209819"><ele>341.0</ele><time>2026-04-04T15:32:53.862Z</time></trkpt><trkpt lat="45.5545566" lon="11.221063"><ele>341.0</ele><time>2026-04-04T15:32:54.858Z</time></trkpt><trkpt lat="45.5544468" lon="11.2211357"><ele>337.5</ele><time>2026-04-04T15:32:55.86Z</time></trkpt><trkpt lat="45.5543282" lon="11.2212081"><ele>334.0</ele><time>2026-04-04T15:32:56.861Z</time></trkpt><trkpt lat="45.5542155" lon="11.2212719"><ele>330.5</ele><time>2026-04-04T15:32:57.857Z</time></trkpt><trkpt lat="45.5541048" lon="11.2213241"><ele>327.0</ele><time>2026-04-04T15:32:58.858Z</time></trkpt><trkpt lat="45.5539944" lon="11.2213744"><ele>327.0</ele><time>2026-04-04T15:32:59.86Z</time></trkpt><trkpt lat="45.5538702" lon="11.2214326"><ele>327.0</ele><time>2026-04-04T15:33:00.86Z</time></trkpt><trkpt lat="45.5537532" lon="11.2214877"><ele>327.0</ele><time>2026-04-04T15:33:01.866Z</time></trkpt><trkpt lat="45.5536425" lon="11.2215433"><ele>327.0</ele><time>2026-04-04T15:33:02.857Z</time></trkpt><trkpt lat="45.5535359" lon="11.2215952"><ele>325.40000000000003</ele><time>2026-04-04T15:33:03.859Z</time></trkpt><trkpt lat="45.5534357" lon="11.2216463"><ele>323.8</ele><time>2026-04-04T15:33:04.865Z</time></trkpt><trkpt lat="45.5533384" lon="11.2216902"><ele>322.2</ele><time>2026-04-04T15:33:05.857Z</time></trkpt><trkpt lat="45.5532452" lon="11.221735"><ele>320.6</ele><time>2026-04-04T15:33:06.859Z</time></trkpt><trkpt lat="45.5531601" lon="11.2217844"><ele>319.0</ele><time>2026-04-04T15:33:07.86Z</time></trkpt><trkpt lat="45.5530788" lon="11.2218486"><ele>319.0</ele><time>2026-04-04T15:33:08.859Z</time></trkpt><trkpt lat="45.5530038" lon="11.2219138"><ele>319.0</ele><time>2026-04-04T15:33:09.857Z</time></trkpt><trkpt lat="45.5529357" lon="11.221986"><ele>319.0</ele><time>2026-04-04T15:33:10.862Z</time></trkpt><trkpt lat="45.5528788" lon="11.2220731"><ele>319.0</ele><time>2026-04-04T15:33:11.864Z</time></trkpt><trkpt lat="45.5528312" lon="11.2221648"><ele>319.0</ele><time>2026-04-04T15:33:12.855Z</time></trkpt><trkpt lat="45.5527908" lon="11.2222445"><ele>319.0</ele><time>2026-04-04T15:33:13.857Z</time></trkpt><trkpt lat="45.5527045" lon="11.2222785"><ele>315.59999999999997</ele><time>2026-04-04T15:33:15.862Z</time></trkpt><trkpt lat="45.5526521" lon="11.2221284"><ele>312.2</ele><time>2026-04-04T15:33:17.866Z</time></trkpt><trkpt lat="45.5526484" lon="11.2219961"><ele>308.79999999999995</ele><time>2026-04-04T15:33:18.856Z</time></trkpt><trkpt lat="45.5526384" lon="11.221852"><ele>305.4</ele><time>2026-04-04T15:33:19.858Z</time></trkpt><trkpt lat="45.5526169" lon="11.2217182"><ele>302.0</ele><time>2026-04-04T15:33:20.858Z</time></trkpt><trkpt lat="45.5525871" lon="11.2215933"><ele>301.83333333333337</ele><time>2026-04-04T15:33:21.858Z</time></trkpt><trkpt lat="45.5525381" lon="11.2214808"><ele>301.6666666666667</ele><time>2026-04-04T15:33:22.859Z</time></trkpt><trkpt lat="45.5524738" lon="11.2214007"><ele>301.5</ele><time>2026-04-04T15:33:23.859Z</time></trkpt><trkpt lat="45.5523975" lon="11.2213425"><ele>301.3333333333333</ele><time>2026-04-04T15:33:24.857Z</time></trkpt><trkpt lat="45.5523123" lon="11.221314"><ele>301.16666666666663</ele><time>2026-04-04T15:33:25.867Z</time></trkpt><trkpt lat="45.5522282" lon="11.2212928"><ele>301.0</ele><time>2026-04-04T15:33:26.857Z</time></trkpt><trkpt lat="45.552152" lon="11.2212744"><ele>301.0</ele><time>2026-04-04T15:33:27.855Z</time></trkpt><trkpt lat="45.552083" lon="11.2212754"><ele>301.0</ele><time>2026-04-04T15:33:28.859Z</time></trkpt><trkpt lat="45.5520235" lon="11.2213078"><ele>301.0</ele><time>2026-04-04T15:33:29.853Z</time></trkpt><trkpt lat="45.5519704" lon="11.2213992"><ele>301.0</ele><time>2026-04-04T15:33:30.858Z</time></trkpt><trkpt lat="45.5519428" lon="11.221529"><ele>301.0</ele><time>2026-04-04T15:33:31.865Z</time></trkpt><trkpt lat="45.5519243" lon="11.2216737"><ele>301.0</ele><time>2026-04-04T15:33:32.858Z</time></trkpt><trkpt lat="45.551915" lon="11.2218312"><ele>301.75</ele><time>2026-04-04T15:33:33.857Z</time></trkpt><trkpt lat="45.5519169" lon="11.2219999"><ele>302.5</ele><time>2026-04-04T15:33:34.86Z</time></trkpt><trkpt lat="45.5519235" lon="11.2221728"><ele>303.25</ele><time>2026-04-04T15:33:35.859Z</time></trkpt><trkpt lat="45.5519304" lon="11.2223523"><ele>304.0</ele><time>2026-04-04T15:33:36.855Z</time></trkpt><trkpt lat="45.5519379" lon="11.2225334"><ele>301.5</ele><time>2026-04-04T15:33:37.857Z</time></trkpt><trkpt lat="45.5519449" lon="11.2227153"><ele>299.0</ele><time>2026-04-04T15:33:38.862Z</time></trkpt><trkpt lat="45.5519466" lon="11.2228976"><ele>296.5</ele><time>2026-04-04T15:33:39.864Z</time></trkpt><trkpt lat="45.5519338" lon="11.2230776"><ele>294.0</ele><time>2026-04-04T15:33:40.857Z</time></trkpt><trkpt lat="45.5519041" lon="11.2232559"><ele>292.3333333333333</ele><time>2026-04-04T15:33:41.859Z</time></trkpt><trkpt lat="45.5518546" lon="11.2234445"><ele>290.66666666666663</ele><time>2026-04-04T15:33:42.858Z</time></trkpt><trkpt lat="45.5517816" lon="11.2236367"><ele>289.0</ele><time>2026-04-04T15:33:43.855Z</time></trkpt><trkpt lat="45.5516902" lon="11.2238334"><ele>291.0</ele><time>2026-04-04T15:33:44.86Z</time></trkpt><trkpt lat="45.5515944" lon="11.2240386"><ele>293.0</ele><time>2026-04-04T15:33:45.855Z</time></trkpt><trkpt lat="45.5514947" lon="11.2242398"><ele>295.0</ele><time>2026-04-04T15:33:46.859Z</time></trkpt><trkpt lat="45.5513955" lon="11.2244448"><ele>295.0</ele><time>2026-04-04T15:33:47.858Z</time></trkpt><trkpt lat="45.551293" lon="11.2246442"><ele>295.0</ele><time>2026-04-04T15:33:48.855Z</time></trkpt><trkpt lat="45.5511932" lon="11.2248472"><ele>295.0</ele><time>2026-04-04T15:33:49.858Z</time></trkpt><trkpt lat="45.5510913" lon="11.2250418"><ele>291.3333333333333</ele><time>2026-04-04T15:33:50.857Z</time></trkpt><trkpt lat="45.5509931" lon="11.2252417"><ele>287.6666666666667</ele><time>2026-04-04T15:33:51.856Z</time></trkpt><trkpt lat="45.5509012" lon="11.2254433"><ele>284.0</ele><time>2026-04-04T15:33:52.856Z</time></trkpt><trkpt lat="45.5508064" lon="11.2256393"><ele>284.6666666666667</ele><time>2026-04-04T15:33:53.86Z</time></trkpt><trkpt lat="45.5507114" lon="11.225833"><ele>285.3333333333333</ele><time>2026-04-04T15:33:54.858Z</time></trkpt><trkpt lat="45.550625" lon="11.2260185"><ele>286.0</ele><time>2026-04-04T15:33:55.86Z</time></trkpt><trkpt lat="45.5505389" lon="11.226209"><ele>286.0</ele><time>2026-04-04T15:33:56.857Z</time></trkpt><trkpt lat="45.5504643" lon="11.2263906"><ele>286.0</ele><time>2026-04-04T15:33:57.856Z</time></trkpt><trkpt lat="45.5504015" lon="11.2265556"><ele>286.0</ele><time>2026-04-04T15:33:58.862Z</time></trkpt><trkpt lat="45.550358" lon="11.2267233"><ele>286.0</ele><time>2026-04-04T15:33:59.865Z</time></trkpt><trkpt lat="45.5503377" lon="11.2268952"><ele>284.40000000000003</ele><time>2026-04-04T15:34:00.862Z</time></trkpt><trkpt lat="45.5503324" lon="11.227064"><ele>282.8</ele><time>2026-04-04T15:34:01.859Z</time></trkpt><trkpt lat="45.5503201" lon="11.2272285"><ele>281.20000000000005</ele><time>2026-04-04T15:34:02.858Z</time></trkpt><trkpt lat="45.5503094" lon="11.2273779"><ele>279.6</ele><time>2026-04-04T15:34:03.858Z</time></trkpt><trkpt lat="45.550311" lon="11.227523"><ele>278.0</ele><time>2026-04-04T15:34:04.855Z</time></trkpt><trkpt lat="45.5503224" lon="11.2276573"><ele>278.0</ele><time>2026-04-04T15:34:05.859Z</time></trkpt><trkpt lat="45.5503369" lon="11.2277845"><ele>278.0</ele><time>2026-04-04T15:34:06.862Z</time></trkpt><trkpt lat="45.5503617" lon="11.2278977"><ele>278.0</ele><time>2026-04-04T15:34:07.863Z</time></trkpt><trkpt lat="45.5503796" lon="11.2279944"><ele>278.0</ele><time>2026-04-04T15:34:08.858Z</time></trkpt><trkpt lat="45.5503893" lon="11.2281344"><ele>278.0</ele><time>2026-04-04T15:34:10.857Z</time></trkpt><trkpt lat="45.5503178" lon="11.2282754"><ele>279.25</ele><time>2026-04-04T15:34:57.86Z</time></trkpt><trkpt lat="45.5502447" lon="11.2283167"><ele>280.5</ele><time>2026-04-04T15:34:58.853Z</time></trkpt><trkpt lat="45.5501202" lon="11.22837"><ele>281.75</ele><time>2026-04-04T15:34:59.859Z</time></trkpt><trkpt lat="45.5499858" lon="11.2284248"><ele>283.0</ele><time>2026-04-04T15:35:00.857Z</time></trkpt><trkpt lat="45.5498359" lon="11.228484"><ele>283.0</ele><time>2026-04-04T15:35:01.862Z</time></trkpt><trkpt lat="45.5496793" lon="11.2285584"><ele>283.0</ele><time>2026-04-04T15:35:02.865Z</time></trkpt><trkpt lat="45.5495205" lon="11.2286388"><ele>283.0</ele><time>2026-04-04T15:35:03.861Z</time></trkpt><trkpt lat="45.5493606" lon="11.2287155"><ele>281.0</ele><time>2026-04-04T15:35:04.857Z</time></trkpt><trkpt lat="45.5491983" lon="11.2287805"><ele>279.0</ele><time>2026-04-04T15:35:05.859Z</time></trkpt><trkpt lat="45.5490304" lon="11.2288372"><ele>277.0</ele><time>2026-04-04T15:35:06.865Z</time></trkpt><trkpt lat="45.54886" lon="11.2288835"><ele>276.3333333333333</ele><time>2026-04-04T15:35:07.863Z</time></trkpt><trkpt lat="45.5486867" lon="11.2289337"><ele>275.6666666666667</ele><time>2026-04-04T15:35:08.862Z</time></trkpt><trkpt lat="45.5485121" lon="11.2289804"><ele>275.0</ele><time>2026-04-04T15:35:09.855Z</time></trkpt><trkpt lat="45.5483408" lon="11.2290276"><ele>275.6666666666667</ele><time>2026-04-04T15:35:10.856Z</time></trkpt><trkpt lat="45.5481596" lon="11.2290774"><ele>276.3333333333333</ele><time>2026-04-04T15:35:11.86Z</time></trkpt><trkpt lat="45.5479744" lon="11.2291262"><ele>277.0</ele><time>2026-04-04T15:35:12.858Z</time></trkpt><trkpt lat="45.547779" lon="11.2291777"><ele>277.0</ele><time>2026-04-04T15:35:13.854Z</time></trkpt><trkpt lat="45.5475826" lon="11.2292275"><ele>277.0</ele><time>2026-04-04T15:35:14.869Z</time></trkpt><trkpt lat="45.5473889" lon="11.2292859"><ele>277.0</ele><time>2026-04-04T15:35:15.866Z</time></trkpt><trkpt lat="45.5472023" lon="11.2293343"><ele>274.66666666666663</ele><time>2026-04-04T15:35:16.869Z</time></trkpt><trkpt lat="45.5470146" lon="11.2293816"><ele>272.3333333333333</ele><time>2026-04-04T15:35:17.863Z</time></trkpt><trkpt lat="45.5468223" lon="11.2294288"><ele>270.0</ele><time>2026-04-04T15:35:18.86Z</time></trkpt><trkpt lat="45.5466262" lon="11.2294812"><ele>270.0</ele><time>2026-04-04T15:35:19.867Z</time></trkpt><trkpt lat="45.5464281" lon="11.2295304"><ele>270.0</ele><time>2026-04-04T15:35:20.858Z</time></trkpt><trkpt lat="45.5462287" lon="11.229579"><ele>270.0</ele><time>2026-04-04T15:35:21.862Z</time></trkpt><trkpt lat="45.5460318" lon="11.229627"><ele>268.6666666666667</ele><time>2026-04-04T15:35:22.862Z</time></trkpt><trkpt lat="45.5458356" lon="11.229671"><ele>267.33333333333337</ele><time>2026-04-04T15:35:23.856Z</time></trkpt><trkpt lat="45.5456396" lon="11.2297122"><ele>266.0</ele><time>2026-04-04T15:35:24.857Z</time></trkpt><trkpt lat="45.5454577" lon="11.2297431"><ele>264.33333333333337</ele><time>2026-04-04T15:35:25.858Z</time></trkpt><trkpt lat="45.5452914" lon="11.2297744"><ele>262.6666666666667</ele><time>2026-04-04T15:35:26.863Z</time></trkpt><trkpt lat="45.5451382" lon="11.2298028"><ele>261.0</ele><time>2026-04-04T15:35:27.86Z</time></trkpt><trkpt lat="45.5450019" lon="11.2298351"><ele>264.5</ele><time>2026-04-04T15:35:28.859Z</time></trkpt><trkpt lat="45.5448721" lon="11.229884"><ele>268.0</ele><time>2026-04-04T15:35:29.856Z</time></trkpt><trkpt lat="45.5447556" lon="11.2299536"><ele>271.5</ele><time>2026-04-04T15:35:30.863Z</time></trkpt><trkpt lat="45.5446541" lon="11.2300343"><ele>275.0</ele><time>2026-04-04T15:35:31.856Z</time></trkpt><trkpt lat="45.5445657" lon="11.2301096"><ele>273.0</ele><time>2026-04-04T15:35:32.86Z</time></trkpt><trkpt lat="45.54449" lon="11.2301781"><ele>271.0</ele><time>2026-04-04T15:35:33.858Z</time></trkpt><trkpt lat="45.5444153" lon="11.2302237"><ele>269.0</ele><time>2026-04-04T15:35:34.86Z</time></trkpt><trkpt lat="45.5443447" lon="11.2302703"><ele>267.0</ele><time>2026-04-04T15:35:35.854Z</time></trkpt><trkpt lat="45.5442798" lon="11.2303119"><ele>265.0</ele><time>2026-04-04T15:35:36.859Z</time></trkpt><trkpt lat="45.5442104" lon="11.2303623"><ele>263.0</ele><time>2026-04-04T15:35:37.858Z</time></trkpt><trkpt lat="45.5441468" lon="11.2304"><ele>263.0</ele><time>2026-04-04T15:35:38.85Z</time></trkpt><trkpt lat="45.5440841" lon="11.2304376"><ele>263.0</ele><time>2026-04-04T15:35:39.857Z</time></trkpt><trkpt lat="45.5440171" lon="11.2304837"><ele>263.0</ele><time>2026-04-04T15:35:40.856Z</time></trkpt><trkpt lat="45.5438705" lon="11.2305691"><ele>263.0</ele><time>2026-04-04T15:35:42.86Z</time></trkpt><trkpt lat="45.543788" lon="11.2306145"><ele>263.0</ele><time>2026-04-04T15:35:43.863Z</time></trkpt><trkpt lat="45.5436904" lon="11.230676"><ele>262.8</ele><time>2026-04-04T15:35:44.858Z</time></trkpt><trkpt lat="45.543593" lon="11.2307377"><ele>262.6</ele><time>2026-04-04T15:35:45.867Z</time></trkpt><trkpt lat="45.54349" lon="11.2307973"><ele>262.4</ele><time>2026-04-04T15:35:46.855Z</time></trkpt><trkpt lat="45.543387" lon="11.2308555"><ele>262.2</ele><time>2026-04-04T15:35:47.858Z</time></trkpt><trkpt lat="45.543295" lon="11.2309056"><ele>262.0</ele><time>2026-04-04T15:35:48.86Z</time></trkpt><trkpt lat="45.5431966" lon="11.2309379"><ele>262.0</ele><time>2026-04-04T15:35:49.857Z</time></trkpt><trkpt lat="45.5430974" lon="11.230946"><ele>262.0</ele><time>2026-04-04T15:35:50.853Z</time></trkpt><trkpt lat="45.5430034" lon="11.2309256"><ele>262.0</ele><time>2026-04-04T15:35:51.861Z</time></trkpt><trkpt lat="45.542922" lon="11.2308899"><ele>262.0</ele><time>2026-04-04T15:35:52.856Z</time></trkpt><trkpt lat="45.5428457" lon="11.2308538"><ele>262.0</ele><time>2026-04-04T15:35:53.855Z</time></trkpt><trkpt lat="45.5427743" lon="11.2308232"><ele>262.0</ele><time>2026-04-04T15:35:54.857Z</time></trkpt><trkpt lat="45.5427077" lon="11.230808"><ele>260.66666666666663</ele><time>2026-04-04T15:35:55.86Z</time></trkpt><trkpt lat="45.5426013" lon="11.2308142"><ele>259.3333333333333</ele><time>2026-04-04T15:35:57.859Z</time></trkpt><trkpt lat="45.542513" lon="11.2308612"><ele>258.0</ele><time>2026-04-04T15:35:59.863Z</time></trkpt><trkpt lat="45.5424588" lon="11.2309141"><ele>256.6666666666667</ele><time>2026-04-04T15:36:00.861Z</time></trkpt><trkpt lat="45.542399" lon="11.2309727"><ele>255.33333333333334</ele><time>2026-04-04T15:36:01.856Z</time></trkpt><trkpt lat="45.542324" lon="11.2310484"><ele>254.0</ele><time>2026-04-04T15:36:02.853Z</time></trkpt><trkpt lat="45.5422427" lon="11.2311441"><ele>254.0</ele><time>2026-04-04T15:36:03.878Z</time></trkpt><trkpt lat="45.5421629" lon="11.23125"><ele>254.0</ele><time>2026-04-04T15:36:04.86Z</time></trkpt><trkpt lat="45.5420761" lon="11.2313514"><ele>254.0</ele><time>2026-04-04T15:36:05.853Z</time></trkpt><trkpt lat="45.5419785" lon="11.2314722"><ele>254.0</ele><time>2026-04-04T15:36:06.862Z</time></trkpt><trkpt lat="45.5418799" lon="11.2315835"><ele>255.5</ele><time>2026-04-04T15:36:07.857Z</time></trkpt><trkpt lat="45.54177" lon="11.2316786"><ele>257.0</ele><time>2026-04-04T15:36:08.86Z</time></trkpt><trkpt lat="45.5416607" lon="11.2317531"><ele>258.5</ele><time>2026-04-04T15:36:09.859Z</time></trkpt><trkpt lat="45.5415477" lon="11.2318155"><ele>260.0</ele><time>2026-04-04T15:36:10.857Z</time></trkpt><trkpt lat="45.5414287" lon="11.2318692"><ele>260.0</ele><time>2026-04-04T15:36:11.858Z</time></trkpt><trkpt lat="45.5413011" lon="11.2319327"><ele>260.0</ele><time>2026-04-04T15:36:12.862Z</time></trkpt><trkpt lat="45.5411787" lon="11.2319918"><ele>260.0</ele><time>2026-04-04T15:36:13.855Z</time></trkpt><trkpt lat="45.5410634" lon="11.232057"><ele>260.0</ele><time>2026-04-04T15:36:14.86Z</time></trkpt><trkpt lat="45.5409527" lon="11.2321321"><ele>257.0</ele><time>2026-04-04T15:36:15.856Z</time></trkpt><trkpt lat="45.5408536" lon="11.232223"><ele>254.0</ele><time>2026-04-04T15:36:16.857Z</time></trkpt><trkpt lat="45.5407551" lon="11.23231"><ele>251.0</ele><time>2026-04-04T15:36:17.857Z</time></trkpt><trkpt lat="45.5406527" lon="11.2323976"><ele>248.0</ele><time>2026-04-04T15:36:18.855Z</time></trkpt><trkpt lat="45.5405522" lon="11.2324865"><ele>248.75</ele><time>2026-04-04T15:36:19.859Z</time></trkpt><trkpt lat="45.5404463" lon="11.2325723"><ele>249.5</ele><time>2026-04-04T15:36:20.86Z</time></trkpt><trkpt lat="45.5403265" lon="11.2326646"><ele>250.25</ele><time>2026-04-04T15:36:21.861Z</time></trkpt><trkpt lat="45.540182" lon="11.2327787"><ele>251.0</ele><time>2026-04-04T15:36:22.857Z</time></trkpt><trkpt lat="45.5400272" lon="11.2328662"><ele>251.0</ele><time>2026-04-04T15:36:23.857Z</time></trkpt><trkpt lat="45.539835" lon="11.2329906"><ele>251.0</ele><time>2026-04-04T15:36:24.86Z</time></trkpt><trkpt lat="45.5396354" lon="11.2330916"><ele>251.0</ele><time>2026-04-04T15:36:25.855Z</time></trkpt><trkpt lat="45.5394301" lon="11.2331787"><ele>255.66666666666669</ele><time>2026-04-04T15:36:26.855Z</time></trkpt><trkpt lat="45.5392538" lon="11.2332368"><ele>260.3333333333333</ele><time>2026-04-04T15:36:27.857Z</time></trkpt><trkpt lat="45.5390833" lon="11.2332915"><ele>265.0</ele><time>2026-04-04T15:36:28.86Z</time></trkpt><trkpt lat="45.538933" lon="11.2333361"><ele>265.0</ele><time>2026-04-04T15:36:29.859Z</time></trkpt><trkpt lat="45.5387976" lon="11.2333985"><ele>265.0</ele><time>2026-04-04T15:36:30.865Z</time></trkpt><trkpt lat="45.538677" lon="11.2334545"><ele>265.0</ele><time>2026-04-04T15:36:31.853Z</time></trkpt><trkpt lat="45.5385697" lon="11.2335163"><ele>265.0</ele><time>2026-04-04T15:36:32.859Z</time></trkpt><trkpt lat="45.5384709" lon="11.2335695"><ele>263.4</ele><time>2026-04-04T15:36:33.858Z</time></trkpt><trkpt lat="45.5383728" lon="11.2336115"><ele>261.8</ele><time>2026-04-04T15:36:34.858Z</time></trkpt><trkpt lat="45.5382574" lon="11.233616"><ele>260.2</ele><time>2026-04-04T15:36:35.856Z</time></trkpt><trkpt lat="45.5381472" lon="11.2335905"><ele>258.6</ele><time>2026-04-04T15:36:36.862Z</time></trkpt><trkpt lat="45.5380436" lon="11.2335627"><ele>257.0</ele><time>2026-04-04T15:36:37.857Z</time></trkpt><trkpt lat="45.5379481" lon="11.233546"><ele>255.6</ele><time>2026-04-04T15:36:38.855Z</time></trkpt><trkpt lat="45.5378618" lon="11.233551"><ele>254.2</ele><time>2026-04-04T15:36:39.868Z</time></trkpt><trkpt lat="45.5377815" lon="11.2335666"><ele>252.8</ele><time>2026-04-04T15:36:40.864Z</time></trkpt><trkpt lat="45.5377093" lon="11.2335913"><ele>251.4</ele><time>2026-04-04T15:36:41.855Z</time></trkpt><trkpt lat="45.5376003" lon="11.2336376"><ele>250.0</ele><time>2026-04-04T15:36:43.855Z</time></trkpt><trkpt lat="45.5375037" lon="11.2336884"><ele>249.99999999999997</ele><time>2026-04-04T15:36:45.855Z</time></trkpt><trkpt lat="45.5373866" lon="11.2337472"><ele>250.0</ele><time>2026-04-04T15:36:47.858Z</time></trkpt><trkpt lat="45.5373225" lon="11.2337754"><ele>250.0</ele><time>2026-04-04T15:36:48.853Z</time></trkpt><trkpt lat="45.5372551" lon="11.2338052"><ele>250.0</ele><time>2026-04-04T15:36:49.858Z</time></trkpt><trkpt lat="45.5371885" lon="11.2338406"><ele>249.99999999999997</ele><time>2026-04-04T15:36:50.855Z</time></trkpt><trkpt lat="45.5371231" lon="11.2338747"><ele>250.0</ele><time>2026-04-04T15:36:51.857Z</time></trkpt><trkpt lat="45.5370526" lon="11.2339107"><ele>251.4</ele><time>2026-04-04T15:36:52.859Z</time></trkpt><trkpt lat="45.5369708" lon="11.2339503"><ele>252.8</ele><time>2026-04-04T15:36:53.858Z</time></trkpt><trkpt lat="45.5368735" lon="11.2339959"><ele>254.2</ele><time>2026-04-04T15:36:54.861Z</time></trkpt><trkpt lat="45.5367575" lon="11.2340439"><ele>255.6</ele><time>2026-04-04T15:36:55.855Z</time></trkpt><trkpt lat="45.5366491" lon="11.2340816"><ele>257.0</ele><time>2026-04-04T15:36:56.857Z</time></trkpt><trkpt lat="45.5365456" lon="11.2341037"><ele>257.0</ele><time>2026-04-04T15:36:57.858Z</time></trkpt><trkpt lat="45.5364492" lon="11.2341038"><ele>257.0</ele><time>2026-04-04T15:36:58.856Z</time></trkpt><trkpt lat="45.5363546" lon="11.2340628"><ele>257.0</ele><time>2026-04-04T15:36:59.87Z</time></trkpt><trkpt lat="45.5362573" lon="11.2339795"><ele>257.0</ele><time>2026-04-04T15:37:00.856Z</time></trkpt><trkpt lat="45.5361607" lon="11.2338919"><ele>257.0</ele><time>2026-04-04T15:37:01.861Z</time></trkpt><trkpt lat="45.5360707" lon="11.233816"><ele>251.0</ele><time>2026-04-04T15:37:02.86Z</time></trkpt><trkpt lat="45.535961" lon="11.2337732"><ele>245.0</ele><time>2026-04-04T15:37:03.858Z</time></trkpt><trkpt lat="45.5358448" lon="11.2337577"><ele>239.0</ele><time>2026-04-04T15:37:04.858Z</time></trkpt><trkpt lat="45.5357144" lon="11.2337616"><ele>233.0</ele><time>2026-04-04T15:37:05.858Z</time></trkpt><trkpt lat="45.535579" lon="11.2337701"><ele>233.0</ele><time>2026-04-04T15:37:06.858Z</time></trkpt><trkpt lat="45.5354458" lon="11.2337784"><ele>233.0</ele><time>2026-04-04T15:37:07.858Z</time></trkpt><trkpt lat="45.5353084" lon="11.2337873"><ele>233.0</ele><time>2026-04-04T15:37:08.858Z</time></trkpt><trkpt lat="45.5351713" lon="11.2337932"><ele>233.0</ele><time>2026-04-04T15:37:09.856Z</time></trkpt><trkpt lat="45.5350416" lon="11.2338016"><ele>232.0</ele><time>2026-04-04T15:37:10.856Z</time></trkpt><trkpt lat="45.5349219" lon="11.2338051"><ele>231.0</ele><time>2026-04-04T15:37:11.859Z</time></trkpt><trkpt lat="45.5348033" lon="11.2338061"><ele>230.0</ele><time>2026-04-04T15:37:12.858Z</time></trkpt><trkpt lat="45.5346887" lon="11.2338056"><ele>229.0</ele><time>2026-04-04T15:37:13.856Z</time></trkpt><trkpt lat="45.5345793" lon="11.2338096"><ele>228.2</ele><time>2026-04-04T15:37:14.859Z</time></trkpt><trkpt lat="45.534472" lon="11.2338097"><ele>227.39999999999998</ele><time>2026-04-04T15:37:15.859Z</time></trkpt><trkpt lat="45.5343708" lon="11.2338083"><ele>226.6</ele><time>2026-04-04T15:37:16.859Z</time></trkpt><trkpt lat="45.5342773" lon="11.2338081"><ele>225.8</ele><time>2026-04-04T15:37:17.86Z</time></trkpt><trkpt lat="45.534176" lon="11.2338136"><ele>225.0</ele><time>2026-04-04T15:37:18.857Z</time></trkpt><trkpt lat="45.5340802" lon="11.2338192"><ele>225.0</ele><time>2026-04-04T15:37:19.858Z</time></trkpt><trkpt lat="45.5339869" lon="11.2338221"><ele>225.0</ele><time>2026-04-04T15:37:20.856Z</time></trkpt><trkpt lat="45.5339009" lon="11.2338271"><ele>225.0</ele><time>2026-04-04T15:37:21.862Z</time></trkpt><trkpt lat="45.5338121" lon="11.233827"><ele>225.0</ele><time>2026-04-04T15:37:22.858Z</time></trkpt><trkpt lat="45.5337257" lon="11.2338258"><ele>225.0</ele><time>2026-04-04T15:37:23.861Z</time></trkpt><trkpt lat="45.5336408" lon="11.233819"><ele>225.0</ele><time>2026-04-04T15:37:24.858Z</time></trkpt><trkpt lat="45.5335397" lon="11.233818"><ele>223.8</ele><time>2026-04-04T15:37:25.858Z</time></trkpt><trkpt lat="45.5334399" lon="11.2338275"><ele>222.6</ele><time>2026-04-04T15:37:26.86Z</time></trkpt><trkpt lat="45.5333507" lon="11.233841"><ele>221.39999999999998</ele><time>2026-04-04T15:37:27.859Z</time></trkpt><trkpt lat="45.5332609" lon="11.2338585"><ele>220.2</ele><time>2026-04-04T15:37:28.863Z</time></trkpt><trkpt lat="45.5331572" lon="11.2338893"><ele>219.0</ele><time>2026-04-04T15:37:29.856Z</time></trkpt><trkpt lat="45.5330542" lon="11.2339144"><ele>219.0</ele><time>2026-04-04T15:37:30.862Z</time></trkpt><trkpt lat="45.5329579" lon="11.2339257"><ele>218.99999999999997</ele><time>2026-04-04T15:37:31.856Z</time></trkpt><trkpt lat="45.532866" lon="11.2339442"><ele>218.99999999999997</ele><time>2026-04-04T15:37:32.859Z</time></trkpt><trkpt lat="45.5327788" lon="11.2339626"><ele>219.0</ele><time>2026-04-04T15:37:33.856Z</time></trkpt><trkpt lat="45.5326918" lon="11.2339805"><ele>219.0</ele><time>2026-04-04T15:37:34.859Z</time></trkpt><trkpt lat="45.5325992" lon="11.2339949"><ele>220.79999999999998</ele><time>2026-04-04T15:37:35.855Z</time></trkpt><trkpt lat="45.5325119" lon="11.2340038"><ele>222.59999999999997</ele><time>2026-04-04T15:37:36.859Z</time></trkpt><trkpt lat="45.5324225" lon="11.2340147"><ele>224.4</ele><time>2026-04-04T15:37:37.857Z</time></trkpt><trkpt lat="45.5323315" lon="11.2340296"><ele>226.2</ele><time>2026-04-04T15:37:38.857Z</time></trkpt><trkpt lat="45.5322397" lon="11.2340447"><ele>228.0</ele><time>2026-04-04T15:37:39.854Z</time></trkpt><trkpt lat="45.5321464" lon="11.2340584"><ele>225.60000000000002</ele><time>2026-04-04T15:37:40.859Z</time></trkpt><trkpt lat="45.5320561" lon="11.2340662"><ele>223.20000000000002</ele><time>2026-04-04T15:37:41.854Z</time></trkpt><trkpt lat="45.5319603" lon="11.2340818"><ele>220.8</ele><time>2026-04-04T15:37:42.857Z</time></trkpt><trkpt lat="45.5318597" lon="11.2341057"><ele>218.4</ele><time>2026-04-04T15:37:43.863Z</time></trkpt><trkpt lat="45.5317536" lon="11.234143"><ele>216.0</ele><time>2026-04-04T15:37:44.857Z</time></trkpt><trkpt lat="45.5316261" lon="11.2341808"><ele>216.0</ele><time>2026-04-04T15:37:45.861Z</time></trkpt><trkpt lat="45.5314826" lon="11.234225"><ele>216.0</ele><time>2026-04-04T15:37:46.858Z</time></trkpt><trkpt lat="45.5313384" lon="11.2342709"><ele>216.0</ele><time>2026-04-04T15:37:47.861Z</time></trkpt><trkpt lat="45.5312087" lon="11.2343102"><ele>216.0</ele><time>2026-04-04T15:37:48.858Z</time></trkpt><trkpt lat="45.5310791" lon="11.234351"><ele>215.0</ele><time>2026-04-04T15:37:49.854Z</time></trkpt><trkpt lat="45.5309352" lon="11.2343966"><ele>214.0</ele><time>2026-04-04T15:37:50.864Z</time></trkpt><trkpt lat="45.5307869" lon="11.2344498"><ele>213.0</ele><time>2026-04-04T15:37:51.858Z</time></trkpt><trkpt lat="45.5306528" lon="11.2344982"><ele>212.0</ele><time>2026-04-04T15:37:52.857Z</time></trkpt><trkpt lat="45.5305266" lon="11.2345439"><ele>212.0</ele><time>2026-04-04T15:37:53.859Z</time></trkpt><trkpt lat="45.5304026" lon="11.2345882"><ele>212.0</ele><time>2026-04-04T15:37:54.853Z</time></trkpt><trkpt lat="45.5302889" lon="11.2346245"><ele>212.0</ele><time>2026-04-04T15:37:55.856Z</time></trkpt><trkpt lat="45.5301794" lon="11.2346407"><ele>212.0</ele><time>2026-04-04T15:37:56.858Z</time></trkpt><trkpt lat="45.5300603" lon="11.2346265"><ele>210.5</ele><time>2026-04-04T15:37:57.861Z</time></trkpt><trkpt lat="45.5299376" lon="11.2345719"><ele>209.0</ele><time>2026-04-04T15:37:58.858Z</time></trkpt><trkpt lat="45.5298056" lon="11.2344805"><ele>207.5</ele><time>2026-04-04T15:37:59.868Z</time></trkpt><trkpt lat="45.529669" lon="11.2343848"><ele>206.0</ele><time>2026-04-04T15:38:00.853Z</time></trkpt><trkpt lat="45.5295337" lon="11.2342998"><ele>205.0</ele><time>2026-04-04T15:38:01.86Z</time></trkpt><trkpt lat="45.5293957" lon="11.2342315"><ele>204.0</ele><time>2026-04-04T15:38:02.86Z</time></trkpt><trkpt lat="45.5292741" lon="11.2341739"><ele>203.0</ele><time>2026-04-04T15:38:03.86Z</time></trkpt><trkpt lat="45.5291574" lon="11.2341294"><ele>202.0</ele><time>2026-04-04T15:38:04.859Z</time></trkpt><trkpt lat="45.5290462" lon="11.2340865"><ele>202.0</ele><time>2026-04-04T15:38:05.855Z</time></trkpt><trkpt lat="45.5289443" lon="11.2340523"><ele>202.0</ele><time>2026-04-04T15:38:06.857Z</time></trkpt><trkpt lat="45.5288482" lon="11.2340123"><ele>202.0</ele><time>2026-04-04T15:38:07.859Z</time></trkpt><trkpt lat="45.528759" lon="11.2339773"><ele>202.0</ele><time>2026-04-04T15:38:08.86Z</time></trkpt><trkpt lat="45.5286756" lon="11.2339408"><ele>202.0</ele><time>2026-04-04T15:38:09.853Z</time></trkpt><trkpt lat="45.5286061" lon="11.2338959"><ele>200.83333333333331</ele><time>2026-04-04T15:38:10.858Z</time></trkpt><trkpt lat="45.5285524" lon="11.233844"><ele>199.66666666666666</ele><time>2026-04-04T15:38:11.863Z</time></trkpt><trkpt lat="45.5284941" lon="11.2337519"><ele>198.5</ele><time>2026-04-04T15:38:13.86Z</time></trkpt><trkpt lat="45.5285021" lon="11.2336285"><ele>197.33333333333331</ele><time>2026-04-04T15:38:31.857Z</time></trkpt><trkpt lat="45.528512" lon="11.233516"><ele>196.16666666666666</ele><time>2026-04-04T15:38:32.856Z</time></trkpt><trkpt lat="45.528501" lon="11.233396"><ele>195.0</ele><time>2026-04-04T15:38:33.852Z</time></trkpt><trkpt lat="45.5284486" lon="11.2333067"><ele>195.0</ele><time>2026-04-04T15:38:34.856Z</time></trkpt><trkpt lat="45.5283736" lon="11.2332659"><ele>195.0</ele><time>2026-04-04T15:38:35.863Z</time></trkpt><trkpt lat="45.5282972" lon="11.2332762"><ele>195.0</ele><time>2026-04-04T15:38:36.861Z</time></trkpt><trkpt lat="45.5282268" lon="11.2333296"><ele>195.0</ele><time>2026-04-04T15:38:37.856Z</time></trkpt><trkpt lat="45.5281956" lon="11.2334556"><ele>195.0</ele><time>2026-04-04T15:38:38.857Z</time></trkpt><trkpt lat="45.528179" lon="11.2335854"><ele>195.0</ele><time>2026-04-04T15:38:39.857Z</time></trkpt><trkpt lat="45.5281538" lon="11.2337119"><ele>195.0</ele><time>2026-04-04T15:38:40.865Z</time></trkpt><trkpt lat="45.5280888" lon="11.2338234"><ele>195.0</ele><time>2026-04-04T15:38:41.857Z</time></trkpt><trkpt lat="45.5280006" lon="11.2338996"><ele>195.0</ele><time>2026-04-04T15:38:42.863Z</time></trkpt><trkpt lat="45.5278959" lon="11.2339504"><ele>195.0</ele><time>2026-04-04T15:38:43.86Z</time></trkpt><trkpt lat="45.5277842" lon="11.2340075"><ele>195.0</ele><time>2026-04-04T15:38:44.857Z</time></trkpt><trkpt lat="45.5276667" lon="11.2340629"><ele>195.25</ele><time>2026-04-04T15:38:45.86Z</time></trkpt><trkpt lat="45.5275399" lon="11.2341193"><ele>195.5</ele><time>2026-04-04T15:38:46.876Z</time></trkpt><trkpt lat="45.5274088" lon="11.2341745"><ele>195.75</ele><time>2026-04-04T15:38:47.857Z</time></trkpt><trkpt lat="45.5272697" lon="11.2342301"><ele>196.0</ele><time>2026-04-04T15:38:48.859Z</time></trkpt><trkpt lat="45.5271243" lon="11.2342824"><ele>195.33333333333331</ele><time>2026-04-04T15:38:49.862Z</time></trkpt><trkpt lat="45.5269676" lon="11.2343369"><ele>194.66666666666669</ele><time>2026-04-04T15:38:50.863Z</time></trkpt><trkpt lat="45.5268192" lon="11.2343793"><ele>194.0</ele><time>2026-04-04T15:38:51.86Z</time></trkpt><trkpt lat="45.5266763" lon="11.2344184"><ele>194.0</ele><time>2026-04-04T15:38:52.863Z</time></trkpt><trkpt lat="45.5265386" lon="11.2344603"><ele>194.0</ele><time>2026-04-04T15:38:53.857Z</time></trkpt><trkpt lat="45.5263964" lon="11.2344871"><ele>194.0</ele><time>2026-04-04T15:38:54.86Z</time></trkpt><trkpt lat="45.5262475" lon="11.2344974"><ele>194.0</ele><time>2026-04-04T15:38:55.86Z</time></trkpt><trkpt lat="45.5260956" lon="11.2345277"><ele>193.25</ele><time>2026-04-04T15:38:56.855Z</time></trkpt><trkpt lat="45.5259551" lon="11.2345572"><ele>192.5</ele><time>2026-04-04T15:38:57.869Z</time></trkpt><trkpt lat="45.525816" lon="11.2345934"><ele>191.75</ele><time>2026-04-04T15:38:58.853Z</time></trkpt><trkpt lat="45.525686" lon="11.2346521"><ele>191.0</ele><time>2026-04-04T15:38:59.853Z</time></trkpt><trkpt lat="45.5255616" lon="11.2347424"><ele>191.0</ele><time>2026-04-04T15:39:00.874Z</time></trkpt><trkpt lat="45.5254623" lon="11.234835"><ele>191.0</ele><time>2026-04-04T15:39:01.851Z</time></trkpt><trkpt lat="45.5253495" lon="11.2349177"><ele>191.0</ele><time>2026-04-04T15:39:02.858Z</time></trkpt><trkpt lat="45.5252241" lon="11.2349804"><ele>191.0</ele><time>2026-04-04T15:39:03.858Z</time></trkpt><trkpt lat="45.5250967" lon="11.2350212"><ele>191.0</ele><time>2026-04-04T15:39:04.856Z</time></trkpt><trkpt lat="45.5249654" lon="11.2350709"><ele>191.0</ele><time>2026-04-04T15:39:05.859Z</time></trkpt><trkpt lat="45.5248287" lon="11.2351067"><ele>191.0</ele><time>2026-04-04T15:39:06.858Z</time></trkpt><trkpt lat="45.5247002" lon="11.2351451"><ele>191.0</ele><time>2026-04-04T15:39:07.859Z</time></trkpt><trkpt lat="45.5245895" lon="11.2351929"><ele>190.75</ele><time>2026-04-04T15:39:08.865Z</time></trkpt><trkpt lat="45.5244525" lon="11.2352517"><ele>190.5</ele><time>2026-04-04T15:39:09.857Z</time></trkpt><trkpt lat="45.5243265" lon="11.2353062"><ele>190.25</ele><time>2026-04-04T15:39:10.858Z</time></trkpt><trkpt lat="45.5242161" lon="11.2353532"><ele>190.0</ele><time>2026-04-04T15:39:11.862Z</time></trkpt><trkpt lat="45.5241157" lon="11.2353901"><ele>190.0</ele><time>2026-04-04T15:39:12.866Z</time></trkpt><trkpt lat="45.5240291" lon="11.2354171"><ele>190.0</ele><time>2026-04-04T15:39:13.858Z</time></trkpt><trkpt lat="45.5239558" lon="11.2354321"><ele>190.0</ele><time>2026-04-04T15:39:14.863Z</time></trkpt><trkpt lat="45.5238678" lon="11.2353569"><ele>190.0</ele><time>2026-04-04T15:39:16.861Z</time></trkpt><trkpt lat="45.5238329" lon="11.2351887"><ele>190.0</ele><time>2026-04-04T15:39:18.861Z</time></trkpt><trkpt lat="45.523813" lon="11.2350664"><ele>190.0</ele><time>2026-04-04T15:39:19.862Z</time></trkpt><trkpt lat="45.5238255" lon="11.2349334"><ele>190.0</ele><time>2026-04-04T15:39:20.856Z</time></trkpt><trkpt lat="45.5238221" lon="11.2348284"><ele>190.0</ele><time>2026-04-04T15:39:21.872Z</time></trkpt><trkpt lat="45.5237893" lon="11.2346933"><ele>190.0</ele><time>2026-04-04T15:39:23.855Z</time></trkpt><trkpt lat="45.5237107" lon="11.2346463"><ele>190.0</ele><time>2026-04-04T15:39:25.855Z</time></trkpt><trkpt lat="45.5236236" lon="11.2346677"><ele>190.0</ele><time>2026-04-04T15:39:27.859Z</time></trkpt><trkpt lat="45.5235571" lon="11.2346786"><ele>184.0</ele><time>2026-04-04T15:39:29.863Z</time></trkpt><trkpt lat="45.5235196" lon="11.2346059"><ele>184.0</ele><time>2026-04-04T15:39:32.857Z</time></trkpt><trkpt lat="45.5235565" lon="11.2346787"><ele>184.0</ele><time>2026-04-04T15:42:48.863Z</time></trkpt><trkpt lat="45.5235178" lon="11.2347564"><ele>184.0</ele><time>2026-04-04T15:43:04.861Z</time></trkpt></trkseg></trk></gpx>